[[{"header":{"parameterUnit":"m.s-1","parameterCategory":1,"la1":31.0,"la2":29.5877,"lo1":-88.7671,"lo2":-86.6584,"dy":0.0162,"dx":0.0185,"nx":115,"ny":88,"refTime":"2026-04-19T00:00:00:Z","depth":0,"parameterNumber":2,"parameterNumberName":"U-component_of_WINDS"},"data":[0.0,0.0,0.0,0.0,0.0,0.0,0.0,0.0,0.0,0.0,0.0,0.0,0.0,0.0,0.0,0.0,0.0,0.0,0.0,0.0,0.0,0.0,0.0,0.0,0.0,0.0,0.0,0.0,0.0,0.0,0.0,0.0,0.0,0.0,0.0,0.0,0.0,0.0,0.0,0.0,0.0,0.0,0.0,0.0,0.0,0.0,0.0,0.0,0.0,0.0,0.0,0.0,0.0,0.0,0.0,0.0,0.0,0.0,0.0,0.0,0.0,0.0,0.0,0.0,0.0,0.0,0.0,0.0,0.0,0.0,0.0,0.0,0.0,0.0,0.0,0.0,0.0,0.0,0.0,0.0,0.0,0.0,0.0,0.0,0.0,0.0,0.0,0.0,0.0,0.0,0.0,0.0,0.0,0.0,0.0,0.0,0.0,0.0,0.0,0.0,0.0,0.0,0.0,0.0,0.0,0.0,0.0,0.0,0.0,0.0,0.0,0.0,0.0,0.0,0.0,0.0,0.0,0.0,0.0,0.0,0.0,0.0,0.0,0.0,0.0,0.0,0.0,0.0,0.0,0.0,0.0,0.0,0.0,0.0,0.0,0.0,0.0,0.0,0.0,0.0,0.0,0.0,0.0,0.0,0.0,0.0,0.0,0.0,0.0,0.0,0.0,0.0,0.0,0.0,0.0,0.0,0.0,0.0,0.0,0.0,0.0,0.0,0.0,0.0,0.0,0.0,0.0,0.0,0.0,0.0,0.0,0.0,0.0,0.0,0.0,0.0,0.0,0.0,0.0,0.0,0.0,0.0,0.0,0.0,0.0,0.0,0.0,0.0,0.0,0.0,0.0,0.0,0.0,0.0,0.0,0.0,0.0,0.0,0.0,0.0,0.0,0.0,0.0,0.0,0.0,0.0,0.0,0.0,0.0,0.0,0.0,0.0,0.0,0.0,0.0,0.0,0.0,0.0,0.0,0.0,0.0,0.0,0.0,0.0,0.0,0.0,0.0,0.0,0.0,0.0,0.0,0.0,0.0,0.0,0.0,0.0,0.0,0.0,0.0,0.0,0.0,0.0,0.0,0.0,0.0,0.0,0.0,0.0,0.0,0.0,0.0,0.0,0.0,0.0,0.0,0.0,0.0,0.0,0.0,0.0,0.0,0.0,0.0,0.0,0.0,0.0,0.0,0.0,0.0,0.0,0.0,0.0,0.0,0.0,0.0,0.0,0.0,0.0,0.0,0.0,0.0,0.0,0.0,0.0,0.0,0.0,0.0,0.0,0.0,0.0,0.0,0.0,0.0,0.0,0.0,0.0,0.0,0.0,0.0,0.0,0.0,0.0,0.0,0.0,0.0,0.0,0.0,0.0,0.0,0.0,0.0,0.0,0.0,0.0,0.0,0.0,0.0,0.0,0.0,0.0,0.0,0.0,0.0,0.0,0.0,0.0,0.0,0.0,0.0,0.0,0.0,0.0,0.0,0.0,0.0,0.0,0.0,0.0,0.0,0.0,0.0,0.0,0.0,0.0,0.0,0.0,0.0,0.0,0.0,0.0,0.0,0.0,0.0,0.0,0.0,0.0,0.0,0.0,0.0,0.0,0.0,0.0,0.0,0.0,0.0,0.0,0.0,0.0,0.0,0.0,0.0,0.0,0.0,0.0,0.0,0.0,0.0,0.0,0.0,0.0,0.0,0.0,0.0,0.0,0.0,0.0,0.0,0.0,0.0,0.0,0.0,0.0,0.0,0.0,0.0,0.0,0.0,0.0,0.0,0.0,0.0,0.0,0.0,0.0,0.0,0.0,0.0,0.0,0.0,0.0,0.0,0.0,0.0,0.0,0.0,0.0,0.0,0.0,0.0,0.0,0.0,0.0,0.0,0.0,0.0,0.0,0.0,0.0,0.0,0.0,0.0,0.0,0.0,0.0,0.0,0.0,0.0,0.0,0.0,0.0,0.0,0.0,0.0,0.0,0.0,0.0,0.0,0.0,0.0,0.0,0.0,0.0,0.0,0.0,0.0,0.0,0.0,0.0,0.0,0.0,0.0,0.0,0.0,0.0,0.0,0.0,0.0,0.0,0.0,0.0,0.0,0.0,0.0,0.0,0.0,0.0,0.0,0.0,0.0,0.0,0.0,0.0,0.0,0.0,0.0,0.0,0.0,0.0,0.0,0.0,0.0,0.0,0.0,0.0,0.0,0.0,0.0,0.0,0.0,0.0,0.0,0.0,0.0,0.0,0.0,0.0,0.0,0.0,0.0,0.0,0.0,0.0,0.0,0.0,0.0,0.0,0.0,0.0,0.0,0.0,0.0,0.0,0.0,0.0,0.0,0.0,0.0,0.0,0.0,0.0,0.0,0.0,0.0,0.0,0.0,0.0,0.0,0.0,0.0,0.0,0.0,0.0,0.0,0.0,0.0,0.0,0.0,0.0,0.0,0.0,0.0,0.0,0.0,0.0,0.0,0.0,0.0,0.0,0.0,0.0,0.0,0.0,0.0,0.0,0.0,0.0,0.0,0.0,0.0,0.0,0.0,0.0,0.0,0.0,0.0,0.0,0.0,0.0,0.0,0.0,0.0,0.0,0.0,0.0,0.0,0.0,0.0,0.0,0.0,0.0,0.0,0.0,0.0,0.0,0.0,0.0,0.0,0.0,0.0,0.0,0.0,0.0,0.0,0.0,0.0,0.0,0.0,0.0,0.0,0.0,0.0,0.0,0.0,0.0,0.0,0.0,0.0,0.0,0.0,0.0,0.0,0.0,0.0,0.0,0.0,0.0,0.0,0.0,0.0,0.0,0.0,0.0,0.0,0.0,0.0,0.0,0.0,0.0,0.0,0.0,0.0,0.0,0.0,0.0,0.0,0.0,0.0,0.0,0.0,0.0,0.0,0.0,0.0,0.0,0.0,0.0,0.0,0.0,0.0,0.0,0.0,0.0,0.0,0.0,0.0,0.0,0.0,0.0,0.0,0.0,0.0,0.0,0.0,0.0,0.0,0.0,0.0,0.0,0.0,0.0,0.0,0.0,0.0,0.0,0.0,0.0,0.0,0.0,0.0,0.0,0.0,0.0,0.0,0.0,0.0,0.0,0.0,0.0,0.0,0.0,0.0,0.0,0.0,0.0,0.0,0.0,0.0,0.0,0.0,0.0,0.0,0.0,0.0,0.0,0.0,0.0,0.0,0.0,0.0,0.0,0.0,0.0,0.0,0.0,0.0,0.0,0.0,0.0,0.0,0.0,0.0,0.0,0.0,0.0,0.0,0.0,0.0,0.0,0.0,0.0,0.0,0.0,0.0,0.0,0.0,0.0,0.0,0.0,0.0,0.0,0.0,0.0,0.0,0.0,0.0,0.0,0.0,0.0,0.0,0.0,0.0,0.0,0.0,0.0,0.0,0.0,0.0,0.0,0.0,0.0,0.0,0.0,0.0,0.0,0.0,0.0,0.0,0.0,0.0,0.0,0.0,0.0,0.0,0.0,0.0,0.0,0.0,0.0,0.0,0.0,0.0,0.0,0.0,0.0,0.0,0.0,0.0,0.0,0.0,0.0,0.0,0.0,0.0,0.0,0.0,0.0,0.0,0.0,0.0,0.0,0.0,0.0,0.0,0.0,0.0,0.0,0.0,0.0,0.0,0.0,0.0,0.0,0.0,0.0,0.0,0.0,0.0,0.0,0.0,0.0,0.0,0.0,0.0,0.0,0.0,0.0,0.0,0.0,0.0,0.0,0.0,0.0,0.0,0.0,0.0,0.0,0.0,0.0,0.0,0.0,0.0,0.0,0.0,0.0,0.0,0.0,0.0,0.0,0.0,0.0,0.0,0.0,0.0,0.0,0.0,0.0,0.0,0.0,0.0,0.0,0.0,0.0,0.0,0.0,0.0,0.0,0.0,0.0,0.0,0.0,0.0,0.0,0.0,0.0,0.0,0.0,0.0,0.0,0.0,0.0,0.0,0.0,0.0,0.0,0.0,0.0,0.0,0.0,0.0,0.0,0.0,0.0,0.0,0.0,0.0,0.0,0.0,0.0,0.0,0.0,0.0,0.0,0.0,0.0,0.0,0.0,0.0,0.0,0.0,0.0,0.0,0.0,0.0,0.0,0.0,0.0,0.0,0.0,0.0,0.0,0.0,0.0,0.0,0.0,0.0,0.0,0.0,0.0,0.0,0.0,0.0,0.0,0.0,0.0,0.0,0.0,0.0,0.0,0.0,0.0,0.0,0.0,0.0,0.0,0.0,0.0,0.0,0.0,0.0,0.0,0.0,0.0,0.0,0.0,0.0,0.0,0.6578,0.0,0.0,0.0,0.0,0.0,0.0,0.0,0.0,0.0,0.0,0.0,0.0,0.0,0.0,0.0,0.0,0.0,0.0,0.0,0.0,0.0,0.0,0.0,0.0,0.0,0.0,0.0,0.0,0.0,0.0,0.0,0.0,0.0,0.0,0.0,0.0,0.0,0.0,0.0,0.0,0.0,0.0,0.0,0.0,0.0,0.0,0.0,0.0,0.0,0.0,0.0,0.0,0.0,0.0,0.0,0.0,0.0,0.0,0.0,0.0,0.0,0.0,0.0,0.0,0.0,0.0,0.0,0.0,0.0,0.0,0.0,0.0,0.0,0.0,0.0,0.0,0.0,0.0,0.0,0.0,0.0,0.0,0.0,0.0,0.0,0.0,0.0,0.0,0.0,0.0,0.0,0.0,0.0,0.0,0.0,0.0,0.0,0.0,0.0,0.0,0.0,0.0,0.0,0.0,0.0,0.0,0.0,0.0,0.0,0.0,0.6578,0.6578,0.6578,0.6578,0.6578,0.0,0.0,0.0,0.0,0.0,0.0,0.0,0.0,0.0,0.0,0.0,0.0,0.0,0.0,0.0,0.0,0.0,0.0,0.0,0.0,0.0,0.0,0.0,0.0,0.0,0.0,0.0,0.0,0.0,0.0,0.0,0.0,0.0,0.0,0.0,0.0,0.0,0.0,0.0,0.0,0.0,0.0,0.0,0.0,0.0,0.0,0.0,0.0,0.0,0.0,0.0,0.0,0.0,0.0,0.0,0.0,0.0,0.0,0.0,0.0,0.0,0.0,0.0,0.0,0.0,0.0,0.0,0.0,0.0,0.0,0.0,0.0,0.0,0.0,0.0,0.0,0.0,0.0,0.0,0.0,0.0,0.0,0.0,0.0,0.0,0.0,0.0,0.0,0.0,0.0,0.0,0.0,0.0,0.0,0.0,0.0,0.0,0.0,0.0,0.0,0.0,0.0,0.0,0.0,0.0,0.0,0.0,0.0,0.0,0.0,0.0,0.0,0.6955,0.6926,0.6955,0.0,0.0,0.0,0.0,0.0,0.0,0.0,0.0,0.0,0.0,0.0,0.0,0.0,0.0,0.0,0.0,0.0,0.0,0.0,0.0,0.0,0.0,0.0,0.0,0.0,0.0,0.0,0.0,0.0,0.0,0.0,0.0,0.0,0.0,0.0,0.0,0.0,0.0,0.0,0.0,0.0,0.0,0.0,0.0,0.0,0.0,0.0,0.0,0.0,0.0,0.0,0.0,0.0,0.0,0.0,0.0,0.0,0.0,0.0,0.0,0.0,0.0,0.0,0.0,0.0,0.0,0.0,0.0,0.0,0.0,0.0,0.0,0.0,0.0,0.0,0.0,0.0,0.0,0.0,0.0,0.0,0.0,0.0,0.0,0.0,0.0,0.0,0.0,0.0,0.0,0.0,0.0,0.0,0.0,0.0,0.0,0.0,0.0,0.0,0.0,0.0,0.0,0.0,0.0,0.0,0.0,0.0,0.0,0.0,0.0,0.7058,0.8027,0.7983,0.0,0.7946,0.0,0.0,0.0,0.0,0.0,0.0,0.0,0.0,0.0,0.0,0.0,0.0,0.0,0.0,0.0,0.0,0.0,0.0,0.0,0.0,0.0,0.0,0.0,0.0,0.0,0.0,0.0,0.0,0.0,0.0,0.0,0.0,0.0,0.0,0.0,0.0,0.0,0.0,0.0,0.0,0.0,0.0,0.0,0.0,0.0,0.0,0.0,0.0,0.0,0.0,0.0,0.0,0.0,0.0,0.0,0.0,0.0,0.0,0.0,0.0,0.0,0.0,0.0,0.0,0.0,0.0,0.0,0.0,0.0,0.0,0.0,0.0,0.0,0.0,0.0,0.0,0.0,0.0,0.0,0.0,0.0,0.0,0.0,0.0,0.0,0.0,0.0,0.0,0.0,0.0,0.0,0.0,0.0,0.0,0.0,0.0,0.0,0.0,0.0,0.0,0.0,0.0,0.0,0.0,0.0,0.0,0.0,0.0,0.0,0.0,0.7686,0.8137,0.811,0.8077,0.0,0.0,0.0,0.0,0.0,0.0,0.0,0.0,0.0,0.0,0.0,0.0,0.0,0.0,0.0,0.0,0.0,0.0,0.0,0.0,0.0,0.0,0.0,0.0,0.0,0.0,0.0,0.0,0.0,0.0,0.0,0.0,0.0,0.0,0.0,0.0,0.0,0.0,0.0,0.0,0.0,0.0,0.0,0.0,0.0,0.0,0.0,0.0,0.0,0.0,0.0,0.0,0.0,0.0,0.0,0.0,0.0,0.0,0.0,0.0,0.0,0.0,0.0,0.0,0.0,0.0,0.0,0.0,0.0,0.0,0.0,0.0,0.0,0.0,0.0,0.0,0.0,0.0,0.0,0.0,0.0,0.0,0.0,0.0,0.0,0.0,0.0,0.0,0.0,0.0,0.0,0.0,0.0,0.0,0.0,0.0,0.0,0.0,0.0,0.0,0.0,0.0,0.0,0.0,0.0,0.0,0.0,0.0,0.0,0.0,0.7852,0.8219,0.8501,0.8491,0.8356,0.8074,0.0,0.0,0.0,0.0,0.0,0.0,0.0,0.0,0.0,0.0,0.0,0.0,0.0,0.0,0.0,0.0,0.0,0.0,0.0,0.0,0.0,0.0,0.0,0.0,0.0,0.0,0.0,0.0,0.0,0.0,0.0,0.0,0.0,0.0,0.0,0.0,0.0,0.0,0.0,0.0,0.0,0.0,0.0,0.0,0.0,0.0,0.0,0.0,0.0,0.0,0.0,0.0,0.0,0.0,0.0,0.0,0.0,0.0,0.0,0.0,0.0,0.0,0.0,0.0,0.0,0.0,0.0,0.0,0.0,0.0,0.0,0.0,0.0,0.0,0.0,0.0,0.0,0.0,0.0,0.0,0.0,0.0,0.0,0.0,0.0,0.0,0.0,0.0,0.0,0.0,0.0,0.0,0.0,0.0,0.0,0.0,0.0,0.0,0.0,0.0,0.0,0.0,0.0,0.0,0.0,0.0,0.0,0.0,0.0,0.8532,0.8569,0.9501,0.9478,0.8964,0.0,0.0,0.0,0.0,0.0,0.0,0.0,0.0,0.0,0.0,0.0,0.0,0.0,0.0,0.0,0.0,0.0,0.0,0.0,0.0,0.0,0.0,0.0,0.0,0.0,0.0,0.0,0.0,0.0,0.0,0.0,0.0,0.0,0.0,0.0,0.0,0.0,0.0,0.0,0.0,0.0,0.0,0.0,0.0,0.0,0.0,0.0,0.0,0.0,0.0,0.0,0.0,0.0,0.0,0.0,0.0,0.0,0.0,0.0,0.0,0.0,0.0,0.0,0.0,0.0,0.0,0.0,0.0,0.0,0.0,0.0,0.0,0.0,0.0,0.0,0.0,0.0,0.0,0.0,0.0,0.0,0.0,0.0,0.0,0.0,0.0,0.0,0.0,0.0,0.0,0.0,0.0,0.0,0.0,0.0,0.0,0.0,0.0,0.0,0.0,0.0,0.0,0.0,0.0,0.0,0.0,0.0,0.0,0.0,0.7504,0.7854,0.8827,1.0425,0.9217,0.8598,0.0,0.0,0.0,0.0,0.0,0.0,0.0,0.0,0.0,0.0,0.0,0.0,0.0,0.0,0.0,0.0,0.0,0.0,0.0,0.0,0.0,0.0,0.0,0.0,0.0,0.0,0.0,0.0,0.0,0.0,0.0,0.0,0.0,0.0,0.0,0.0,0.0,0.0,0.0,0.0,0.0,0.0,0.0,0.0,0.0,0.0,0.0,0.0,0.0,0.0,0.0,0.0,0.0,0.0,0.0,0.0,0.0,0.0,0.0,0.0,0.0,0.0,0.0,0.0,0.0,0.0,0.0,0.0,0.0,0.0,0.0,0.0,0.0,0.0,0.0,0.0,0.0,0.0,0.0,0.0,0.0,0.0,0.0,0.0,0.0,0.0,0.0,0.0,0.0,0.0,0.0,0.0,0.0,0.0,0.0,0.0,0.0,0.0,0.0,0.0,0.0,0.0,0.0,0.0,0.0,0.0,0.0,0.0,0.0,0.7414,0.0,0.9533,0.0,0.9174,0.8429,0.0,0.0,0.0,0.0,0.0,0.0,0.0,0.0,0.0,0.0,0.0,0.0,0.0,0.0,0.0,0.0,0.0,0.0,0.0,0.0,0.0,0.0,0.0,0.0,0.0,0.0,0.0,0.0,0.0,0.0,0.0,0.0,0.0,0.0,0.0,0.0,0.0,0.0,0.0,0.0,0.0,0.0,0.0,0.0,0.0,0.0,0.0,0.0,0.0,0.0,0.0,0.0,0.0,0.0,0.0,0.0,0.0,0.0,0.0,0.0,0.0,0.0,0.0,0.0,0.0,0.0,0.0,0.0,0.0,0.0,0.0,0.0,0.0,0.0,0.0,0.0,0.0,0.0,0.0,0.0,0.0,0.0,0.0,0.0,0.0,0.0,0.0,0.0,0.0,0.0,0.0,0.0,0.0,0.0,0.0,0.0,0.0,0.0,0.0,0.0,0.0,0.0,0.0,0.0,0.0,0.0,0.0,0.0,0.7357,0.936,1.0406,1.0454,0.9582,0.9425,0.8466,0.0,0.0,0.0,0.0,0.0,0.0,0.0,0.0,0.0,0.0,0.0,0.0,0.0,0.0,0.0,0.0,0.0,0.0,0.0,0.0,0.0,0.0,0.0,0.0,0.0,0.0,0.0,0.0,0.0,0.0,0.0,0.0,0.0,0.0,0.0,0.0,0.0,0.0,0.0,0.0,0.0,0.0,0.0,0.0,0.0,0.0,0.0,0.0,0.0,0.0,0.0,0.0,0.0,0.0,0.0,0.0,0.0,0.0,0.0,0.0,0.0,0.0,0.0,0.0,0.0,0.0,0.0,0.0,0.0,0.0,0.0,0.0,0.0,0.0,0.0,0.0,0.0,0.0,0.0,0.0,0.0,0.0,0.0,0.0,0.0,0.0,0.0,0.0,0.0,0.0,0.0,0.0,0.0,0.0,0.0,0.0,0.0,0.0,0.0,0.0,0.0,0.0,0.0,0.0,0.0,0.0,0.0,0.0,0.0,0.8417,0.9097,0.975,1.0318,0.8728,0.7978,0.0,0.0,0.0,0.0,0.0,0.0,0.0,0.0,0.0,0.0,0.0,0.0,0.0,0.0,0.0,0.0,0.0,0.0,0.0,0.0,0.0,0.0,0.0,0.0,0.0,0.0,0.0,0.0,0.0,0.0,0.0,0.0,0.0,0.0,0.0,0.0,0.0,0.0,0.0,0.0,0.0,0.0,0.0,0.0,0.0,0.0,0.0,0.0,0.0,0.0,0.0,0.0,0.0,0.0,0.0,0.0,0.0,0.0,0.0,0.0,0.0,0.0,0.0,0.0,0.0,0.0,0.0,0.0,0.0,0.0,0.0,0.0,0.0,0.0,0.0,0.0,0.0,0.0,0.0,0.0,0.0,0.0,0.0,0.0,0.0,0.0,0.0,0.0,0.0,0.0,0.0,0.0,0.0,0.0,0.0,0.0,0.0,0.0,0.0,0.0,0.0,0.0,0.0,0.0,0.0,0.0,0.0,0.0,0.0,0.9672,1.0382,1.0985,1.1426,0.9777,0.8697,0.8294,0.0,0.0,0.0,0.0,0.0,0.0,0.0,0.0,0.0,0.0,0.0,0.0,0.0,0.0,0.0,0.0,0.0,0.0,0.0,0.0,0.0,0.0,0.0,0.0,0.0,0.0,0.0,0.0,0.0,0.0,0.0,0.0,0.0,0.0,0.0,0.0,0.0,0.0,0.0,0.0,0.0,0.0,0.0,0.0,0.0,0.0,0.0,0.0,0.0,0.0,0.0,0.0,0.0,0.0,0.0,0.0,0.0,0.0,0.0,0.0,0.0,0.0,0.0,0.0,0.0,0.0,0.0,0.0,0.0,0.0,0.0,0.0,0.0,0.0,0.0,0.0,0.0,0.0,0.0,0.0,0.0,0.0,0.0,0.0,0.0,0.0,0.0,0.0,0.0,0.0,0.0,0.0,0.0,0.0,0.0,0.0,0.0,0.0,0.0,0.0,0.0,0.0,0.0,0.0,0.0,0.0,0.0,0.0,1.2701,1.3924,1.3924,1.2715,1.2075,1.0282,0.0,0.0,0.0,0.0,0.0,0.0,0.0,0.0,0.0,0.0,0.0,0.0,0.0,0.0,0.0,0.0,0.0,0.0,0.0,0.0,0.0,0.0,0.0,0.0,0.0,0.0,0.0,0.0,0.0,0.0,0.0,0.0,0.0,0.0,0.0,0.0,0.0,0.0,0.0,0.0,0.0,0.0,0.0,0.0,0.0,0.0,0.0,0.0,0.0,0.0,0.0,0.0,0.0,0.0,0.0,0.0,0.0,0.0,0.0,0.0,0.0,0.0,0.0,0.0,0.0,0.0,0.0,0.0,0.0,0.0,0.0,0.0,0.0,0.0,0.0,0.0,0.0,0.0,0.0,0.0,0.0,0.0,0.0,0.0,0.0,0.0,0.0,0.0,0.0,0.0,0.0,0.0,0.0,0.0,0.0,0.0,0.0,0.0,0.0,0.0,0.0,0.0,0.0,0.0,0.0,0.0,0.0,0.0,0.0,1.5305,1.6704,1.6479,1.4533,1.208,1.0171,0.0,0.0,0.0,0.0,0.0,0.0,0.0,0.0,0.0,0.0,0.0,0.0,0.0,0.0,0.0,0.0,0.0,0.0,0.0,0.0,0.0,0.0,0.0,0.0,0.0,0.0,0.0,0.0,0.0,0.0,0.0,0.0,0.0,0.0,0.0,0.0,0.0,0.0,0.0,0.0,0.0,0.0,0.0,0.0,0.0,0.0,0.0,0.0,0.0,0.0,0.0,0.0,0.0,0.0,0.0,0.0,0.0,0.0,0.0,0.0,0.0,0.0,0.0,0.0,0.0,0.0,0.0,0.0,0.0,0.0,0.0,0.0,0.0,0.0,0.0,0.0,0.0,0.0,0.0,0.0,0.0,0.0,0.0,0.0,0.0,0.0,0.0,0.0,0.0,0.0,0.0,0.0,0.0,0.0,0.0,0.0,0.0,0.0,0.0,0.0,0.0,0.0,0.0,0.0,0.0,0.0,0.0,0.0,1.3784,1.6044,1.8036,1.8373,1.6908,1.4164,1.1647,0.0,0.0,0.0,0.0,0.0,0.0,0.0,0.0,0.0,0.0,0.0,0.0,0.0,0.0,0.0,0.0,0.0,0.0,0.0,0.0,0.0,0.0,0.0,0.0,0.0,0.0,0.0,0.0,0.0,0.0,0.0,0.0,0.0,0.0,0.0,0.0,0.0,0.0,0.0,0.0,0.0,0.0,0.0,0.0,0.0,0.0,0.0,0.0,0.0,0.0,0.0,0.0,0.0,0.0,0.0,0.0,0.0,0.0,0.0,0.0,0.0,0.0,0.0,0.0,0.0,0.0,0.0,0.0,0.0,0.0,0.0,0.0,0.0,0.0,0.0,0.0,0.0,0.0,0.0,0.0,0.0,0.0,0.0,0.0,0.0,0.0,0.0,0.0,0.0,0.0,0.0,0.0,0.0,0.0,0.0,0.0,0.0,0.0,0.0,0.0,0.0,0.0,0.0,0.0,0.0,0.0,0.0,0.0,1.4767,1.584,1.8497,1.9665,1.9149,1.6893,1.3775,0.0,0.0,0.0,0.0,0.0,0.0,0.0,0.0,0.0,0.0,0.0,0.0,0.0,0.0,0.0,0.0,0.0,0.0,0.0,0.0,0.0,0.0,0.0,0.0,0.0,0.0,0.0,0.0,0.0,0.0,0.0,0.0,0.0,0.0,0.0,0.0,0.0,0.0,0.0,0.0,0.0,0.0,0.0,0.0,0.0,0.0,0.0,0.0,0.0,0.0,0.0,0.0,0.0,0.0,0.0,0.0,0.0,0.0,0.0,0.0,0.0,0.0,0.0,0.0,0.0,0.0,0.0,0.0,0.0,0.0,0.0,0.0,0.0,0.0,0.0,0.0,0.0,0.0,0.0,0.0,0.0,0.0,0.0,0.0,0.0,0.0,0.0,0.0,0.0,0.0,0.0,0.0,0.0,0.0,0.0,0.0,0.0,0.0,0.0,0.0,0.0,0.0,0.0,0.0,0.0,0.0,0.0,0.0,1.5592,1.7328,1.9022,1.9687,1.9216,1.626,1.3718,0.0,0.0,0.0,0.0,0.0,0.0,0.0,0.0,0.0,0.0,0.0,0.0,0.0,0.0,0.0,0.0,0.0,0.0,0.0,0.0,0.0,0.0,0.0,0.0,0.0,0.0,0.0,0.0,0.0,0.0,0.0,0.0,0.0,0.0,0.0,0.0,0.0,0.0,0.0,0.0,0.0,0.0,0.0,0.0,0.0,0.0,0.0,0.0,1.1299,0.0,0.0,0.0,0.0,0.0,0.0,0.0,0.0,0.0,0.0,0.0,0.0,0.0,0.0,0.0,0.0,0.0,0.0,0.0,0.0,0.0,0.0,0.0,0.0,0.0,0.0,0.0,0.0,0.0,0.0,0.0,0.0,0.0,0.0,0.0,0.0,0.0,0.0,0.0,0.0,0.0,0.0,0.0,0.0,0.0,0.0,0.0,0.0,0.0,0.0,0.0,0.0,0.0,0.0,0.0,0.0,0.0,0.0,0.0,1.5927,1.7845,1.9264,1.978,1.9242,1.6734,1.4445,0.0,0.0,0.0,0.0,0.0,0.0,0.0,0.0,0.0,0.0,0.0,0.0,0.0,0.0,0.0,0.0,0.0,0.0,0.0,0.0,0.0,0.0,0.0,0.0,0.0,0.0,0.0,0.0,0.0,0.0,0.0,0.0,0.0,0.0,0.0,0.0,0.0,0.0,0.0,0.0,0.0,0.0,0.0,0.0,0.0,0.0,0.0,0.0,0.0,0.0,0.0,0.0,0.0,0.0,0.0,0.0,0.0,0.0,0.0,0.0,0.0,0.0,0.0,0.0,0.0,0.0,0.0,0.0,0.0,0.0,0.0,0.0,0.0,0.0,0.0,0.0,0.0,0.0,0.0,0.0,0.0,0.0,0.0,0.0,0.0,0.0,0.0,0.0,0.0,0.0,0.0,0.0,0.0,0.0,0.0,0.0,0.0,0.0,0.0,0.0,0.0,0.0,0.0,0.0,0.0,0.0,0.0,1.3816,1.6151,1.8246,1.9431,1.9802,1.9381,1.7376,1.5228,1.2968,0.0,0.0,0.0,0.0,0.0,0.0,0.0,0.0,0.0,0.0,0.0,0.0,0.0,0.0,0.0,0.0,0.0,0.0,0.0,0.0,0.0,0.0,0.0,0.0,0.0,0.0,0.0,0.0,0.0,0.0,0.0,0.0,0.0,0.0,0.0,0.0,0.0,0.0,1.0957,1.218,0.0,0.0,0.0,0.0,0.0,0.0,0.0,0.0,1.2337,0.0,0.0,0.0,0.0,0.0,0.0,0.0,0.0,0.0,0.0,0.0,0.0,0.0,0.0,0.0,0.0,0.0,0.0,0.0,0.0,0.0,0.0,0.0,0.0,0.0,0.0,0.0,0.0,0.0,0.0,0.0,0.0,0.0,0.0,0.0,0.0,0.0,0.0,0.0,0.0,0.0,0.0,0.0,0.0,0.0,0.0,0.0,0.0,0.0,0.0,0.0,0.0,0.0,0.0,0.0,0.0,1.3673,1.4621,1.6609,1.9655,1.9605,1.949,1.9338,1.7072,1.503,1.3323,0.0,0.0,0.0,0.0,0.0,0.0,0.0,0.0,0.0,0.0,0.0,0.0,0.0,0.0,0.0,0.0,0.0,0.0,0.0,0.0,0.0,0.0,0.0,0.0,0.0,0.0,0.0,0.0,0.0,0.0,0.0,0.0,0.0,0.0,0.0,0.0,0.0,0.0,0.0,1.4761,1.561,0.0,0.0,0.0,0.0,0.0,0.0,0.0,0.0,1.2963,0.0,0.0,0.0,0.0,0.0,0.0,0.0,0.0,0.0,0.0,0.0,0.0,0.0,0.0,0.0,0.0,0.0,0.0,0.0,0.0,0.0,0.0,0.0,0.0,0.0,0.0,0.0,0.0,0.0,0.0,0.0,0.0,0.0,0.0,0.0,0.0,0.0,0.0,0.0,0.0,0.0,0.0,0.0,0.0,0.0,0.0,0.0,0.0,0.0,0.0,0.0,0.0,0.0,0.0,0.0,1.3737,1.5166,1.7221,1.9982,1.9889,1.9518,1.9004,1.6786,1.4772,0.0,0.0,0.0,0.0,0.0,0.0,0.0,0.0,0.0,0.0,0.0,0.0,0.0,0.0,0.0,0.0,0.0,0.0,0.0,0.0,0.0,0.0,0.0,0.0,0.0,0.0,0.0,0.0,0.0,0.0,0.0,0.0,0.0,0.0,0.0,0.0,0.0,0.0,0.0,0.0,1.5937,1.6829,1.7185,0.0,0.0,0.0,0.0,0.0,0.0,1.4623,1.3847,0.0,0.0,0.0,0.0,0.0,0.0,0.0,0.0,0.0,0.0,0.0,0.0,0.0,0.0,0.0,0.0,0.0,0.0,0.0,0.0,0.0,0.0,0.0,0.0,0.0,0.0,0.0,0.0,0.0,0.0,0.0,0.0,0.0,0.0,0.0,0.0,0.0,0.0,0.0,0.0,0.0,0.0,0.0,0.0,0.0,0.0,0.0,0.0,0.0,0.0,0.0,0.0,0.0,0.0,0.0,1.3454,1.5356,1.7535,1.9928,1.9971,1.9493,1.8585,1.6474,1.4473,0.0,0.0,0.0,0.0,0.0,0.0,0.0,0.0,0.0,0.0,0.0,0.0,0.0,0.0,0.0,0.0,0.0,0.0,0.0,0.0,0.0,0.0,0.0,0.0,0.0,0.0,0.0,0.0,0.0,0.0,0.0,0.0,0.0,0.0,0.0,0.0,0.0,0.0,0.0,0.0,0.0,1.7873,1.8163,1.7737,0.0,0.0,0.0,0.0,1.6895,1.6016,0.0,0.0,0.0,0.0,0.0,0.0,0.0,0.0,0.0,0.0,0.0,0.0,0.0,0.0,0.0,0.0,0.0,0.0,0.0,0.0,0.0,0.0,0.0,0.0,0.0,0.0,0.0,0.0,0.0,0.0,0.0,0.0,0.0,0.0,0.0,0.0,0.0,0.0,0.0,0.0,0.0,0.0,0.0,0.0,0.0,0.0,0.0,0.0,0.0,0.0,0.0,0.0,0.0,0.0,0.0,0.0,1.341,1.4953,1.7068,1.9733,1.9511,1.8957,1.8266,1.5951,1.4022,0.0,0.0,0.0,0.0,0.0,0.0,0.0,0.0,0.0,0.0,0.0,0.0,0.0,0.0,0.0,0.0,0.0,0.0,0.0,0.0,0.0,0.0,0.0,0.0,0.0,0.0,0.0,0.0,0.0,0.0,0.0,0.0,0.0,0.0,0.0,0.0,0.0,0.0,0.0,0.0,0.0,1.9362,1.8346,1.8143,1.7824,0.0,0.0,1.8279,1.9478,1.9014,0.0,0.0,0.0,0.0,0.0,0.0,0.0,0.0,0.0,0.0,0.0,0.0,0.0,0.0,0.0,0.0,0.0,0.0,0.0,0.0,0.0,0.0,0.0,0.0,0.0,0.0,0.0,0.0,0.0,0.0,0.0,0.0,0.0,0.0,0.0,0.0,0.0,0.0,0.0,0.0,0.0,0.0,0.0,0.0,0.0,0.0,0.0,0.0,0.0,0.0,0.0,0.0,0.0,0.0,0.0,1.0674,1.3231,1.5527,1.7555,1.9254,1.9126,1.8773,1.8205,1.5606,1.3522,0.0,0.0,0.0,0.0,0.0,0.0,0.0,0.0,0.0,0.0,0.0,0.0,0.0,0.0,0.0,0.0,0.0,0.0,0.0,0.0,0.0,0.0,0.0,0.0,0.0,0.0,0.0,0.0,0.0,0.0,0.0,0.0,0.0,0.0,0.0,0.0,0.0,0.0,0.0,0.0,0.0,0.0,1.9769,1.9769,0.0,0.0,0.0,1.9749,1.9556,0.0,0.0,0.0,0.0,0.0,0.0,0.0,0.0,0.0,0.0,0.0,0.0,0.0,0.0,0.0,0.0,0.0,0.0,0.0,0.0,0.0,0.0,0.0,0.0,0.0,0.0,0.0,0.0,0.0,0.0,0.0,0.0,0.0,0.0,0.0,0.0,0.0,0.0,0.0,0.0,0.0,0.0,0.0,0.0,0.0,0.0,0.0,0.0,0.0,0.0,0.0,0.0,0.0,0.0,0.0,0.0,0.0,1.3095,1.5962,1.7902,1.8807,1.8723,1.8474,1.8047,1.539,0.0,0.0,0.0,0.0,0.0,0.0,0.0,0.0,0.0,0.0,0.0,0.0,0.0,0.0,0.0,0.0,0.0,0.0,0.0,0.0,0.0,0.0,0.0,0.0,0.0,0.0,0.0,0.7275,0.0,0.0,0.0,0.0,0.0,0.0,0.0,0.0,0.0,0.0,0.0,0.0,0.0,0.0,1.9508,2.0611,2.0901,2.1017,0.0,0.0,2.1075,2.06,2.1326,2.0824,0.0,0.0,0.0,0.0,0.0,0.0,0.0,0.0,0.0,0.0,0.0,0.0,0.0,0.0,0.0,0.0,0.0,0.0,0.0,0.0,0.0,0.0,0.0,0.0,0.0,0.0,0.0,0.0,0.0,0.0,0.0,0.0,0.0,0.0,0.0,0.0,0.0,0.0,0.0,0.0,0.0,0.0,0.0,0.0,0.0,0.0,0.0,0.0,0.0,0.0,0.0,0.0,0.0,0.0,0.0,1.3116,1.5894,1.7765,1.8664,1.8286,1.7946,1.7698,1.5355,1.3273,0.0,0.0,0.0,0.0,0.0,0.0,0.0,0.0,0.0,0.0,0.0,0.0,0.0,0.0,0.0,0.0,0.0,0.0,0.0,0.0,0.0,0.0,0.0,0.0,0.0,0.0,0.0,0.0,0.0,0.0,0.0,0.0,0.0,0.0,0.0,0.0,0.0,0.0,0.0,0.0,0.0,1.9362,2.0059,2.064,2.1627,0.0,0.0,2.2497,2.4146,2.4435,2.3258,1.9508,0.0,0.0,0.0,0.0,0.0,0.0,0.0,0.0,0.0,0.0,0.0,0.0,0.0,0.0,0.0,0.0,0.0,0.0,0.0,0.0,0.0,0.0,0.0,0.0,0.0,0.0,0.0,0.0,0.0,0.0,0.0,0.0,0.0,0.0,0.0,0.0,0.0,0.0,0.0,0.0,0.0,0.0,0.0,0.0,0.0,0.0,0.0,0.0,0.0,0.0,0.0,0.0,0.0,1.1065,1.2677,1.5681,1.759,1.8276,1.79,1.7657,1.76,1.5314,1.3231,0.0,0.0,0.0,0.0,0.0,0.0,0.0,0.0,0.0,0.0,0.0,0.0,0.0,0.0,0.0,0.0,0.0,0.0,0.0,0.0,0.0,0.0,0.0,0.0,0.0,0.0,0.0,0.0,0.9292,0.9415,0.8829,0.0,0.0,0.0,0.0,0.0,0.0,0.0,0.0,0.0,0.0,2.0233,2.1634,2.237,0.0,0.0,2.3833,2.3601,2.3154,2.3734,2.2951,1.9159,1.8398,0.0,0.0,0.0,0.0,0.0,0.0,0.0,0.0,0.0,0.0,0.0,0.0,0.0,0.0,0.0,0.0,0.0,0.0,0.0,0.0,0.0,0.0,0.0,0.0,0.0,0.0,0.0,0.0,0.0,0.0,0.0,0.0,0.0,0.0,0.0,0.0,0.0,0.0,0.0,0.0,0.0,0.0,0.0,0.0,0.0,0.0,0.0,0.0,0.0,0.0,0.0,0.0,1.0665,1.1753,1.5037,1.6927,1.7332,1.727,1.7236,1.718,1.5253,1.3343,0.0,0.0,0.0,0.0,0.0,0.0,0.0,0.0,0.0,0.0,0.0,0.0,0.0,0.0,0.0,0.0,0.0,0.0,0.0,0.0,0.0,0.0,0.0,0.0,0.0,0.0,0.0,0.0,0.9909,0.978,0.8881,0.0,0.0,0.0,0.0,0.0,0.0,0.0,0.0,0.0,0.0,2.092,2.2406,2.3038,2.3409,2.356,2.367,2.3322,2.2189,2.2904,2.2439,1.9005,0.0,0.0,0.0,0.0,0.0,0.0,0.0,0.0,0.0,0.0,0.0,0.0,0.0,0.0,0.0,0.0,0.0,0.0,0.0,0.0,0.0,0.0,0.0,0.0,0.0,0.0,0.0,0.0,0.0,0.0,0.0,0.0,0.0,0.0,0.0,0.0,0.0,0.0,0.0,0.0,0.0,0.0,0.0,0.0,0.0,0.0,0.0,0.0,0.0,0.0,0.0,0.0,0.0,0.9752,1.029,1.3812,1.5647,1.5678,1.6286,1.6623,1.6583,1.5173,1.3745,1.2363,0.0,0.0,0.0,0.0,0.0,0.0,0.0,0.0,0.0,0.0,0.0,0.0,0.0,0.0,0.0,0.0,0.0,0.0,0.0,0.0,0.0,0.0,0.0,0.0,0.0,0.0,0.8863,0.8926,0.872,0.0,0.0,0.0,0.0,0.0,0.0,0.0,0.0,0.0,0.0,1.9372,2.122,2.1917,2.2044,2.2341,2.291,2.1953,2.1347,2.1917,2.2504,2.2059,0.0,0.0,0.0,0.0,0.0,0.0,0.0,0.0,0.0,0.0,0.0,0.0,0.0,0.0,0.0,0.0,0.0,0.0,0.0,0.0,0.0,0.0,0.0,0.0,0.0,0.0,0.0,0.2637,0.2638,0.0,0.0,0.0,0.0,0.0,0.0,0.0,0.0,0.0,0.0,0.0,0.4971,0.5252,0.0,0.0,0.0,0.0,0.0,0.0,0.0,0.0,0.0,0.0,0.0,0.0,0.9321,1.039,1.2926,1.454,1.504,1.5418,1.5655,1.5796,1.514,1.384,1.1799,0.0,0.0,0.0,0.0,0.0,0.0,0.0,0.0,0.0,0.0,0.0,0.0,0.0,0.0,0.0,0.0,0.0,0.0,0.0,0.0,0.0,0.0,0.0,0.0,0.0,0.8898,0.0,0.0,0.0,0.0,0.0,0.0,0.0,0.0,0.0,0.0,0.0,1.6201,1.7959,1.9806,2.126,2.1888,2.2341,2.2957,0.0,0.0,0.0,0.0,0.0,0.0,0.0,0.0,0.0,0.0,0.0,0.0,0.0,0.0,1.975,1.6921,1.6376,1.6608,1.7352,0.0,0.0,0.0,0.0,0.0,0.0,0.0,0.0,0.0,0.0,0.0,0.0,0.0,0.0,0.0,0.0,0.2925,0.0,0.0,0.0,0.0,0.0,0.0,0.0,0.0,0.4718,0.5114,0.5048,0.5646,0.5877,0.0,0.5475,0.5013,0.0,0.0,0.0,0.0,0.0,0.0,0.0,0.0,0.8719,0.9747,1.1851,1.325,1.3829,1.4409,1.4778,1.4915,1.4811,1.3807,1.1815,1.027,0.9066,0.0,0.0,0.0,0.0,0.0,0.0,0.0,0.0,0.0,0.0,0.0,0.0,0.0,0.0,0.0,0.0,0.0,0.0,0.0,0.0,0.0,0.0,0.0,0.9449,0.0,0.0,0.0,0.0,0.0,0.0,0.0,0.0,0.0,1.3608,1.5742,1.7805,1.9359,2.0929,2.1733,2.13,0.0,0.0,0.0,0.0,0.0,0.0,0.0,2.0909,2.0474,2.068,2.1376,2.2829,2.3747,2.4178,2.38,0.0,0.0,1.9791,1.9283,1.957,1.9998,2.0849,2.1635,2.1908,2.2896,2.382,0.0,0.0,0.0,0.0,0.0,0.0,0.0,0.0,0.2586,0.2903,0.0,0.288,0.0,0.0,0.0,0.0,0.0,0.0,0.0,0.0,0.5135,0.5456,0.4977,0.5682,0.6029,0.0,0.6064,0.5836,0.541,0.5334,0.0,0.0,0.0,0.0,0.0,0.0,0.7938,0.8492,1.0639,1.1841,1.2058,1.328,1.3989,1.4079,1.4214,1.3695,1.2482,1.1569,1.0546,0.9394,0.8127,0.0,0.0,0.0,0.0,0.0,0.0,0.0,0.0,0.0,0.0,0.0,0.0,0.0,0.0,0.0,0.0,0.0,0.0,0.0,0.0,1.0017,0.0,0.0,0.0,0.0,0.0,0.0,0.0,0.0,0.0,0.0,1.5617,1.7144,1.895,2.0817,0.0,0.0,0.0,0.0,2.2272,2.0611,2.0291,2.0349,2.0407,2.1808,2.2917,2.2928,0.0,0.0,2.6146,2.5931,2.5741,2.5711,2.6261,2.6063,2.4148,2.3231,2.2882,2.2953,2.3697,2.4167,2.401,2.5179,2.6115,0.0238,0.0,0.0,0.0,0.0,0.1523,0.1838,0.1927,0.2704,0.2819,0.2476,0.2628,0.0,0.0,0.0,0.0,0.0,0.0,0.3604,0.3855,0.4368,0.4716,0.5009,0.5936,0.6537,0.6856,0.714,0.7221,0.7088,0.6976,0.6045,0.4388,0.0,0.0,0.0,0.0,0.805,0.8667,1.002,1.1029,1.1639,1.2627,1.3659,1.4695,1.4343,1.3751,1.2929,1.2221,1.1338,1.0252,0.9188,0.0,0.0,0.0,0.0,0.0,0.0,0.0,0.0,0.0,0.0,0.0,0.0,0.0,0.0,0.0,0.0,0.0,0.0,0.0,0.9205,1.0219,1.0476,0.0,0.0,0.0,0.0,0.0,0.0,0.0,0.0,0.0,1.8187,1.8621,1.9062,0.0,0.0,2.0096,1.9828,2.121,2.2544,2.3334,0.0,0.0,0.0,2.4152,2.3775,2.4239,2.5621,2.6672,2.6749,2.76,2.8244,2.8258,2.8528,2.853,2.7991,2.6956,2.6417,2.6794,2.715,2.7487,2.785,2.8304,2.8673,0.0054,0.0288,0.0321,0.0376,0.0529,0.121,0.1706,0.2099,0.271,0.3073,0.3259,0.3117,0.2913,0.2651,0.2791,0.0,0.0,0.0,0.35,0.3646,0.3858,0.4173,0.458,0.5631,0.6258,0.6508,0.7153,0.7415,0.7377,0.7329,0.662,0.5287,0.0,0.0,0.5804,0.7104,0.8062,0.8638,0.9586,1.0364,1.0904,1.1888,1.2978,1.4142,1.3967,1.3547,1.2853,1.2431,1.1729,1.0678,0.992,0.896,0.0,0.0,0.0,0.0,0.0,0.0,0.0,0.0,0.0,0.0,0.0,0.8667,0.0,0.0,0.0,0.0,0.9181,0.9837,1.0491,1.0997,0.0,0.0,0.0,0.0,0.0,0.0,0.0,1.4086,1.6456,1.8596,1.9994,2.0231,2.0461,2.1,2.1307,2.1451,2.1472,0.0,2.4067,2.5044,2.5185,2.5562,2.6604,2.6255,2.611,2.701,2.7874,2.8523,2.865,2.9436,3.0049,3.0147,3.0217,3.0287,3.0329,2.9684,2.9069,2.9026,2.9205,2.9505,2.9894,3.0163,3.0439,0.0,0.0,-0.0264,-0.0301,-0.0119,0.0612,0.1416,0.2195,0.2563,0.3366,0.4351,0.3896,0.3742,0.3789,0.3376,0.0,0.0,0.3502,0.3406,0.3469,0.3688,0.3819,0.3902,0.5029,0.5527,0.5474,0.6489,0.6907,0.6811,0.6932,0.6963,0.6887,0.6909,0.6723,0.6418,0.7307,0.804,0.8525,0.9333,0.9831,1.011,1.1263,1.2228,1.2963,1.328,1.3102,1.2418,1.2363,1.184,1.0762,1.0359,0.9599,0.8461,0.0,0.0,0.0,0.0,0.0,0.0,0.0,0.0,0.0,0.0,0.0,0.0,0.0,0.0,0.0,1.1201,0.0,1.2751,1.2314,0.0,0.0,0.0,1.2626,1.4454,1.5675,1.6653,1.7392,0.0,0.0,0.0,0.0,2.2908,2.419,2.497,2.5064,2.4198,2.5327,2.6319,2.6129,2.6152,2.6429,2.7272,2.807,2.9028,3.0045,3.0687,3.0704,3.0852,3.094,3.1146,3.1305,3.135,3.1306,3.1452,3.1317,3.1137,2.994,3.0179,3.0554,3.0584,3.1019,3.1467,0.0,0.0,-0.0081,-0.0078,0.0019,0.0835,0.1123,0.108,0.1812,0.2099,0.2042,0.253,0.3209,0.4014,0.3913,0.4072,0.445,0.4081,0.3924,0.3916,0.3788,0.3874,0.4225,0.5005,0.5501,0.585,0.6998,0.756,0.7548,0.7725,0.7742,0.7567,0.7285,0.6963,0.6652,0.7401,0.808,0.8642,0.9004,0.9706,1.0766,1.195,1.2658,1.2841,1.2923,1.2687,1.212,1.193,1.1568,1.0906,1.0679,1.0172,0.9245,0.782,0.0,0.0,0.0,0.0,0.0,0.0,0.0,0.0,0.0,0.9135,0.7387,0.0,0.9777,0.0,1.1793,1.3606,1.4558,1.4621,0.0,0.0,1.4826,1.526,1.6617,1.7917,1.8762,1.9008,2.0851,2.2378,2.3045,2.4202,2.5451,2.6647,2.5411,2.4453,2.474,2.6268,2.754,2.797,2.8767,2.9479,2.9581,2.9929,3.022,3.0539,3.0628,3.0657,3.0731,3.0806,3.0955,3.1146,3.1176,3.1234,3.1453,3.1424,3.1276,3.0949,3.1023,3.1098,3.1112,3.153,3.196,-0.0368,0.0,0.0,0.0,0.004,0.0537,0.08,0.093,0.1201,0.1484,0.1834,0.2642,0.3564,0.448,0.4499,0.4531,0.455,0.4325,0.4138,0.3974,0.3791,0.3889,0.4284,0.4857,0.5195,0.5413,0.6529,0.7015,0.6957,0.7455,0.7636,0.7528,0.7489,0.7298,0.6953,0.7396,0.7841,0.8304,0.8787,0.9507,1.0433,1.125,1.1645,1.1615,1.1796,1.164,1.1048,1.0911,1.0581,1.0014,0.9838,0.9447,0.8731,0.7578,0.6828,0.0,0.0,0.0,0.0,0.0,0.0,0.0,0.0,0.0,0.0,0.0,1.0887,0.0,0.0,0.0,1.5195,1.5874,1.6441,1.6923,1.7296,1.806,1.933,2.0374,2.112,2.1589,2.2875,2.4139,2.5151,2.5968,2.6889,2.796,2.7168,2.6638,2.7017,2.7925,2.877,2.945,3.0162,3.0598,3.0598,3.0598,3.0598,3.0598,3.0598,3.0643,3.0791,3.0776,3.0821,3.1117,3.1146,3.1235,3.1619,3.1723,3.1723,3.1884,3.1913,3.1885,3.1783,3.2167,3.2627,-0.092,-0.0179,-0.0044,0.0,0.0,0.0,0.0441,0.1093,0.0708,0.1287,0.258,0.3315,0.4178,0.502,0.502,0.4828,0.4501,0.4462,0.4287,0.3951,0.3889,0.4024,0.4308,0.4709,0.4855,0.4788,0.5709,0.605,0.5857,0.6775,0.7236,0.722,0.7569,0.7574,0.722,0.7264,0.7483,0.7869,0.8599,0.92,0.9663,1.0037,1.015,0.9992,1.0435,1.0432,0.9834,0.974,0.9467,0.8904,0.8785,0.8482,0.7985,0.7304,0.7032,0.0,0.6732,0.0,0.0,0.0,0.0,0.0,0.0,0.0,0.0,1.2446,1.2605,1.3343,1.487,1.5813,1.5811,1.6926,1.8053,1.897,1.967,2.0594,2.1801,2.2589,2.3309,2.4075,2.4779,2.5774,2.6886,2.7258,2.7685,2.8405,2.8919,2.9174,2.9504,2.96,2.9907,3.0522,3.0598,3.0598,3.0598,3.0598,3.0598,3.0598,3.0598,3.0761,3.1101,3.0937,3.0907,3.1383,3.1471,3.1529,3.2045,3.221,3.2342,3.258,3.274,3.2762,3.2507,3.2819,3.3327,-0.1301,-0.1054,-0.0313,0.0,0.0,0.0,0.0104,0.0225,0.0149,0.1084,0.2644,0.2837,0.3748,0.5119,0.5174,0.5065,0.4881,0.4881,0.4837,0.4779,0.4758,0.4792,0.4844,0.492,0.4966,0.4986,0.5631,0.5931,0.5912,0.6954,0.7363,0.7203,0.7432,0.7448,0.0,0.0,0.0,0.0,0.8326,0.856,0.8916,0.952,0.9616,0.9242,0.987,0.0,0.9791,0.9387,0.921,0.9276,0.926,0.0,0.0,0.0,0.0,0.0,0.0,0.0,0.0,0.0,0.0,0.0,1.2513,1.2452,1.2469,1.3369,1.4411,1.5507,1.6763,1.792,1.8833,1.9632,2.0255,2.0576,2.1237,2.1831,2.2229,2.3367,2.4253,2.4401,2.5662,2.6606,2.6966,2.7605,2.8136,2.8341,2.8846,2.9287,2.9585,3.005,3.0432,3.0583,3.0714,3.0656,3.0598,3.0656,3.0743,3.0598,3.0598,3.0845,3.1312,3.1397,3.1663,3.2428,3.2433,3.2371,3.286,3.2767,3.2654,3.2692,3.3272,3.3592,3.302,3.3279,3.3739,-0.1861,0.0,-0.0404,0.0,0.0,0.0,0.0,0.0,0.0,0.0743,0.1989,0.2016,0.2959,0.4547,0.4468,0.4634,0.5007,0.4833,0.4811,0.4906,0.4866,0.4923,0.4998,0.4998,0.4998,0.5018,0.5304,0.544,0.5518,0.6287,0.6768,0.6918,0.7284,0.755,0.7633,0.7513,0.777,0.8434,0.8572,0.8838,0.9272,0.9674,0.9679,0.9345,0.0,0.0,0.0,0.0,0.0,0.0,0.0,0.0,0.0,0.0,0.0,0.9363,0.9172,0.9709,1.1193,1.1835,1.2978,1.4858,1.5313,1.5022,1.4016,1.5455,1.6769,1.7558,1.8447,1.927,2.0101,2.0812,2.1272,2.1456,2.2308,2.2984,2.3301,2.4193,2.5049,2.5452,2.6231,2.6927,2.7298,2.7807,2.8189,2.8346,2.9173,2.9847,3.0054,3.0477,3.092,3.1437,3.1526,3.1526,3.1526,3.1526,3.1541,3.1555,3.1541,3.1702,3.2026,3.205,3.2198,3.2726,3.2783,3.2873,3.3256,3.3347,3.3403,3.3563,3.3983,3.4277,3.3989,3.4211,3.4515,-0.2419,-0.157,-0.0472,0.0,0.0,0.0,0.0,0.0,0.0,0.0,0.0,0.1313,0.2288,0.3892,0.3754,0.4203,0.5036,0.4786,0.4741,0.4901,0.4846,0.4895,0.5045,0.5025,0.5034,0.4998,0.4998,0.4998,0.5037,0.5653,0.6224,0.6783,0.7366,0.7834,0.816,0.8203,0.8344,0.8672,0.8872,0.9249,0.981,0.9943,0.9883,0.9584,1.0094,1.0228,0.9907,0.9994,0.9946,0.9761,0.9767,0.9719,0.96,0.9597,0.9802,1.0231,1.0327,1.129,1.3368,1.3698,1.4743,1.6939,1.767,1.7458,1.6137,1.7657,1.8814,1.923,1.9799,2.0294,2.0696,2.1315,2.1842,2.2149,2.3084,2.3816,2.427,2.4957,2.5627,2.6268,2.6619,2.7066,2.771,2.8103,2.8295,2.8595,2.9651,3.0712,3.0898,3.1174,3.1578,3.2217,3.2322,3.2439,3.2468,3.2439,3.2497,3.238,3.2439,3.2573,3.2757,3.2738,3.278,3.3128,3.3168,3.34,3.368,3.3944,3.4198,3.4413,3.4618,3.4831,3.4902,3.5083,3.5264,-0.2799,-0.2531,-0.0763,0.0,0.0,0.0,0.0,0.0,0.0,0.0527,0.139,0.1377,0.2373,0.4076,0.403,0.451,0.5317,0.5288,0.5303,0.0,0.5299,0.525,0.5165,0.5159,0.511,0.5004,0.4998,0.4998,0.5076,0.5783,0.6573,0.7358,0.7975,0.8388,0.8586,0.8566,0.8662,0.8934,0.8672,0.8853,0.9538,0.9914,0.9888,0.9485,1.0288,1.0574,1.0257,1.0254,1.0272,1.0381,1.0378,1.0489,1.0743,1.0772,1.1051,1.1663,1.1976,1.2717,1.3988,1.4846,1.593,1.737,1.814,1.8422,1.8292,1.8764,1.9351,1.9901,2.0579,2.109,2.1293,2.1795,2.2416,2.3135,2.3434,2.3848,2.4641,2.5396,2.5957,2.625,2.6817,2.7352,2.7808,2.8422,2.8899,2.9181,3.0134,3.1238,3.217,3.2409,3.2359,3.2452,3.2497,3.2497,3.2642,3.2526,3.2613,3.2497,3.2584,3.2832,3.3316,3.3374,3.3565,3.4255,3.4205,3.4264,3.4559,3.4635,3.4585,3.4647,3.4865,3.5017,3.4951,3.5212,3.547,-0.2889,-0.2665,-0.0808,0.0,0.0,0.0,0.0,0.0,0.0,0.024,0.0633,0.0623,0.1673,0.337,0.3292,0.4021,0.5402,0.5165,0.5168,0.5283,0.5208,0.5241,0.5347,0.5347,0.5286,0.5154,0.5168,0.5149,0.5187,0.5531,0.6376,0.7655,0.8694,0.9268,0.933,0.933,0.9464,0.98,0.914,0.9115,0.9805,1.0038,1.0081,0.9944,1.0814,1.1138,1.0855,1.1185,1.1413,1.147,1.157,1.1706,1.1866,1.2012,1.2222,1.2532,1.2858,1.3488,1.4524,1.5663,1.6797,1.786,1.8252,1.8785,1.9575,1.9753,2.0022,2.0427,2.1138,2.1779,2.2206,2.2502,2.299,2.3854,2.4189,2.4608,2.5202,2.5987,2.6501,2.6652,2.7083,2.7637,2.8204,2.8714,2.9193,2.9675,3.0679,3.1873,3.3175,3.3298,3.328,3.3492,3.3541,3.3541,3.3512,3.3558,3.3512,3.3512,3.3541,3.3657,3.3935,3.3964,3.4143,3.4442,3.4547,3.458,3.4652,3.4681,3.4681,3.4714,3.4881,3.4984,3.5067,3.531,3.5457,-0.2829,-0.2683,-0.0655,0.018,0.0157,0.0157,0.0157,0.0157,0.0,0.0157,0.0157,0.0045,0.0965,0.2455,0.2336,0.3298,0.4947,0.4819,0.4918,0.529,0.5259,0.5375,0.5589,0.5592,0.5551,0.5448,0.5393,0.5362,0.5362,0.5415,0.6305,0.797,0.9368,1.003,1.003,0.9935,1.0048,1.0308,0.9659,0.9615,1.0301,1.0444,1.0602,1.0873,1.1548,1.1898,1.1843,1.2257,1.2492,1.2492,1.2568,1.2676,1.2802,1.3035,1.3238,1.3474,1.3737,1.4319,1.5222,1.6247,1.7174,1.7983,1.8272,1.8887,1.9923,2.0402,2.0696,2.1011,2.1697,2.2392,2.2871,2.3152,2.3571,2.4378,2.4879,2.5301,2.5795,2.6477,2.6943,2.7011,2.7368,2.7915,2.8615,2.913,2.9745,3.057,3.1424,3.2441,3.3446,3.3722,3.3974,3.4264,3.4382,3.4324,3.4382,3.4353,3.4324,3.4382,3.4353,3.4295,3.4353,3.4382,3.4382,3.4445,3.453,3.458,3.4513,3.4597,3.4681,3.4714,3.4819,3.4968,3.5149,3.5538,3.5623,-0.2663,-0.2371,-0.023,0.0685,0.0628,0.0628,0.0606,0.0628,0.0628,0.0628,0.0561,0.018,0.0584,0.1457,0.1561,0.2623,0.4395,0.4357,0.4832,0.5621,0.589,0.5959,0.588,0.5922,0.5925,0.5805,0.5669,0.5582,0.5595,0.5802,0.6819,0.8561,0.9849,1.0443,1.0406,1.0086,0.9935,0.9954,0.9855,1.02,1.0964,1.125,1.1655,1.2206,1.2443,1.2855,1.3194,1.3154,1.3028,1.2996,1.2758,1.2882,1.3424,1.3553,1.3972,1.4876,1.4992,1.546,1.6315,1.6558,1.6832,1.7304,1.8203,1.8855,1.9228,2.0369,2.1322,2.1784,2.244,2.2879,2.3007,2.3547,2.4221,2.4952,2.5243,2.5661,2.6273,2.6586,2.6807,2.6977,2.7662,2.8291,2.9008,2.9864,3.0869,3.1649,3.2125,3.2644,3.3206,3.3531,3.3871,3.423,3.4382,3.4366,3.4366,3.4382,3.4382,3.4382,3.4382,3.4382,3.4382,3.4382,3.4382,3.4412,3.4428,3.4496,3.4597,3.4698,3.4698,3.4714,3.4831,3.4968,3.5238,3.5806,3.6071,-0.202,-0.1361,0.0139,0.0754,0.0696,0.0695,0.0695,0.0695,0.0695,0.0695,0.0695,0.0494,0.0942,0.1815,0.1815,0.2886,0.4652,0.4719,0.5213,0.608,0.6235,0.6296,0.6297,0.6224,0.6135,0.605,0.5872,0.577,0.5977,0.6973,0.8199,0.9387,1.0406,1.0874,1.0837,1.0687,1.0612,1.0612,1.0612,1.0769,1.1019,1.0972,1.1058,1.1383,1.1765,1.2189,1.2627,1.2763,1.3016,1.3361,1.3251,1.3413,1.3933,1.4111,1.4486,1.513,1.5391,1.5776,1.6391,1.6426,1.6743,1.7461,1.7999,1.8693,1.9694,2.0735,2.1654,2.2424,2.2831,2.3256,2.3917,2.4291,2.4808,2.5571,2.5806,2.606,2.6552,2.7112,2.7464,2.7687,2.8343,2.9065,2.9786,3.0726,3.1567,3.2092,3.2336,3.2543,3.2881,3.3058,3.3392,3.3905,3.4059,3.4162,3.4315,3.4382,3.4382,3.4382,3.4382,3.4382,3.4382,3.4382,3.4382,3.4382,3.4382,3.4428,3.4496,3.4631,3.4698,3.4731,3.496,3.5189,3.5687,3.6151,3.64,-0.1572,-0.0559,0.0507,0.0935,0.0928,0.0928,0.0927,0.0927,0.0928,0.0902,0.0897,0.0897,0.1277,0.1813,0.1768,0.2774,0.4447,0.4607,0.5275,0.6318,0.6473,0.6555,0.6649,0.6541,0.6439,0.6362,0.6172,0.6041,0.6196,0.7576,0.878,0.9576,1.0376,1.0881,1.1099,1.1117,1.1117,1.1099,1.1117,1.1117,1.108,1.0818,1.078,1.107,1.1593,1.2108,1.2599,1.3012,1.3508,1.4029,1.3965,1.4131,1.4613,1.4828,1.5144,1.5598,1.5896,1.6156,1.6451,1.6502,1.6799,1.7455,1.8086,1.9045,2.021,2.1279,2.2306,2.3253,2.3473,2.3934,2.4599,2.4983,2.5424,2.6112,2.6348,2.6604,2.6872,2.7607,2.8158,2.8307,2.8967,2.9827,3.0633,3.1431,3.2028,3.2155,3.2218,3.2318,3.2632,3.2828,3.3146,3.3687,3.3905,3.4094,3.4332,3.4382,3.4382,3.4382,3.4382,3.4382,3.4382,3.4382,3.4382,3.4382,3.4382,3.4382,3.4445,3.4547,3.4689,3.4681,3.494,3.5379,3.587,3.6369,3.6982,-0.1426,-0.0379,0.0845,0.1389,0.1432,0.1456,0.1456,0.141,0.1433,0.1417,0.135,0.1347,0.1391,0.1434,0.1143,0.188,0.3534,0.3757,0.4759,0.6362,0.6678,0.6789,0.6798,0.6835,0.6848,0.6781,0.6552,0.6416,0.6371,0.7161,0.7959,0.8818,0.9652,1.0368,1.1005,1.1117,1.1117,1.1117,1.1117,1.1117,1.1117,1.1068,1.1329,1.1841,1.2498,1.315,1.3989,1.4426,1.478,1.5189,1.4831,1.4978,1.5626,1.573,1.6059,1.6657,1.6799,1.6835,1.6888,1.7007,1.7113,1.724,1.8702,2.0007,2.0317,2.1857,2.3202,2.4277,2.4464,2.4721,2.4927,2.5455,2.5889,2.6263,2.6837,2.7168,2.7296,2.814,2.8582,2.8836,2.9564,3.0414,3.1362,3.19,3.2109,3.2182,3.22,3.23,3.2596,3.297,3.3322,3.367,3.4042,3.4366,3.4382,3.4382,3.4382,3.4382,3.4382,3.4441,3.4412,3.4382,3.4412,3.4499,3.4644,3.4673,3.447,3.4486,3.4637,3.4813,3.5091,3.5495,3.6347,3.6901,3.7502,-0.072,0.0848,0.1297,0.1476,0.1486,0.1487,0.1487,0.1487,0.1487,0.1493,0.1468,0.1464,0.1453,0.1413,0.1904,0.2819,0.3976,0.4042,0.507,0.6716,0.6944,0.6988,0.6997,0.6928,0.6889,0.6877,0.6715,0.6842,0.7194,0.7505,0.8265,0.9303,0.9747,1.0312,1.0968,1.1117,1.1117,1.1117,1.1117,1.1143,1.1273,1.1292,1.1477,1.1824,1.2402,1.3029,1.3753,1.4454,1.5076,1.56,1.548,1.5618,1.6068,1.6379,1.6606,1.6855,1.6908,1.696,1.708,1.7166,1.7349,1.7716,1.8447,1.9477,2.025,2.1673,2.2998,2.3868,2.485,2.5366,2.5674,2.5951,2.6303,2.6819,2.715,2.7594,2.8145,2.8809,2.9332,2.9647,3.0357,3.1061,3.146,3.1835,3.2055,3.2182,3.22,3.2273,3.239,3.2686,3.3094,3.3427,3.3785,3.4094,3.4382,3.4382,3.4382,3.4382,3.4441,3.4719,3.4777,3.4939,3.4997,3.5369,3.5398,3.5369,3.534,3.5369,3.5404,3.5618,3.5842,3.6139,3.7057,3.7508,3.8142,-0.0248,0.1004,0.1394,0.1508,0.1516,0.154,0.1516,0.154,0.154,0.15,0.1497,0.1486,0.1468,0.1518,0.2134,0.2934,0.389,0.4447,0.5603,0.7003,0.7121,0.7121,0.7078,0.7019,0.6957,0.6951,0.6929,0.7122,0.7523,0.7881,0.8681,0.972,1.0073,1.0549,1.1111,1.1211,1.1198,1.118,1.1211,1.1292,1.1477,1.1509,1.1564,1.1774,1.2407,1.2974,1.3408,1.442,1.5241,1.5736,1.6035,1.6263,1.6491,1.6752,1.6908,1.6908,1.6959,1.712,1.737,1.7511,1.7804,1.8291,1.8948,1.9723,2.0674,2.1851,2.2952,2.4014,2.4743,2.5524,2.6202,2.6462,2.6751,2.7268,2.7666,2.812,2.8806,2.949,3.0021,3.0377,3.0935,3.1394,3.1596,3.1835,3.2036,3.22,3.22,3.2237,3.2372,3.2678,3.3023,3.3392,3.3819,3.4128,3.4332,3.4382,3.4382,3.4382,3.4412,3.4748,3.5142,3.5334,3.5654,3.6083,3.6315,3.6315,3.6315,3.6315,3.6433,3.6622,3.6623,3.6733,3.7481,3.8079,3.862,0.0,0.0294,0.1105,0.1547,0.1595,0.1572,0.1596,0.1596,0.1572,0.1554,0.1525,0.1498,0.1511,0.1521,0.1703,0.211,0.3233,0.4812,0.6074,0.6937,0.7098,0.7165,0.7158,0.7129,0.7115,0.7137,0.7231,0.7225,0.724,0.8111,0.8911,0.9636,1.0356,1.0881,1.1409,1.1428,1.1385,1.1416,1.1428,1.1533,1.1676,1.1764,1.1821,1.1894,1.2691,1.3169,1.3232,1.4507,1.5417,1.5824,1.6455,1.6874,1.6839,1.6908,1.6908,1.696,1.7116,1.7408,1.776,1.8157,1.8437,1.8854,2.0071,2.0951,2.1518,2.2336,2.3408,2.4641,2.4957,2.5326,2.6545,2.713,2.7376,2.7437,2.8362,2.9004,2.9369,3.0085,3.0748,3.0966,3.131,3.1604,3.1696,3.1927,3.2164,3.22,3.2218,3.2264,3.2516,3.2846,3.3339,3.367,3.394,3.4145,3.4281,3.4382,3.4382,3.4412,3.4412,3.4632,3.5113,3.5421,3.5839,3.6286,3.6838,3.6867,3.6925,3.6896,3.6899,3.7043,3.7122,3.7376,3.8014,3.8591,3.8799,0.0425,0.1125,0.1443,0.1569,0.1578,0.1578,0.1578,0.1577,0.1578,0.1585,0.156,0.1571,0.1555,0.1673,0.2128,0.2701,0.3334,0.5086,0.6135,0.6501,0.7083,0.7481,0.7569,0.7459,0.737,0.7386,0.7409,0.7433,0.7508,0.7837,0.8583,0.9686,0.9973,1.0725,1.1872,1.1721,1.1589,1.1645,1.1822,1.2056,1.2246,1.2428,1.259,1.2745,1.3035,1.3209,1.3292,1.4744,1.563,1.5806,1.649,1.6908,1.6926,1.7028,1.7115,1.7169,1.7569,1.7915,1.8194,1.8605,1.9022,1.948,2.005,2.0493,2.1036,2.1767,2.2923,2.4397,2.501,2.5881,2.7328,2.8112,2.8329,2.8398,2.8892,2.9478,2.9946,3.055,3.0955,3.1179,3.1429,3.1633,3.1817,3.2055,3.22,3.22,3.22,3.2264,3.239,3.2704,3.3023,3.3392,3.3722,3.4145,3.4298,3.4382,3.4382,3.4382,3.4412,3.4661,3.5113,3.5479,3.5897,3.6402,3.6983,3.7244,3.7331,3.7386,3.7255,3.7634,3.7933,3.8309,3.8715,3.8978,3.9146,0.0404,0.1034,0.144,0.1592,0.1617,0.1693,0.1743,0.1768,0.1844,0.1905,0.1886,0.1894,0.1878,0.1946,0.243,0.2992,0.3632,0.5141,0.6116,0.6596,0.7265,0.7746,0.7878,0.7746,0.7635,0.7657,0.7724,0.7782,0.7851,0.8287,0.909,1.0131,1.0494,1.1146,1.219,1.2113,1.1952,1.1888,1.2138,1.2414,1.262,1.2877,1.3074,1.3193,1.32,1.3213,1.3331,1.4862,1.5765,1.5946,1.6758,1.7348,1.7455,1.7598,1.7686,1.7829,1.816,1.855,1.8869,1.9175,1.9558,2.004,2.0156,2.0502,2.1049,2.1612,2.2459,2.405,2.4974,2.6071,2.7523,2.8469,2.8963,2.9322,2.953,2.9927,3.0526,3.0823,3.1067,3.1254,3.1466,3.1688,3.1872,3.2073,3.22,3.22,3.22,3.2282,3.2372,3.2561,3.2917,3.3287,3.3652,3.4042,3.4315,3.4382,3.4382,3.4382,3.4412,3.4777,3.52,3.5363,3.5683,3.6228,3.6809,3.6762,3.6867,3.7132,3.7211,3.793,3.8477,3.8684,3.8823,3.9152,3.9331,0.0076,0.0227,0.1212,0.1667,0.1718,0.192,0.2021,0.2071,0.2246,0.2345,0.2358,0.233,0.2359,0.2373,0.2384,0.2933,0.3969,0.4988,0.6198,0.7121,0.7756,0.8027,0.7952,0.7922,0.79,0.7944,0.8069,0.8171,0.8235,0.9022,1.0213,1.0868,1.1509,1.2314,1.2544,1.2576,1.2412,1.2237,1.2425,1.2672,1.2832,1.3053,1.3193,1.3213,1.3213,1.3273,1.3601,1.5007,1.5907,1.607,1.736,1.8119,1.8341,1.8434,1.8488,1.8615,1.8894,1.9216,1.9598,1.9789,2.0079,2.0449,2.0585,2.1012,2.171,2.1783,2.2539,2.4384,2.5118,2.6031,2.743,2.847,2.9328,2.9999,3.0209,3.0507,3.0917,3.0999,3.1112,3.1291,3.1503,3.1688,3.1908,3.2109,3.2182,3.22,3.22,3.2318,3.2453,3.265,3.3023,3.3357,3.3664,3.4008,3.4298,3.4382,3.4382,3.4382,3.4412,3.469,3.5084,3.5247,3.5421,3.6014,3.6402,3.6356,3.6536,3.687,3.7283,3.7852,3.8286,3.8591,3.8925,3.9265,3.9421,0.0757,0.1515,0.1994,0.2196,0.2194,0.2271,0.2297,0.2297,0.2372,0.2448,0.2416,0.2408,0.245,0.2423,0.2431,0.3039,0.4257,0.5208,0.6349,0.757,0.8428,0.8472,0.8203,0.812,0.8142,0.815,0.8224,0.8296,0.8494,0.8854,0.974,1.1145,1.1289,1.2026,1.3058,1.3088,1.2988,1.2908,1.2961,1.3014,1.3073,1.316,1.32,1.3213,1.3213,1.3476,1.4096,1.5765,1.7073,1.7653,1.8026,1.8434,1.8618,1.8785,1.8916,1.9027,1.9405,1.9692,1.9885,2.0196,2.0468,2.0566,2.0781,2.1093,2.1648,2.1808,2.3068,2.4984,2.5916,2.678,2.8607,2.949,2.9993,3.0419,3.0584,3.0736,3.0943,3.1011,3.1149,3.1447,3.154,3.1743,3.2018,3.2146,3.22,3.22,3.2218,3.2237,3.239,3.2588,3.2846,3.3252,3.3612,3.3974,3.4247,3.4332,3.4382,3.4382,3.4412,3.4499,3.4806,3.5026,3.5276,3.5654,3.588,3.5949,3.6356,3.6769,3.7301,3.7688,3.8238,3.8649,3.9056,3.9421,3.9421,0.1614,0.2197,0.2345,0.2421,0.2421,0.2523,0.2574,0.2599,0.27,0.2725,0.275,0.275,0.2725,0.272,0.2743,0.3666,0.5134,0.5737,0.6924,0.839,0.8997,0.8955,0.8663,0.8577,0.8577,0.8561,0.8497,0.854,0.8635,0.8631,0.9611,1.095,1.1144,1.1961,1.3451,1.3453,1.33,1.3233,1.3287,1.336,1.3367,1.3367,1.338,1.334,1.3313,1.3622,1.4742,1.6202,1.7436,1.8211,1.862,1.8863,1.9088,1.9391,1.9561,1.9675,2.0021,2.0214,2.0253,2.0449,2.0605,2.0761,2.0996,2.1411,2.1889,2.2271,2.3594,2.4808,2.5662,2.6941,2.8517,2.9715,3.0375,3.0641,3.0773,3.0887,3.0973,3.0992,3.1205,3.1447,3.1596,3.177,3.2146,3.22,3.22,3.22,3.22,3.2218,3.2255,3.2426,3.2814,3.3388,3.3712,3.4042,3.4617,3.4888,3.4922,3.4864,3.4992,3.4934,3.4789,3.498,3.5009,3.5259,3.5415,3.5688,3.6141,3.6561,3.691,3.7399,3.8078,3.8702,3.9116,3.9421,3.9421,0.2446,0.2446,0.2473,0.2498,0.2549,0.2725,0.2826,0.2876,0.3053,0.3156,0.3156,0.3181,0.3131,0.3206,0.3397,0.4475,0.629,0.6512,0.7793,0.8915,0.9445,0.9283,0.9146,0.9009,0.8993,0.8977,0.8886,0.8814,0.8757,0.8658,0.9608,1.0874,1.1262,1.2176,1.3381,1.3666,1.3527,1.344,1.3467,1.3547,1.3533,1.3493,1.3454,1.3407,1.3535,1.4005,1.5162,1.638,1.7423,1.8267,1.8995,1.945,1.9735,2.0101,2.0333,2.0469,2.0488,2.0527,2.0605,2.0683,2.0801,2.1036,2.1471,2.191,2.2412,2.3043,2.3743,2.4575,2.5227,2.6539,2.7988,2.9555,3.0387,3.0698,3.0905,3.0999,3.0992,3.0992,3.1168,3.1522,3.1577,3.178,3.2055,3.22,3.22,3.22,3.22,3.22,3.2228,3.2408,3.3061,3.39,3.4073,3.416,3.4842,3.5491,3.5491,3.5491,3.5764,3.5717,3.5195,3.5108,3.4876,3.4963,3.5572,3.5793,3.581,3.6195,3.6722,3.734,3.8184,3.8745,3.914,3.9343,3.9421,0.2725,0.2725,0.2927,0.3027,0.3027,0.3078,0.3131,0.3108,0.3184,0.3215,0.3206,0.3206,0.3206,0.3232,0.3981,0.5181,0.6451,0.7248,0.8396,0.9418,0.9575,0.9551,0.9445,0.9259,0.9112,0.9104,0.9072,0.8966,0.8852,0.8931,0.9615,1.1024,1.1424,1.2206,1.3665,1.3952,1.3975,1.3881,1.3754,1.37,1.3681,1.3527,1.3406,1.3348,1.3863,1.4455,1.525,1.6644,1.7594,1.8152,1.9201,2.01,2.0256,2.045,2.0566,2.0586,2.0644,2.0644,2.0703,2.1095,2.1412,2.1531,2.2151,2.2778,2.3185,2.3556,2.4305,2.5143,2.5901,2.686,2.863,2.9326,3.0221,3.0846,3.1085,3.1097,3.1018,3.1018,3.1205,3.1466,3.1596,3.1743,3.2146,3.22,3.22,3.22,3.2227,3.22,3.2345,3.2536,3.3393,3.4415,3.4471,3.4654,3.5586,3.6159,3.6246,3.6304,3.6548,3.6664,3.6094,3.5804,3.5775,3.5833,3.5996,3.6054,3.6072,3.6561,3.7229,3.7797,3.8309,3.8792,3.9193,3.9337,3.9421,0.3083,0.3107,0.3239,0.3316,0.329,0.329,0.329,0.329,0.329,0.3274,0.325,0.3247,0.3234,0.3232,0.3855,0.483,0.6526,0.8049,0.9023,0.955,0.9624,0.9673,0.978,0.9607,0.9484,0.9356,0.925,0.9176,0.908,0.9089,0.9555,1.0774,1.131,1.2256,1.359,1.4208,1.4517,1.4526,1.4456,1.4391,1.4372,1.4267,1.407,1.3949,1.445,1.4934,1.5416,1.6669,1.7692,1.8521,1.9586,2.0306,2.0372,2.0644,2.0801,2.0664,2.1154,2.1194,2.1313,2.165,2.213,2.2191,2.2839,2.3268,2.3679,2.397,2.4639,2.5424,2.6,2.6825,2.9185,3.0124,3.0719,3.1487,3.1777,3.1803,3.1744,3.1434,3.1235,3.154,3.1688,3.189,3.2091,3.2345,3.2499,3.2635,3.2735,3.2762,3.3167,3.3418,3.4112,3.4808,3.4878,3.5327,3.6331,3.6838,3.6983,3.7157,3.7418,3.7476,3.7273,3.7081,3.6936,3.6762,3.6519,3.6577,3.6682,3.723,3.7707,3.8245,3.8718,3.906,3.9265,3.9355,3.9421,0.3385,0.3385,0.3385,0.3385,0.3385,0.3382,0.338,0.3382,0.3385,0.3373,0.3317,0.3309,0.3285,0.3295,0.3527,0.475,0.6775,0.8545,0.9673,0.9772,0.9821,0.992,1.0026,1.001,0.9935,0.9723,0.9664,0.9565,0.9482,0.9414,0.9817,1.0538,1.158,1.2608,1.3442,1.4457,1.5106,1.5088,1.5171,1.5224,1.526,1.5228,1.5098,1.5036,1.509,1.5422,1.5874,1.6815,1.7849,1.905,1.9936,2.024,2.0467,2.0781,2.1231,2.0879,2.1668,2.1908,2.1929,2.2332,2.2818,2.3002,2.3411,2.372,2.4011,2.4384,2.4886,2.533,2.5891,2.6845,2.9223,3.0198,3.1256,3.2111,3.2508,3.2718,3.2614,3.2059,3.1906,3.195,3.2324,3.2583,3.2632,3.2779,3.2933,3.3069,3.3196,3.3368,3.3764,3.4104,3.4615,3.5207,3.5311,3.6029,3.7061,3.7389,3.7564,3.7651,3.7999,3.7999,3.8028,3.7825,3.7506,3.711,3.6907,3.707,3.727,3.7682,3.8168,3.8701,3.8943,3.9156,3.9265,3.9373,3.9421,0.3385,0.3385,0.3385,0.3385,0.3388,0.3388,0.3393,0.3385,0.3396,0.3382,0.3398,0.3395,0.3416,0.3575,0.4324,0.589,0.7904,0.94,1.0094,1.0209,1.0243,1.0317,1.0375,1.0417,1.0333,1.029,1.0238,1.0168,0.9966,0.9966,1.0191,1.1119,1.2152,1.3098,1.3933,1.5026,1.5606,1.5633,1.5709,1.574,1.5712,1.5745,1.58,1.5782,1.5836,1.5973,1.6374,1.714,1.8089,1.9067,1.9936,2.0745,2.1377,2.1719,2.1821,2.1865,2.2145,2.2428,2.2513,2.3,2.3307,2.3533,2.3905,2.4257,2.4487,2.4798,2.5153,2.5556,2.6205,2.7172,2.8589,2.9841,3.0625,3.1447,3.2277,3.2803,3.2968,3.2999,3.295,3.3092,3.3265,3.3303,3.3255,3.3276,3.3466,3.3628,3.3756,3.3919,3.4198,3.4365,3.4604,3.52,3.5768,3.6713,3.7792,3.7914,3.8028,3.797,3.8115,3.8115,3.8144,3.8173,3.7941,3.7564,3.7535,3.7767,3.7986,3.8174,3.8399,3.8749,3.8962,3.9144,3.9313,3.9481,3.9571,0.3501,0.3501,0.3501,0.3504,0.3504,0.3504,0.3504,0.3504,0.3501,0.3485,0.3571,0.3751,0.3891,0.4206,0.519,0.6912,0.8714,1.0019,1.056,1.0712,1.0712,1.0813,1.0905,1.0905,1.1015,1.1063,1.1016,1.0688,1.0281,1.0248,1.0503,1.0967,1.2271,1.3368,1.4015,1.5314,1.6007,1.6172,1.6287,1.637,1.637,1.6447,1.6584,1.6609,1.6627,1.6718,1.6904,1.7175,1.822,1.9423,2.0083,2.1086,2.2093,2.2627,2.2575,2.2444,2.283,2.3118,2.3183,2.3635,2.4008,2.4028,2.4361,2.4611,2.4817,2.5087,2.5572,2.6301,2.7177,2.8183,2.937,2.9829,3.0721,3.1917,3.2601,3.3142,3.3744,3.4046,3.4166,3.4152,3.3946,3.3811,3.3761,3.3853,3.4043,3.4206,3.4341,3.4504,3.4666,3.4799,3.4944,3.5634,3.632,3.7101,3.7946,3.8088,3.8202,3.8202,3.8202,3.8202,3.8202,3.8202,3.8202,3.8028,3.8173,3.8202,3.8285,3.8328,3.8554,3.8815,3.9112,3.9354,3.9457,3.9571,3.978,0.3589,0.3589,0.3589,0.3673,0.3782,0.3782,0.3863,0.3949,0.3999,0.4,0.3957,0.4358,0.4575,0.4955,0.617,0.7829,0.9518,1.0577,1.1061,1.1181,1.1181,1.1312,1.1425,1.1502,1.1517,1.1564,1.1541,1.1265,1.087,1.0715,1.069,1.1541,1.2986,1.3836,1.4396,1.5906,1.6541,1.68,1.6918,1.705,1.7106,1.72,1.7346,1.7366,1.7404,1.7404,1.7516,1.7601,1.8652,1.9866,2.0669,2.1373,2.3069,2.3705,2.3521,2.3149,2.3791,2.3878,2.3965,2.4091,2.4423,2.4589,2.4631,2.4922,2.5363,2.5765,2.6235,2.7364,2.8094,2.8821,2.9466,3.0056,3.0842,3.1833,3.2657,3.339,3.4137,3.4647,3.5022,3.4888,3.4561,3.4457,3.4477,3.4558,3.4775,3.4829,3.4984,3.5066,3.5228,3.5337,3.5611,3.6306,3.6944,3.7501,3.8014,3.8136,3.8202,3.8202,3.8202,3.8202,3.8202,3.8202,3.8231,3.8318,3.8202,3.8221,3.8352,3.8482,3.8657,3.8918,3.9281,3.9624,3.984,4.0199,4.0546,0.3589,0.3617,0.3617,0.3894,0.4341,0.4397,0.4704,0.5118,0.5094,0.5202,0.5008,0.5238,0.5313,0.5914,0.7305,0.8674,0.986,1.0871,1.1533,1.1672,1.1706,1.1706,1.1763,1.1761,1.1784,1.1862,1.1796,1.1749,1.152,1.1399,1.1876,1.2773,1.3543,1.4826,1.5409,1.6399,1.7176,1.7238,1.7276,1.7276,1.7314,1.7352,1.7507,1.7667,1.7755,1.7852,1.8043,1.8155,1.9076,2.0769,2.1182,2.2348,2.4166,2.4846,2.5076,2.4909,2.4696,2.4272,2.436,2.4568,2.4735,2.4983,2.5065,2.5487,2.602,2.6688,2.7296,2.8129,2.8443,2.863,2.9186,2.9715,3.0238,3.1045,3.2016,3.2946,3.3885,3.4475,3.493,3.5501,3.5107,3.5256,3.5337,3.5445,3.5554,3.5581,3.5608,3.5608,3.5655,3.571,3.6031,3.6646,3.7037,3.7558,3.8014,3.8183,3.8376,3.8318,3.8376,3.8405,3.8609,3.8696,3.8434,3.8463,3.8405,3.8463,3.8684,3.8796,3.8822,3.9162,3.9672,4.0028,4.0307,4.0707,4.1064,0.462,0.462,0.462,0.476,0.4983,0.5007,0.515,0.5369,0.5397,0.5397,0.5481,0.5791,0.6561,0.7818,0.933,1.0363,1.1202,1.1718,1.2003,1.2073,1.2126,1.2126,1.2154,1.2145,1.2145,1.2088,1.2051,1.207,1.2004,1.1886,1.208,1.2633,1.354,1.4395,1.5818,1.6527,1.7218,1.7654,1.7896,1.7857,1.7857,1.7857,1.7916,1.8086,1.8062,1.8189,1.8326,1.8489,1.9201,2.0651,2.1299,2.251,2.3932,2.4848,2.5465,2.5513,2.5363,2.5102,2.4962,2.515,2.5232,2.5273,2.5482,2.5925,2.6636,2.7402,2.7998,2.8328,2.8558,2.8698,2.8769,2.9163,2.9669,3.0373,3.1223,3.2386,3.3288,3.3948,3.4511,3.5135,3.569,3.5649,3.5629,3.5642,3.5615,3.5635,3.5635,3.5662,3.5683,3.571,3.6171,3.6822,3.7134,3.7424,3.7882,3.8231,3.8638,3.8725,3.8899,3.8986,3.9305,3.9334,3.9073,3.9131,3.9363,3.9363,3.9189,3.9225,3.9314,3.9708,4.0162,4.0445,4.0721,4.0773,4.1076,0.5905,0.585,0.5521,0.5481,0.5624,0.5624,0.5731,0.5871,0.5898,0.5871,0.5982,0.6427,0.7759,0.9464,1.0343,1.1065,1.2282,1.2382,1.2382,1.2382,1.2382,1.2363,1.2335,1.2354,1.2354,1.2382,1.2249,1.2249,1.2249,1.2189,1.2159,1.2408,1.3758,1.4663,1.5631,1.6687,1.7587,1.8144,1.8218,1.8233,1.8247,1.8262,1.8321,1.8394,1.8423,1.8502,1.8675,1.8845,1.9478,2.0688,2.1876,2.3069,2.4212,2.5351,2.6023,2.6185,2.6179,2.6018,2.5771,2.5709,2.573,2.5816,2.6118,2.6758,2.7216,2.8036,2.8511,2.8535,2.8651,2.8768,2.8814,2.8816,2.914,2.9692,3.0396,3.1599,3.2753,3.3568,3.4095,3.4538,3.5079,3.5487,3.5507,3.5609,3.5669,3.569,3.571,3.5737,3.5791,3.5866,3.6333,3.7021,3.759,3.7871,3.8304,3.8619,3.8938,3.9189,3.9363,3.9538,3.9828,3.9915,3.977,3.9944,4.0205,3.9648,3.9154,3.9509,3.9883,4.0298,4.0668,4.0956,4.1145,4.1071,4.0904,0.7282,0.7085,0.5911,0.5764,0.6242,0.6232,0.6571,0.6908,0.7004,0.6981,0.6941,0.7304,0.8322,0.9575,1.0323,1.1169,1.2428,1.2382,1.2401,1.2401,1.2382,1.2401,1.2391,1.2382,1.2382,1.2382,1.2325,1.2371,1.24,1.2343,1.2962,1.3987,1.4278,1.5644,1.6741,1.7473,1.8067,1.8452,1.8477,1.8423,1.8408,1.8423,1.8521,1.8712,1.881,1.9004,1.9542,1.951,1.9938,2.1161,2.225,2.3504,2.4587,2.5769,2.6388,2.6813,2.6931,2.6747,2.6498,2.6229,2.6167,2.6616,2.7161,2.7651,2.7851,2.838,2.8699,2.8745,2.8791,2.8814,2.8814,2.8816,2.8955,2.9256,2.992,3.0866,3.2125,3.3399,3.3911,3.4079,3.4471,3.5018,3.5441,3.5562,3.5676,3.573,3.5961,3.6035,3.6178,3.6314,3.6641,3.7234,3.7997,3.8521,3.9025,3.9354,3.9625,3.9828,4.0031,4.0118,4.0263,4.0321,4.0554,4.0495,4.0601,3.9851,3.9357,3.9905,4.044,4.088,4.1183,4.1371,4.1087,4.0772,4.0541,0.7354,0.7238,0.6728,0.6667,0.6896,0.6925,0.7108,0.7343,0.7377,0.7377,0.7475,0.8549,0.9454,1.0241,1.1456,1.2069,1.2645,1.2786,1.2626,1.2532,1.2522,1.2522,1.2475,1.2391,1.2382,1.2382,1.2382,1.2382,1.2382,1.2382,1.2545,1.3281,1.4238,1.5238,1.639,1.7881,1.8673,1.8902,1.8917,1.8917,1.8891,1.8902,1.8964,1.9013,1.9027,1.9119,1.9325,1.9485,2.0,2.0795,2.1919,2.3206,2.4498,2.5606,2.6536,2.7181,2.73,2.7265,2.712,2.6874,2.6921,2.7215,2.7798,2.8275,2.834,2.8626,2.8768,2.8814,2.8858,2.8946,2.8836,2.8814,2.8862,2.9071,2.9623,3.0487,3.1562,3.2924,3.3631,3.3776,3.4204,3.4717,3.5151,3.5563,3.5669,3.5778,3.6055,3.6334,3.6558,3.6791,3.7125,3.7577,3.8355,3.8993,3.9485,3.9873,4.0292,4.0495,4.0699,4.0706,4.081,4.1337,4.1482,4.1337,4.105,4.0584,4.0378,4.0637,4.0756,4.0611,4.1105,4.1782,4.1298,4.0527,3.9966,0.7397,0.7354,0.7296,0.7291,0.7285,0.7285,0.7328,0.7399,0.7399,0.7611,0.787,0.9279,1.0197,1.0914,1.1811,1.2664,1.2693,1.2786,1.271,1.2663,1.2663,1.2663,1.2587,1.2503,1.2494,1.2437,1.2382,1.2382,1.2382,1.2382,1.2548,1.2922,1.3606,1.4685,1.5636,1.7569,1.8933,1.9234,1.9415,1.9523,1.9534,1.9572,1.9747,1.9701,1.9662,1.9669,1.9765,1.9942,2.0046,2.071,2.1553,2.2594,2.377,2.4973,2.6152,2.6887,2.7428,2.7634,2.7659,2.7654,2.7747,2.8061,2.8559,2.8819,2.8875,2.9065,2.9359,2.9316,2.9272,2.9206,2.9185,2.9338,2.9371,2.9628,2.996,3.0721,3.1469,3.2565,3.3088,3.3501,3.4117,3.4802,3.4835,3.5317,3.6008,3.6264,3.6706,3.6937,3.7066,3.7322,3.7606,3.8152,3.8807,3.9398,3.9917,4.0545,4.1105,4.1241,4.1384,4.1225,4.1385,4.1868,4.1793,4.1207,4.1053,4.1197,4.0922,4.0449,4.0182,3.9971,4.0562,4.1175,4.0866,4.0031,3.9033,0.7576,0.7519,0.7497,0.7366,0.7209,0.7193,0.722,0.7286,0.7287,0.7657,0.8283,0.8867,0.9865,1.0976,1.1555,1.214,1.2702,1.2644,1.256,1.2682,1.2748,1.2776,1.2738,1.2681,1.2559,1.2437,1.2382,1.2382,1.2382,1.2382,1.2513,1.29,1.3539,1.4428,1.4535,1.6577,1.8227,1.9185,1.9647,1.9932,2.0139,2.0192,2.0427,2.0522,2.0239,2.0169,2.0338,2.0212,2.0317,2.073,2.146,2.2365,2.3216,2.5058,2.6206,2.675,2.7905,2.8438,2.857,2.8471,2.8642,2.8866,2.9219,2.948,2.9721,2.9932,2.9991,2.9816,2.9947,3.0035,3.01,3.0081,3.0013,3.0193,3.0529,3.1043,3.1804,3.2465,3.3062,3.3437,3.4337,3.5102,3.4903,3.5063,3.6113,3.6758,3.7267,3.7524,3.7553,3.8045,3.8388,3.8831,3.9466,4.003,4.0654,4.1423,4.1918,4.2034,4.1902,4.1595,4.1512,4.1702,4.1472,4.0993,4.1149,4.143,4.0696,3.9885,3.9437,3.9087,3.9692,4.0118,3.9935,3.959,3.8711,0.7508,0.737,0.737,0.7307,0.7215,0.7362,0.7437,0.7491,0.7471,0.7639,0.8072,0.8617,0.9523,1.0555,1.146,1.2079,1.2683,1.2918,1.2899,1.256,1.2757,1.2644,1.2616,1.2616,1.2531,1.2437,1.2382,1.2382,1.2382,1.2382,1.2437,1.2721,1.3597,1.4681,1.6455,1.8286,1.9647,1.9899,2.0189,2.0468,2.0761,2.0818,2.0895,2.1086,2.0637,2.0519,2.0698,2.0414,2.0411,2.0613,2.126,2.198,2.3248,2.5157,2.6064,2.7262,2.8657,2.9078,2.9467,2.9679,2.9678,2.9648,2.9691,2.9911,3.0022,3.0136,3.0185,3.0275,3.0341,3.0319,3.0188,3.0188,3.0253,3.0713,3.1123,3.162,3.2277,3.2834,3.3345,3.3468,3.4055,3.4986,3.5183,3.5036,3.5839,3.6518,3.6958,3.7564,3.7745,3.8787,3.9467,3.979,4.028,4.0773,4.1363,4.1748,4.1897,4.1806,4.1765,4.1632,4.1619,4.143,4.1191,4.0717,4.1191,4.1556,4.0287,3.9121,3.8383,3.8198,3.8863,3.9502,3.97,3.9309,3.8575,0.7419,0.7316,0.7354,0.7383,0.739,0.747,0.7568,0.7616,0.7557,0.7679,0.8248,0.9127,1.0084,1.0965,1.1827,1.2445,1.2994,1.3032,1.3126,1.2776,1.2909,1.288,1.2758,1.2598,1.2569,1.2484,1.2391,1.2382,1.2382,1.2382,1.2391,1.2729,1.3792,1.5356,1.7076,1.8262,1.9551,2.0024,2.0681,2.112,2.1367,2.1464,2.1468,2.1408,2.1154,2.083,2.0699,2.0512,2.0346,2.0512,2.0907,2.1541,2.3176,2.4407,2.5472,2.7153,2.8991,2.9475,3.0011,3.0028,2.994,2.994,3.0049,3.036,3.06,3.0774,3.0752,3.0777,3.0646,3.0668,3.0643,3.0622,3.0855,3.1345,3.1719,3.2223,3.2936,3.3525,3.3739,3.3813,3.4029,3.487,3.5353,3.5401,3.5564,3.608,3.6565,3.7157,3.7743,3.8724,3.9623,3.9946,4.0223,4.0483,4.1042,4.1694,4.1752,4.1598,4.1409,4.1212,4.0916,4.0589,4.0524,4.0631,4.1198,4.1142,3.9475,3.8338,3.7785,3.7655,3.8057,3.8686,3.9341,3.9069,3.848,0.7414,0.7332,0.7435,0.7573,0.7655,0.7568,0.7535,0.7529,0.7582,0.8043,0.8865,0.9965,1.0846,1.1825,1.2817,1.3169,1.3258,1.3155,1.3174,1.325,1.3192,1.3145,1.307,1.3003,1.2805,1.256,1.2475,1.2522,1.2447,1.2696,1.2687,1.3255,1.5143,1.6326,1.7135,1.8239,1.9426,2.0464,2.1194,2.1608,2.19,2.2052,2.21,2.2028,2.1703,2.137,2.1169,2.0962,2.082,2.0836,2.0944,2.1209,2.1898,2.291,2.4421,2.6402,2.8917,2.9729,3.0248,3.0181,3.0283,3.0479,3.1011,3.1407,3.132,3.1102,3.1102,3.1189,3.1189,3.1364,3.1473,3.1544,3.1661,3.2004,3.2341,3.295,3.372,3.415,3.4294,3.4414,3.4535,3.4945,3.4969,3.5042,3.5259,3.5474,3.5924,3.6279,3.6915,3.7838,3.8702,3.9304,3.9585,3.9891,4.046,4.1001,4.0979,4.061,4.0567,4.0346,4.0043,4.0049,4.0303,4.0653,4.1248,4.0772,3.9213,3.8106,3.7318,3.7422,3.7846,3.8298,3.9043,3.9045,3.8668,0.7338,0.7322,0.7441,0.754,0.7578,0.7627,0.7649,0.7703,0.8266,0.878,0.9081,1.004,1.1025,1.176,1.2087,1.2654,1.2982,1.3136,1.3136,1.3231,1.3374,1.3212,1.3184,1.3222,1.3051,1.2955,1.2851,1.2896,1.3039,1.3255,1.3834,1.4628,1.6004,1.6986,1.8043,1.936,2.0126,2.0849,2.1519,2.2033,2.2367,2.2553,2.2601,2.2375,2.2112,2.1751,2.1439,2.1153,2.102,2.0972,2.0915,2.129,2.2739,2.3238,2.4285,2.7064,2.8845,2.9905,3.0525,3.0907,3.1004,3.0946,3.1342,3.1036,3.0927,3.0949,3.1171,3.132,3.1495,3.156,3.1655,3.1768,3.2129,3.2569,3.2904,3.3469,3.4125,3.4462,3.4631,3.4655,3.4799,3.4799,3.4799,3.4823,3.5017,3.509,3.5259,3.5595,3.6096,3.7034,3.7746,3.8383,3.8787,3.9028,3.9343,3.9826,3.976,3.9651,3.9667,3.9722,3.9716,3.9826,4.0185,4.0541,4.0848,4.0165,3.8978,3.8105,3.7474,3.7607,3.803,3.8324,3.8593,3.8769,3.9051,0.7419,0.7397,0.7511,0.7676,0.7849,0.7952,0.8046,0.8269,0.8849,0.9136,0.9337,1.0569,1.1398,1.193,1.2407,1.2876,1.3353,1.3392,1.3508,1.38,1.3693,1.3934,1.3924,1.3921,1.4004,1.382,1.375,1.3859,1.3915,1.4125,1.4643,1.4972,1.6362,1.7257,1.8174,1.9388,2.051,2.112,2.1709,2.2352,2.2688,2.2863,2.2752,2.2541,2.2255,2.2,2.1671,2.137,2.1338,2.1322,2.1322,2.1744,2.3073,2.3665,2.5001,2.7585,2.8982,2.9938,3.0568,3.103,3.1145,3.1124,3.1102,3.0752,3.0752,3.0887,3.1127,3.1342,3.1473,3.1604,3.1706,3.1885,3.2493,3.3074,3.3497,3.3893,3.4311,3.4702,3.4775,3.4775,3.4799,3.4799,3.4799,3.4799,3.4823,3.4896,3.4969,3.5114,3.5547,3.6189,3.6845,3.7422,3.7789,3.8107,3.8477,3.8908,3.9101,3.9136,3.9062,3.9138,3.9252,3.9644,4.0051,4.0133,4.0196,3.9522,3.895,3.8367,3.7863,3.809,3.8291,3.856,3.885,3.8978,3.9378,0.7711,0.7628,0.7725,0.8076,0.8421,0.8421,0.8574,0.8976,0.9431,0.9481,0.9808,1.1434,1.2342,1.2657,1.3351,1.3807,1.4064,1.4094,1.4282,1.4669,1.4597,1.4752,1.498,1.5246,1.4903,1.4974,1.4962,1.4746,1.4991,1.518,1.5264,1.5257,1.652,1.7431,1.8032,1.9737,2.079,2.1151,2.2059,2.2863,2.2863,2.2883,2.2863,2.2561,2.2418,2.2318,2.2064,2.1979,2.2011,2.1995,2.2027,2.2134,2.2885,2.4051,2.5792,2.718,2.8442,2.957,3.0185,3.0701,3.078,3.0616,3.0341,3.0556,3.0862,3.0952,3.1171,3.1302,3.1407,3.156,3.1655,3.1834,3.2342,3.2946,3.3446,3.3966,3.4531,3.4775,3.4799,3.4799,3.4799,3.4799,3.4847,3.4871,3.5111,3.4992,3.5136,3.5209,3.543,3.5939,3.632,3.6818,3.7206,3.7662,3.7989,3.8423,3.8681,3.8714,3.8634,3.8906,3.9292,3.9603,3.987,3.993,3.9941,3.9657,3.9141,3.8712,3.8467,3.8542,3.8718,3.8919,3.907,3.9221,3.9522,0.836,0.8438,0.857,0.8708,0.8763,0.8793,0.8824,0.9098,1.0808,1.0899,1.0604,1.2225,1.3336,1.3545,1.449,1.4977,1.5007,1.4888,1.5175,1.5324,1.5353,1.547,1.5564,1.5726,1.5616,1.5445,1.5395,1.5592,1.5862,1.6102,1.6431,1.6896,1.77,1.8081,1.8396,2.0175,2.1049,2.1315,2.2268,2.2867,2.2752,2.2863,2.2863,2.2625,2.2466,2.2382,2.2175,2.2032,2.2027,2.2011,2.2011,2.2059,2.2204,2.3503,2.4562,2.5611,2.7381,2.8744,2.9857,3.0478,3.078,3.1153,3.1189,3.1233,3.1254,3.1149,3.1149,3.1236,3.1367,3.1495,3.168,3.191,3.2215,3.2821,3.3446,3.4089,3.4726,3.475,3.4799,3.4799,3.4799,3.4871,3.4919,3.5136,3.5328,3.5617,3.593,3.6075,3.6102,3.6404,3.6505,3.6898,3.7047,3.7392,3.773,3.8065,3.8402,3.8484,3.8422,3.8791,3.928,3.9705,4.0033,3.9878,3.9727,3.9553,3.9493,3.9399,3.922,3.9094,3.912,3.927,3.9371,3.9499,3.9728,0.8701,0.8811,0.8854,0.8976,0.9068,0.9068,0.9153,0.9609,1.1201,1.1593,1.139,1.3306,1.451,1.451,1.5324,1.5661,1.5661,1.5572,1.5739,1.5887,1.6065,1.6242,1.6272,1.636,1.6514,1.6421,1.6353,1.6547,1.6722,1.6879,1.722,1.7537,1.8152,1.8561,1.8968,2.0285,2.1231,2.1601,2.2513,2.2798,2.2692,2.2879,2.2958,2.2736,2.2672,2.2561,2.2545,2.2418,2.2461,2.2599,2.2741,2.3152,2.3502,2.4336,2.521,2.6313,2.7576,2.8619,2.9689,3.0477,3.1004,3.1434,3.1626,3.1495,3.1473,3.1389,3.1389,3.1451,3.1451,3.1604,3.1859,3.2114,3.2544,3.3097,3.3793,3.4482,3.475,3.4775,3.4799,3.4775,3.4943,3.5256,3.54,3.5713,3.5905,3.5978,3.6338,3.6459,3.6558,3.6878,3.6963,3.7117,3.7416,3.7418,3.7642,3.7937,3.8236,3.8265,3.8391,3.8868,3.9443,3.9889,4.0161,3.9889,3.9719,3.9675,3.9626,3.9598,3.9622,3.9471,3.9521,3.9622,3.9697,3.9697,3.9776,0.9025,0.9007,0.9037,0.9159,0.9335,0.9366,0.9518,0.9974,1.1148,1.1872,1.2294,1.448,1.5472,1.5591,1.5839,1.5839,1.5928,1.6164,1.636,1.6537,1.6655,1.6832,1.7097,1.7361,1.7273,1.7244,1.7237,1.7255,1.7325,1.7391,1.7391,1.7479,1.7655,1.7918,1.8765,1.9664,2.0457,2.1391,2.2194,2.2834,2.2985,2.2994,2.2962,2.3006,2.3022,2.3022,2.3006,2.3025,2.3054,2.3299,2.3593,2.411,2.4601,2.5176,2.59,2.6877,2.7634,2.8727,2.9814,3.0648,3.1161,3.1581,3.165,3.1778,3.1778,3.18,3.1778,3.1691,3.1713,3.168,3.1961,3.2342,3.2843,3.344,3.416,3.4917,3.4966,3.5039,3.5039,3.5039,3.5304,3.5689,3.5905,3.6218,3.6411,3.6483,3.6555,3.6603,3.6798,3.7316,3.7644,3.7855,3.8084,3.8039,3.8041,3.8216,3.8617,3.8768,3.9044,3.9321,3.9574,3.9854,3.9955,3.9829,3.97,3.97,3.97,3.9673,3.9697,3.9697,3.9697,3.9697,3.9697,3.9697,3.9697,0.9609,0.9609,0.964,0.967,0.97,0.97,0.9731,1.0004,1.1148,1.2264,1.3354,1.4659,1.561,1.568,1.6773,1.7038,1.6832,1.6932,1.7067,1.7303,1.7185,1.7332,1.7449,1.7479,1.7479,1.7503,1.7527,1.7491,1.7587,1.7551,1.7503,1.7539,1.7527,1.7691,1.7926,1.8917,2.0118,2.1191,2.215,2.2859,2.3254,2.3244,2.3038,2.3022,2.3022,2.3022,2.307,2.3279,2.3375,2.3674,2.4277,2.4859,2.5428,2.5916,2.6423,2.6848,2.7618,2.8342,2.9297,3.0376,3.1028,3.1721,3.1965,3.2617,3.2639,3.266,3.2503,3.2175,3.2066,3.1735,3.1925,3.2383,3.2886,3.3773,3.4565,3.5368,3.5832,3.5905,3.593,3.5928,3.6074,3.6242,3.6314,3.6651,3.6988,3.7108,3.7348,3.7399,3.7423,3.7823,3.8202,3.8417,3.8655,3.9088,3.9268,3.9093,3.9295,3.9446,3.9522,3.9572,3.9597,3.9647,3.9697,3.9697,3.9697,3.9698,3.9697,3.9697,3.9697,3.9697,3.9697,3.9697,3.9697,3.9697,3.9697]},{"header":{"parameterUnit":"m.s-1","parameterCategory":1,"la1":31.0,"la2":29.5877,"lo1":-88.7671,"lo2":-86.6584,"dy":0.0162,"dx":0.0185,"nx":115,"ny":88,"refTime":"2026-04-19T00:00:00:Z","depth":0,"parameterNumber":3,"parameterNumberName":"V-component_of_WINDS"},"data":[0.0,0.0,0.0,0.0,0.0,0.0,0.0,0.0,0.0,0.0,0.0,0.0,0.0,0.0,0.0,0.0,0.0,0.0,0.0,0.0,0.0,0.0,0.0,0.0,0.0,0.0,0.0,0.0,0.0,0.0,0.0,0.0,0.0,0.0,0.0,0.0,0.0,0.0,0.0,0.0,0.0,0.0,0.0,0.0,0.0,0.0,0.0,0.0,0.0,0.0,0.0,0.0,0.0,0.0,0.0,0.0,0.0,0.0,0.0,0.0,0.0,0.0,0.0,0.0,0.0,0.0,0.0,0.0,0.0,0.0,0.0,0.0,0.0,0.0,0.0,0.0,0.0,0.0,0.0,0.0,0.0,0.0,0.0,0.0,0.0,0.0,0.0,0.0,0.0,0.0,0.0,0.0,0.0,0.0,0.0,0.0,0.0,0.0,0.0,0.0,0.0,0.0,0.0,0.0,0.0,0.0,0.0,0.0,0.0,0.0,0.0,0.0,0.0,0.0,0.0,0.0,0.0,0.0,0.0,0.0,0.0,0.0,0.0,0.0,0.0,0.0,0.0,0.0,0.0,0.0,0.0,0.0,0.0,0.0,0.0,0.0,0.0,0.0,0.0,0.0,0.0,0.0,0.0,0.0,0.0,0.0,0.0,0.0,0.0,0.0,0.0,0.0,0.0,0.0,0.0,0.0,0.0,0.0,0.0,0.0,0.0,0.0,0.0,0.0,0.0,0.0,0.0,0.0,0.0,0.0,0.0,0.0,0.0,0.0,0.0,0.0,0.0,0.0,0.0,0.0,0.0,0.0,0.0,0.0,0.0,0.0,0.0,0.0,0.0,0.0,0.0,0.0,0.0,0.0,0.0,0.0,0.0,0.0,0.0,0.0,0.0,0.0,0.0,0.0,0.0,0.0,0.0,0.0,0.0,0.0,0.0,0.0,0.0,0.0,0.0,0.0,0.0,0.0,0.0,0.0,0.0,0.0,0.0,0.0,0.0,0.0,0.0,0.0,0.0,0.0,0.0,0.0,0.0,0.0,0.0,0.0,0.0,0.0,0.0,0.0,0.0,0.0,0.0,0.0,0.0,0.0,0.0,0.0,0.0,0.0,0.0,0.0,0.0,0.0,0.0,0.0,0.0,0.0,0.0,0.0,0.0,0.0,0.0,0.0,0.0,0.0,0.0,0.0,0.0,0.0,0.0,0.0,0.0,0.0,0.0,0.0,0.0,0.0,0.0,0.0,0.0,0.0,0.0,0.0,0.0,0.0,0.0,0.0,0.0,0.0,0.0,0.0,0.0,0.0,0.0,0.0,0.0,0.0,0.0,0.0,0.0,0.0,0.0,0.0,0.0,0.0,0.0,0.0,0.0,0.0,0.0,0.0,0.0,0.0,0.0,0.0,0.0,0.0,0.0,0.0,0.0,0.0,0.0,0.0,0.0,0.0,0.0,0.0,0.0,0.0,0.0,0.0,0.0,0.0,0.0,0.0,0.0,0.0,0.0,0.0,0.0,0.0,0.0,0.0,0.0,0.0,0.0,0.0,0.0,0.0,0.0,0.0,0.0,0.0,0.0,0.0,0.0,0.0,0.0,0.0,0.0,0.0,0.0,0.0,0.0,0.0,0.0,0.0,0.0,0.0,0.0,0.0,0.0,0.0,0.0,0.0,0.0,0.0,0.0,0.0,0.0,0.0,0.0,0.0,0.0,0.0,0.0,0.0,0.0,0.0,0.0,0.0,0.0,0.0,0.0,0.0,0.0,0.0,0.0,0.0,0.0,0.0,0.0,0.0,0.0,0.0,0.0,0.0,0.0,0.0,0.0,0.0,0.0,0.0,0.0,0.0,0.0,0.0,0.0,0.0,0.0,0.0,0.0,0.0,0.0,0.0,0.0,0.0,0.0,0.0,0.0,0.0,0.0,0.0,0.0,0.0,0.0,0.0,0.0,0.0,0.0,0.0,0.0,0.0,0.0,0.0,0.0,0.0,0.0,0.0,0.0,0.0,0.0,0.0,0.0,0.0,0.0,0.0,0.0,0.0,0.0,0.0,0.0,0.0,0.0,0.0,0.0,0.0,0.0,0.0,0.0,0.0,0.0,0.0,0.0,0.0,0.0,0.0,0.0,0.0,0.0,0.0,0.0,0.0,0.0,0.0,0.0,0.0,0.0,0.0,0.0,0.0,0.0,0.0,0.0,0.0,0.0,0.0,0.0,0.0,0.0,0.0,0.0,0.0,0.0,0.0,0.0,0.0,0.0,0.0,0.0,0.0,0.0,0.0,0.0,0.0,0.0,0.0,0.0,0.0,0.0,0.0,0.0,0.0,0.0,0.0,0.0,0.0,0.0,0.0,0.0,0.0,0.0,0.0,0.0,0.0,0.0,0.0,0.0,0.0,0.0,0.0,0.0,0.0,0.0,0.0,0.0,0.0,0.0,0.0,0.0,0.0,0.0,0.0,0.0,0.0,0.0,0.0,0.0,0.0,0.0,0.0,0.0,0.0,0.0,0.0,0.0,0.0,0.0,0.0,0.0,0.0,0.0,0.0,0.0,0.0,0.0,0.0,0.0,0.0,0.0,0.0,0.0,0.0,0.0,0.0,0.0,0.0,0.0,0.0,0.0,0.0,0.0,0.0,0.0,0.0,0.0,0.0,0.0,0.0,0.0,0.0,0.0,0.0,0.0,0.0,0.0,0.0,0.0,0.0,0.0,0.0,0.0,0.0,0.0,0.0,0.0,0.0,0.0,0.0,0.0,0.0,0.0,0.0,0.0,0.0,0.0,0.0,0.0,0.0,0.0,0.0,0.0,0.0,0.0,0.0,0.0,0.0,0.0,0.0,0.0,0.0,0.0,0.0,0.0,0.0,0.0,0.0,0.0,0.0,0.0,0.0,0.0,0.0,0.0,0.0,0.0,0.0,0.0,0.0,0.0,0.0,0.0,0.0,0.0,0.0,0.0,0.0,0.0,0.0,0.0,0.0,0.0,0.0,0.0,0.0,0.0,0.0,0.0,0.0,0.0,0.0,0.0,0.0,0.0,0.0,0.0,0.0,0.0,0.0,0.0,0.0,0.0,0.0,0.0,0.0,0.0,0.0,0.0,0.0,0.0,0.0,0.0,0.0,0.0,0.0,0.0,0.0,0.0,0.0,0.0,0.0,0.0,0.0,0.0,0.0,0.0,0.0,0.0,0.0,0.0,0.0,0.0,0.0,0.0,0.0,0.0,0.0,0.0,0.0,0.0,0.0,0.0,0.0,0.0,0.0,0.0,0.0,0.0,0.0,0.0,0.0,0.0,0.0,0.0,0.0,0.0,0.0,0.0,0.0,0.0,0.0,0.0,0.0,0.0,0.0,0.0,0.0,0.0,0.0,0.0,0.0,0.0,0.0,0.0,0.0,0.0,0.0,0.0,0.0,0.0,0.0,0.0,0.0,0.0,0.0,0.0,0.0,0.0,0.0,0.0,0.0,0.0,0.0,0.0,0.0,0.0,0.0,0.0,0.0,0.0,0.0,0.0,0.0,0.0,0.0,0.0,0.0,0.0,0.0,0.0,0.0,0.0,0.0,0.0,0.0,0.0,0.0,0.0,0.0,0.0,0.0,0.0,0.0,0.0,0.0,0.0,0.0,0.0,0.0,0.0,0.0,0.0,0.0,0.0,0.0,0.0,0.0,0.0,0.0,0.0,0.0,0.0,0.0,0.0,0.0,0.0,0.0,0.0,0.0,0.0,0.0,0.0,0.0,0.0,0.0,0.0,0.0,0.0,0.0,0.0,0.0,0.0,0.0,0.0,0.0,0.0,0.0,0.0,0.0,0.0,0.0,0.0,0.0,0.0,0.0,0.0,0.0,0.0,0.0,0.0,0.0,0.0,0.0,0.0,0.0,0.0,0.0,0.0,0.0,0.0,0.0,0.0,0.0,0.0,0.0,0.0,0.0,0.0,0.0,0.0,0.0,0.0,0.0,0.0,0.0,0.0,0.0,0.0,0.0,0.0,0.0,0.0,0.0,0.0,0.0,0.0,0.0,0.0,0.0,0.0,0.0,0.0,0.0,0.0,0.0,0.0,0.0,0.0,0.0,0.0,0.0,0.0,0.0,0.0,0.0,0.0,0.0,0.0,0.0,0.0,0.0,0.0,0.0,0.0,0.0,0.0,0.0,0.0,0.0,0.0,0.0,0.0,0.0,0.0,0.0,0.0,0.0,0.0,0.0,0.0,0.0,0.0,0.0,0.0,0.0,0.0,0.0,0.0,0.0,0.0,0.0,0.0,0.0,0.0,0.0,0.7891,0.0,0.0,0.0,0.0,0.0,0.0,0.0,0.0,0.0,0.0,0.0,0.0,0.0,0.0,0.0,0.0,0.0,0.0,0.0,0.0,0.0,0.0,0.0,0.0,0.0,0.0,0.0,0.0,0.0,0.0,0.0,0.0,0.0,0.0,0.0,0.0,0.0,0.0,0.0,0.0,0.0,0.0,0.0,0.0,0.0,0.0,0.0,0.0,0.0,0.0,0.0,0.0,0.0,0.0,0.0,0.0,0.0,0.0,0.0,0.0,0.0,0.0,0.0,0.0,0.0,0.0,0.0,0.0,0.0,0.0,0.0,0.0,0.0,0.0,0.0,0.0,0.0,0.0,0.0,0.0,0.0,0.0,0.0,0.0,0.0,0.0,0.0,0.0,0.0,0.0,0.0,0.0,0.0,0.0,0.0,0.0,0.0,0.0,0.0,0.0,0.0,0.0,0.0,0.0,0.0,0.0,0.0,0.0,0.0,0.0,0.7891,0.7891,0.7891,0.7891,0.7891,0.0,0.0,0.0,0.0,0.0,0.0,0.0,0.0,0.0,0.0,0.0,0.0,0.0,0.0,0.0,0.0,0.0,0.0,0.0,0.0,0.0,0.0,0.0,0.0,0.0,0.0,0.0,0.0,0.0,0.0,0.0,0.0,0.0,0.0,0.0,0.0,0.0,0.0,0.0,0.0,0.0,0.0,0.0,0.0,0.0,0.0,0.0,0.0,0.0,0.0,0.0,0.0,0.0,0.0,0.0,0.0,0.0,0.0,0.0,0.0,0.0,0.0,0.0,0.0,0.0,0.0,0.0,0.0,0.0,0.0,0.0,0.0,0.0,0.0,0.0,0.0,0.0,0.0,0.0,0.0,0.0,0.0,0.0,0.0,0.0,0.0,0.0,0.0,0.0,0.0,0.0,0.0,0.0,0.0,0.0,0.0,0.0,0.0,0.0,0.0,0.0,0.0,0.0,0.0,0.0,0.0,0.0,0.0,0.0,0.0,0.0,0.0,0.8391,0.8364,0.8391,0.0,0.0,0.0,0.0,0.0,0.0,0.0,0.0,0.0,0.0,0.0,0.0,0.0,0.0,0.0,0.0,0.0,0.0,0.0,0.0,0.0,0.0,0.0,0.0,0.0,0.0,0.0,0.0,0.0,0.0,0.0,0.0,0.0,0.0,0.0,0.0,0.0,0.0,0.0,0.0,0.0,0.0,0.0,0.0,0.0,0.0,0.0,0.0,0.0,0.0,0.0,0.0,0.0,0.0,0.0,0.0,0.0,0.0,0.0,0.0,0.0,0.0,0.0,0.0,0.0,0.0,0.0,0.0,0.0,0.0,0.0,0.0,0.0,0.0,0.0,0.0,0.0,0.0,0.0,0.0,0.0,0.0,0.0,0.0,0.0,0.0,0.0,0.0,0.0,0.0,0.0,0.0,0.0,0.0,0.0,0.0,0.0,0.0,0.0,0.0,0.0,0.0,0.0,0.0,0.0,0.0,0.0,0.0,0.0,0.0,0.8458,0.9684,0.9771,0.0,0.9801,0.0,0.0,0.0,0.0,0.0,0.0,0.0,0.0,0.0,0.0,0.0,0.0,0.0,0.0,0.0,0.0,0.0,0.0,0.0,0.0,0.0,0.0,0.0,0.0,0.0,0.0,0.0,0.0,0.0,0.0,0.0,0.0,0.0,0.0,0.0,0.0,0.0,0.0,0.0,0.0,0.0,0.0,0.0,0.0,0.0,0.0,0.0,0.0,0.0,0.0,0.0,0.0,0.0,0.0,0.0,0.0,0.0,0.0,0.0,0.0,0.0,0.0,0.0,0.0,0.0,0.0,0.0,0.0,0.0,0.0,0.0,0.0,0.0,0.0,0.0,0.0,0.0,0.0,0.0,0.0,0.0,0.0,0.0,0.0,0.0,0.0,0.0,0.0,0.0,0.0,0.0,0.0,0.0,0.0,0.0,0.0,0.0,0.0,0.0,0.0,0.0,0.0,0.0,0.0,0.0,0.0,0.0,0.0,0.0,0.0,0.9408,0.9948,0.997,0.9996,0.0,0.0,0.0,0.0,0.0,0.0,0.0,0.0,0.0,0.0,0.0,0.0,0.0,0.0,0.0,0.0,0.0,0.0,0.0,0.0,0.0,0.0,0.0,0.0,0.0,0.0,0.0,0.0,0.0,0.0,0.0,0.0,0.0,0.0,0.0,0.0,0.0,0.0,0.0,0.0,0.0,0.0,0.0,0.0,0.0,0.0,0.0,0.0,0.0,0.0,0.0,0.0,0.0,0.0,0.0,0.0,0.0,0.0,0.0,0.0,0.0,0.0,0.0,0.0,0.0,0.0,0.0,0.0,0.0,0.0,0.0,0.0,0.0,0.0,0.0,0.0,0.0,0.0,0.0,0.0,0.0,0.0,0.0,0.0,0.0,0.0,0.0,0.0,0.0,0.0,0.0,0.0,0.0,0.0,0.0,0.0,0.0,0.0,0.0,0.0,0.0,0.0,0.0,0.0,0.0,0.0,0.0,0.0,0.0,0.0,0.9675,1.0183,1.0557,1.0615,1.0423,1.0049,0.0,0.0,0.0,0.0,0.0,0.0,0.0,0.0,0.0,0.0,0.0,0.0,0.0,0.0,0.0,0.0,0.0,0.0,0.0,0.0,0.0,0.0,0.0,0.0,0.0,0.0,0.0,0.0,0.0,0.0,0.0,0.0,0.0,0.0,0.0,0.0,0.0,0.0,0.0,0.0,0.0,0.0,0.0,0.0,0.0,0.0,0.0,0.0,0.0,0.0,0.0,0.0,0.0,0.0,0.0,0.0,0.0,0.0,0.0,0.0,0.0,0.0,0.0,0.0,0.0,0.0,0.0,0.0,0.0,0.0,0.0,0.0,0.0,0.0,0.0,0.0,0.0,0.0,0.0,0.0,0.0,0.0,0.0,0.0,0.0,0.0,0.0,0.0,0.0,0.0,0.0,0.0,0.0,0.0,0.0,0.0,0.0,0.0,0.0,0.0,0.0,0.0,0.0,0.0,0.0,0.0,0.0,0.0,0.0,1.0583,1.0653,1.1958,1.2077,1.1486,0.0,0.0,0.0,0.0,0.0,0.0,0.0,0.0,0.0,0.0,0.0,0.0,0.0,0.0,0.0,0.0,0.0,0.0,0.0,0.0,0.0,0.0,0.0,0.0,0.0,0.0,0.0,0.0,0.0,0.0,0.0,0.0,0.0,0.0,0.0,0.0,0.0,0.0,0.0,0.0,0.0,0.0,0.0,0.0,0.0,0.0,0.0,0.0,0.0,0.0,0.0,0.0,0.0,0.0,0.0,0.0,0.0,0.0,0.0,0.0,0.0,0.0,0.0,0.0,0.0,0.0,0.0,0.0,0.0,0.0,0.0,0.0,0.0,0.0,0.0,0.0,0.0,0.0,0.0,0.0,0.0,0.0,0.0,0.0,0.0,0.0,0.0,0.0,0.0,0.0,0.0,0.0,0.0,0.0,0.0,0.0,0.0,0.0,0.0,0.0,0.0,0.0,0.0,0.0,0.0,0.0,0.0,0.0,0.0,0.9454,0.9874,1.1147,1.3269,1.1784,1.1029,0.0,0.0,0.0,0.0,0.0,0.0,0.0,0.0,0.0,0.0,0.0,0.0,0.0,0.0,0.0,0.0,0.0,0.0,0.0,0.0,0.0,0.0,0.0,0.0,0.0,0.0,0.0,0.0,0.0,0.0,0.0,0.0,0.0,0.0,0.0,0.0,0.0,0.0,0.0,0.0,0.0,0.0,0.0,0.0,0.0,0.0,0.0,0.0,0.0,0.0,0.0,0.0,0.0,0.0,0.0,0.0,0.0,0.0,0.0,0.0,0.0,0.0,0.0,0.0,0.0,0.0,0.0,0.0,0.0,0.0,0.0,0.0,0.0,0.0,0.0,0.0,0.0,0.0,0.0,0.0,0.0,0.0,0.0,0.0,0.0,0.0,0.0,0.0,0.0,0.0,0.0,0.0,0.0,0.0,0.0,0.0,0.0,0.0,0.0,0.0,0.0,0.0,0.0,0.0,0.0,0.0,0.0,0.0,0.0,0.9426,0.0,1.2133,0.0,1.1769,1.0814,0.0,0.0,0.0,0.0,0.0,0.0,0.0,0.0,0.0,0.0,0.0,0.0,0.0,0.0,0.0,0.0,0.0,0.0,0.0,0.0,0.0,0.0,0.0,0.0,0.0,0.0,0.0,0.0,0.0,0.0,0.0,0.0,0.0,0.0,0.0,0.0,0.0,0.0,0.0,0.0,0.0,0.0,0.0,0.0,0.0,0.0,0.0,0.0,0.0,0.0,0.0,0.0,0.0,0.0,0.0,0.0,0.0,0.0,0.0,0.0,0.0,0.0,0.0,0.0,0.0,0.0,0.0,0.0,0.0,0.0,0.0,0.0,0.0,0.0,0.0,0.0,0.0,0.0,0.0,0.0,0.0,0.0,0.0,0.0,0.0,0.0,0.0,0.0,0.0,0.0,0.0,0.0,0.0,0.0,0.0,0.0,0.0,0.0,0.0,0.0,0.0,0.0,0.0,0.0,0.0,0.0,0.0,0.0,0.947,1.202,1.3334,1.3396,1.2292,1.2118,1.0884,0.0,0.0,0.0,0.0,0.0,0.0,0.0,0.0,0.0,0.0,0.0,0.0,0.0,0.0,0.0,0.0,0.0,0.0,0.0,0.0,0.0,0.0,0.0,0.0,0.0,0.0,0.0,0.0,0.0,0.0,0.0,0.0,0.0,0.0,0.0,0.0,0.0,0.0,0.0,0.0,0.0,0.0,0.0,0.0,0.0,0.0,0.0,0.0,0.0,0.0,0.0,0.0,0.0,0.0,0.0,0.0,0.0,0.0,0.0,0.0,0.0,0.0,0.0,0.0,0.0,0.0,0.0,0.0,0.0,0.0,0.0,0.0,0.0,0.0,0.0,0.0,0.0,0.0,0.0,0.0,0.0,0.0,0.0,0.0,0.0,0.0,0.0,0.0,0.0,0.0,0.0,0.0,0.0,0.0,0.0,0.0,0.0,0.0,0.0,0.0,0.0,0.0,0.0,0.0,0.0,0.0,0.0,0.0,0.0,1.0774,1.163,1.2607,1.3599,1.1323,1.0373,0.0,0.0,0.0,0.0,0.0,0.0,0.0,0.0,0.0,0.0,0.0,0.0,0.0,0.0,0.0,0.0,0.0,0.0,0.0,0.0,0.0,0.0,0.0,0.0,0.0,0.0,0.0,0.0,0.0,0.0,0.0,0.0,0.0,0.0,0.0,0.0,0.0,0.0,0.0,0.0,0.0,0.0,0.0,0.0,0.0,0.0,0.0,0.0,0.0,0.0,0.0,0.0,0.0,0.0,0.0,0.0,0.0,0.0,0.0,0.0,0.0,0.0,0.0,0.0,0.0,0.0,0.0,0.0,0.0,0.0,0.0,0.0,0.0,0.0,0.0,0.0,0.0,0.0,0.0,0.0,0.0,0.0,0.0,0.0,0.0,0.0,0.0,0.0,0.0,0.0,0.0,0.0,0.0,0.0,0.0,0.0,0.0,0.0,0.0,0.0,0.0,0.0,0.0,0.0,0.0,0.0,0.0,0.0,0.0,1.2519,1.3303,1.4171,1.5112,1.2685,1.1347,1.126,0.0,0.0,0.0,0.0,0.0,0.0,0.0,0.0,0.0,0.0,0.0,0.0,0.0,0.0,0.0,0.0,0.0,0.0,0.0,0.0,0.0,0.0,0.0,0.0,0.0,0.0,0.0,0.0,0.0,0.0,0.0,0.0,0.0,0.0,0.0,0.0,0.0,0.0,0.0,0.0,0.0,0.0,0.0,0.0,0.0,0.0,0.0,0.0,0.0,0.0,0.0,0.0,0.0,0.0,0.0,0.0,0.0,0.0,0.0,0.0,0.0,0.0,0.0,0.0,0.0,0.0,0.0,0.0,0.0,0.0,0.0,0.0,0.0,0.0,0.0,0.0,0.0,0.0,0.0,0.0,0.0,0.0,0.0,0.0,0.0,0.0,0.0,0.0,0.0,0.0,0.0,0.0,0.0,0.0,0.0,0.0,0.0,0.0,0.0,0.0,0.0,0.0,0.0,0.0,0.0,0.0,0.0,0.0,1.6645,1.7922,1.7922,1.6683,1.5648,1.343,0.0,0.0,0.0,0.0,0.0,0.0,0.0,0.0,0.0,0.0,0.0,0.0,0.0,0.0,0.0,0.0,0.0,0.0,0.0,0.0,0.0,0.0,0.0,0.0,0.0,0.0,0.0,0.0,0.0,0.0,0.0,0.0,0.0,0.0,0.0,0.0,0.0,0.0,0.0,0.0,0.0,0.0,0.0,0.0,0.0,0.0,0.0,0.0,0.0,0.0,0.0,0.0,0.0,0.0,0.0,0.0,0.0,0.0,0.0,0.0,0.0,0.0,0.0,0.0,0.0,0.0,0.0,0.0,0.0,0.0,0.0,0.0,0.0,0.0,0.0,0.0,0.0,0.0,0.0,0.0,0.0,0.0,0.0,0.0,0.0,0.0,0.0,0.0,0.0,0.0,0.0,0.0,0.0,0.0,0.0,0.0,0.0,0.0,0.0,0.0,0.0,0.0,0.0,0.0,0.0,0.0,0.0,0.0,0.0,2.0014,2.1992,2.1918,1.9617,1.6475,1.4145,0.0,0.0,0.0,0.0,0.0,0.0,0.0,0.0,0.0,0.0,0.0,0.0,0.0,0.0,0.0,0.0,0.0,0.0,0.0,0.0,0.0,0.0,0.0,0.0,0.0,0.0,0.0,0.0,0.0,0.0,0.0,0.0,0.0,0.0,0.0,0.0,0.0,0.0,0.0,0.0,0.0,0.0,0.0,0.0,0.0,0.0,0.0,0.0,0.0,0.0,0.0,0.0,0.0,0.0,0.0,0.0,0.0,0.0,0.0,0.0,0.0,0.0,0.0,0.0,0.0,0.0,0.0,0.0,0.0,0.0,0.0,0.0,0.0,0.0,0.0,0.0,0.0,0.0,0.0,0.0,0.0,0.0,0.0,0.0,0.0,0.0,0.0,0.0,0.0,0.0,0.0,0.0,0.0,0.0,0.0,0.0,0.0,0.0,0.0,0.0,0.0,0.0,0.0,0.0,0.0,0.0,0.0,0.0,1.8713,2.1609,2.4654,2.5375,2.3541,1.9789,1.6499,0.0,0.0,0.0,0.0,0.0,0.0,0.0,0.0,0.0,0.0,0.0,0.0,0.0,0.0,0.0,0.0,0.0,0.0,0.0,0.0,0.0,0.0,0.0,0.0,0.0,0.0,0.0,0.0,0.0,0.0,0.0,0.0,0.0,0.0,0.0,0.0,0.0,0.0,0.0,0.0,0.0,0.0,0.0,0.0,0.0,0.0,0.0,0.0,0.0,0.0,0.0,0.0,0.0,0.0,0.0,0.0,0.0,0.0,0.0,0.0,0.0,0.0,0.0,0.0,0.0,0.0,0.0,0.0,0.0,0.0,0.0,0.0,0.0,0.0,0.0,0.0,0.0,0.0,0.0,0.0,0.0,0.0,0.0,0.0,0.0,0.0,0.0,0.0,0.0,0.0,0.0,0.0,0.0,0.0,0.0,0.0,0.0,0.0,0.0,0.0,0.0,0.0,0.0,0.0,0.0,0.0,0.0,0.0,2.0751,2.2336,2.6294,2.8052,2.7316,2.3792,1.9491,0.0,0.0,0.0,0.0,0.0,0.0,0.0,0.0,0.0,0.0,0.0,0.0,0.0,0.0,0.0,0.0,0.0,0.0,0.0,0.0,0.0,0.0,0.0,0.0,0.0,0.0,0.0,0.0,0.0,0.0,0.0,0.0,0.0,0.0,0.0,0.0,0.0,0.0,0.0,0.0,0.0,0.0,0.0,0.0,0.0,0.0,0.0,0.0,0.0,0.0,0.0,0.0,0.0,0.0,0.0,0.0,0.0,0.0,0.0,0.0,0.0,0.0,0.0,0.0,0.0,0.0,0.0,0.0,0.0,0.0,0.0,0.0,0.0,0.0,0.0,0.0,0.0,0.0,0.0,0.0,0.0,0.0,0.0,0.0,0.0,0.0,0.0,0.0,0.0,0.0,0.0,0.0,0.0,0.0,0.0,0.0,0.0,0.0,0.0,0.0,0.0,0.0,0.0,0.0,0.0,0.0,0.0,0.0,2.1986,2.449,2.7071,2.8084,2.7412,2.3521,2.0101,0.0,0.0,0.0,0.0,0.0,0.0,0.0,0.0,0.0,0.0,0.0,0.0,0.0,0.0,0.0,0.0,0.0,0.0,0.0,0.0,0.0,0.0,0.0,0.0,0.0,0.0,0.0,0.0,0.0,0.0,0.0,0.0,0.0,0.0,0.0,0.0,0.0,0.0,0.0,0.0,0.0,0.0,0.0,0.0,0.0,0.0,0.0,0.0,1.0218,0.0,0.0,0.0,0.0,0.0,0.0,0.0,0.0,0.0,0.0,0.0,0.0,0.0,0.0,0.0,0.0,0.0,0.0,0.0,0.0,0.0,0.0,0.0,0.0,0.0,0.0,0.0,0.0,0.0,0.0,0.0,0.0,0.0,0.0,0.0,0.0,0.0,0.0,0.0,0.0,0.0,0.0,0.0,0.0,0.0,0.0,0.0,0.0,0.0,0.0,0.0,0.0,0.0,0.0,0.0,0.0,0.0,0.0,0.0,2.3039,2.5844,2.7997,2.878,2.7965,2.4664,2.1543,0.0,0.0,0.0,0.0,0.0,0.0,0.0,0.0,0.0,0.0,0.0,0.0,0.0,0.0,0.0,0.0,0.0,0.0,0.0,0.0,0.0,0.0,0.0,0.0,0.0,0.0,0.0,0.0,0.0,0.0,0.0,0.0,0.0,0.0,0.0,0.0,0.0,0.0,0.0,0.0,0.0,0.0,0.0,0.0,0.0,0.0,0.0,0.0,0.0,0.0,0.0,0.0,0.0,0.0,0.0,0.0,0.0,0.0,0.0,0.0,0.0,0.0,0.0,0.0,0.0,0.0,0.0,0.0,0.0,0.0,0.0,0.0,0.0,0.0,0.0,0.0,0.0,0.0,0.0,0.0,0.0,0.0,0.0,0.0,0.0,0.0,0.0,0.0,0.0,0.0,0.0,0.0,0.0,0.0,0.0,0.0,0.0,0.0,0.0,0.0,0.0,0.0,0.0,0.0,0.0,0.0,0.0,2.0507,2.3973,2.7083,2.8876,2.9426,2.8768,2.5974,2.2899,1.957,0.0,0.0,0.0,0.0,0.0,0.0,0.0,0.0,0.0,0.0,0.0,0.0,0.0,0.0,0.0,0.0,0.0,0.0,0.0,0.0,0.0,0.0,0.0,0.0,0.0,0.0,0.0,0.0,0.0,0.0,0.0,0.0,0.0,0.0,0.0,0.0,0.0,0.0,0.9898,1.0991,0.0,0.0,0.0,0.0,0.0,0.0,0.0,0.0,1.1109,0.0,0.0,0.0,0.0,0.0,0.0,0.0,0.0,0.0,0.0,0.0,0.0,0.0,0.0,0.0,0.0,0.0,0.0,0.0,0.0,0.0,0.0,0.0,0.0,0.0,0.0,0.0,0.0,0.0,0.0,0.0,0.0,0.0,0.0,0.0,0.0,0.0,0.0,0.0,0.0,0.0,0.0,0.0,0.0,0.0,0.0,0.0,0.0,0.0,0.0,0.0,0.0,0.0,0.0,0.0,0.0,2.0415,2.1754,2.4653,2.9243,2.9135,2.893,2.8703,2.5519,2.2655,2.0225,0.0,0.0,0.0,0.0,0.0,0.0,0.0,0.0,0.0,0.0,0.0,0.0,0.0,0.0,0.0,0.0,0.0,0.0,0.0,0.0,0.0,0.0,0.0,0.0,0.0,0.0,0.0,0.0,0.0,0.0,0.0,0.0,0.0,0.0,0.0,0.0,0.0,0.0,0.0,1.332,1.4071,0.0,0.0,0.0,0.0,0.0,0.0,0.0,0.0,1.1698,0.0,0.0,0.0,0.0,0.0,0.0,0.0,0.0,0.0,0.0,0.0,0.0,0.0,0.0,0.0,0.0,0.0,0.0,0.0,0.0,0.0,0.0,0.0,0.0,0.0,0.0,0.0,0.0,0.0,0.0,0.0,0.0,0.0,0.0,0.0,0.0,0.0,0.0,0.0,0.0,0.0,0.0,0.0,0.0,0.0,0.0,0.0,0.0,0.0,0.0,0.0,0.0,0.0,0.0,0.0,2.0607,2.2564,2.5561,2.9729,2.9556,2.9005,2.8174,2.5241,2.2451,0.0,0.0,0.0,0.0,0.0,0.0,0.0,0.0,0.0,0.0,0.0,0.0,0.0,0.0,0.0,0.0,0.0,0.0,0.0,0.0,0.0,0.0,0.0,0.0,0.0,0.0,0.0,0.0,0.0,0.0,0.0,0.0,0.0,0.0,0.0,0.0,0.0,0.0,0.0,0.0,1.435,1.5169,1.5474,0.0,0.0,0.0,0.0,0.0,0.0,1.3181,1.2468,0.0,0.0,0.0,0.0,0.0,0.0,0.0,0.0,0.0,0.0,0.0,0.0,0.0,0.0,0.0,0.0,0.0,0.0,0.0,0.0,0.0,0.0,0.0,0.0,0.0,0.0,0.0,0.0,0.0,0.0,0.0,0.0,0.0,0.0,0.0,0.0,0.0,0.0,0.0,0.0,0.0,0.0,0.0,0.0,0.0,0.0,0.0,0.0,0.0,0.0,0.0,0.0,0.0,0.0,0.0,2.0231,2.2954,2.615,2.9718,2.9783,2.907,2.7749,2.4978,2.218,0.0,0.0,0.0,0.0,0.0,0.0,0.0,0.0,0.0,0.0,0.0,0.0,0.0,0.0,0.0,0.0,0.0,0.0,0.0,0.0,0.0,0.0,0.0,0.0,0.0,0.0,0.0,0.0,0.0,0.0,0.0,0.0,0.0,0.0,0.0,0.0,0.0,0.0,0.0,0.0,0.0,1.6111,1.6372,1.597,0.0,0.0,0.0,0.0,1.5212,1.4437,0.0,0.0,0.0,0.0,0.0,0.0,0.0,0.0,0.0,0.0,0.0,0.0,0.0,0.0,0.0,0.0,0.0,0.0,0.0,0.0,0.0,0.0,0.0,0.0,0.0,0.0,0.0,0.0,0.0,0.0,0.0,0.0,0.0,0.0,0.0,0.0,0.0,0.0,0.0,0.0,0.0,0.0,0.0,0.0,0.0,0.0,0.0,0.0,0.0,0.0,0.0,0.0,0.0,0.0,0.0,0.0,2.0261,2.2565,2.5756,2.9707,2.9339,2.8675,2.7961,2.4621,2.1774,0.0,0.0,0.0,0.0,0.0,0.0,0.0,0.0,0.0,0.0,0.0,0.0,0.0,0.0,0.0,0.0,0.0,0.0,0.0,0.0,0.0,0.0,0.0,0.0,0.0,0.0,0.0,0.0,0.0,0.0,0.0,0.0,0.0,0.0,0.0,0.0,0.0,0.0,0.0,0.0,0.0,1.7434,1.6519,1.6336,1.6049,0.0,0.0,1.6477,1.7539,1.712,0.0,0.0,0.0,0.0,0.0,0.0,0.0,0.0,0.0,0.0,0.0,0.0,0.0,0.0,0.0,0.0,0.0,0.0,0.0,0.0,0.0,0.0,0.0,0.0,0.0,0.0,0.0,0.0,0.0,0.0,0.0,0.0,0.0,0.0,0.0,0.0,0.0,0.0,0.0,0.0,0.0,0.0,0.0,0.0,0.0,0.0,0.0,0.0,0.0,0.0,0.0,0.0,0.0,0.0,0.0,1.6775,2.0471,2.3824,2.6839,2.9368,2.9172,2.8702,2.8,2.4146,2.1074,0.0,0.0,0.0,0.0,0.0,0.0,0.0,0.0,0.0,0.0,0.0,0.0,0.0,0.0,0.0,0.0,0.0,0.0,0.0,0.0,0.0,0.0,0.0,0.0,0.0,0.0,0.0,0.0,0.0,0.0,0.0,0.0,0.0,0.0,0.0,0.0,0.0,0.0,0.0,0.0,0.0,0.0,1.78,1.78,0.0,0.0,0.0,1.7763,1.7628,0.0,0.0,0.0,0.0,0.0,0.0,0.0,0.0,0.0,0.0,0.0,0.0,0.0,0.0,0.0,0.0,0.0,0.0,0.0,0.0,0.0,0.0,0.0,0.0,0.0,0.0,0.0,0.0,0.0,0.0,0.0,0.0,0.0,0.0,0.0,0.0,0.0,0.0,0.0,0.0,0.0,0.0,0.0,0.0,0.0,0.0,0.0,0.0,0.0,0.0,0.0,0.0,0.0,0.0,0.0,0.0,0.0,2.0605,2.4846,2.7732,2.91,2.8968,2.8618,2.8056,2.4099,0.0,0.0,0.0,0.0,0.0,0.0,0.0,0.0,0.0,0.0,0.0,0.0,0.0,0.0,0.0,0.0,0.0,0.0,0.0,0.0,0.0,0.0,0.0,0.0,0.0,0.0,0.0,0.7583,0.0,0.0,0.0,0.0,0.0,0.0,0.0,0.0,0.0,0.0,0.0,0.0,0.0,0.0,1.7565,1.8558,1.8819,1.8924,0.0,0.0,1.8976,1.8569,1.9223,1.8729,0.0,0.0,0.0,0.0,0.0,0.0,0.0,0.0,0.0,0.0,0.0,0.0,0.0,0.0,0.0,0.0,0.0,0.0,0.0,0.0,0.0,0.0,0.0,0.0,0.0,0.0,0.0,0.0,0.0,0.0,0.0,0.0,0.0,0.0,0.0,0.0,0.0,0.0,0.0,0.0,0.0,0.0,0.0,0.0,0.0,0.0,0.0,0.0,0.0,0.0,0.0,0.0,0.0,0.0,0.0,2.0638,2.4889,2.7819,2.9192,2.8599,2.8306,2.8323,2.4813,2.1553,0.0,0.0,0.0,0.0,0.0,0.0,0.0,0.0,0.0,0.0,0.0,0.0,0.0,0.0,0.0,0.0,0.0,0.0,0.0,0.0,0.0,0.0,0.0,0.0,0.0,0.0,0.0,0.0,0.0,0.0,0.0,0.0,0.0,0.0,0.0,0.0,0.0,0.0,0.0,0.0,0.0,1.7434,1.8061,1.8584,1.9473,0.0,0.0,2.0257,2.1812,2.2074,2.0988,1.7565,0.0,0.0,0.0,0.0,0.0,0.0,0.0,0.0,0.0,0.0,0.0,0.0,0.0,0.0,0.0,0.0,0.0,0.0,0.0,0.0,0.0,0.0,0.0,0.0,0.0,0.0,0.0,0.0,0.0,0.0,0.0,0.0,0.0,0.0,0.0,0.0,0.0,0.0,0.0,0.0,0.0,0.0,0.0,0.0,0.0,0.0,0.0,0.0,0.0,0.0,0.0,0.0,0.0,1.8416,2.0865,2.5621,2.8529,2.939,2.875,2.8395,2.8476,2.493,2.1671,0.0,0.0,0.0,0.0,0.0,0.0,0.0,0.0,0.0,0.0,0.0,0.0,0.0,0.0,0.0,0.0,0.0,0.0,0.0,0.0,0.0,0.0,0.0,0.0,0.0,0.0,0.0,0.0,0.9653,0.9697,0.8848,0.0,0.0,0.0,0.0,0.0,0.0,0.0,0.0,0.0,0.0,1.8218,1.9522,2.0164,0.0,0.0,2.1459,2.125,2.0871,2.1394,2.0688,1.7251,1.6403,0.0,0.0,0.0,0.0,0.0,0.0,0.0,0.0,0.0,0.0,0.0,0.0,0.0,0.0,0.0,0.0,0.0,0.0,0.0,0.0,0.0,0.0,0.0,0.0,0.0,0.0,0.0,0.0,0.0,0.0,0.0,0.0,0.0,0.0,0.0,0.0,0.0,0.0,0.0,0.0,0.0,0.0,0.0,0.0,0.0,0.0,0.0,0.0,0.0,0.0,0.0,0.0,1.8875,2.0907,2.5914,2.87,2.9096,2.8495,2.8196,2.8139,2.5105,2.2151,0.0,0.0,0.0,0.0,0.0,0.0,0.0,0.0,0.0,0.0,0.0,0.0,0.0,0.0,0.0,0.0,0.0,0.0,0.0,0.0,0.0,0.0,0.0,0.0,0.0,0.0,0.0,0.0,1.0306,1.0105,0.9017,0.0,0.0,0.0,0.0,0.0,0.0,0.0,0.0,0.0,0.0,1.8857,2.0241,2.0766,2.1054,2.1237,2.1289,2.0976,1.9957,2.0623,2.0205,1.7131,0.0,0.0,0.0,0.0,0.0,0.0,0.0,0.0,0.0,0.0,0.0,0.0,0.0,0.0,0.0,0.0,0.0,0.0,0.0,0.0,0.0,0.0,0.0,0.0,0.0,0.0,0.0,0.0,0.0,0.0,0.0,0.0,0.0,0.0,0.0,0.0,0.0,0.0,0.0,0.0,0.0,0.0,0.0,0.0,0.0,0.0,0.0,0.0,0.0,0.0,0.0,0.0,0.0,1.9012,2.0753,2.5571,2.8084,2.8066,2.7718,2.7563,2.7496,2.5472,2.3276,2.0962,0.0,0.0,0.0,0.0,0.0,0.0,0.0,0.0,0.0,0.0,0.0,0.0,0.0,0.0,0.0,0.0,0.0,0.0,0.0,0.0,0.0,0.0,0.0,0.0,0.0,0.0,0.936,0.9355,0.9119,0.0,0.0,0.0,0.0,0.0,0.0,0.0,0.0,0.0,0.0,1.7423,1.9107,1.9734,1.9827,2.0138,2.0674,1.981,1.92,1.9734,2.0308,1.9927,0.0,0.0,0.0,0.0,0.0,0.0,0.0,0.0,0.0,0.0,0.0,0.0,0.0,0.0,0.0,0.0,0.0,0.0,0.0,0.0,0.0,0.0,0.0,0.0,0.0,0.0,0.0,1.3932,1.3375,0.0,0.0,0.0,0.0,0.0,0.0,0.0,0.0,0.0,0.0,0.0,1.9574,2.0631,0.0,0.0,0.0,0.0,0.0,0.0,0.0,0.0,0.0,0.0,0.0,0.0,1.9487,2.1661,2.6248,2.8847,2.9163,2.8433,2.799,2.7955,2.6125,2.3673,2.0566,0.0,0.0,0.0,0.0,0.0,0.0,0.0,0.0,0.0,0.0,0.0,0.0,0.0,0.0,0.0,0.0,0.0,0.0,0.0,0.0,0.0,0.0,0.0,0.0,0.0,0.9542,0.0,0.0,0.0,0.0,0.0,0.0,0.0,0.0,0.0,0.0,0.0,1.5274,1.6711,1.805,1.9121,1.9708,2.0138,2.0739,0.0,0.0,0.0,0.0,0.0,0.0,0.0,0.0,0.0,0.0,0.0,0.0,0.0,0.0,1.6572,1.423,1.3786,1.3935,1.4384,0.0,0.0,0.0,0.0,0.0,0.0,0.0,0.0,0.0,0.0,0.0,0.0,0.0,0.0,0.0,0.0,1.6024,0.0,0.0,0.0,0.0,0.0,0.0,0.0,0.0,2.128,2.2833,2.3127,2.4154,2.4018,0.0,2.2427,1.9966,0.0,0.0,0.0,0.0,0.0,0.0,0.0,0.0,2.0233,2.2384,2.6579,2.8948,2.9238,2.8432,2.7977,2.7904,2.6447,2.4188,2.1097,1.8648,1.6546,0.0,0.0,0.0,0.0,0.0,0.0,0.0,0.0,0.0,0.0,0.0,0.0,0.0,0.0,0.0,0.0,0.0,0.0,0.0,0.0,0.0,0.0,0.0,1.0256,0.0,0.0,0.0,0.0,0.0,0.0,0.0,0.0,0.0,1.3682,1.5469,1.7213,1.8472,1.9368,1.9763,1.9368,0.0,0.0,0.0,0.0,0.0,0.0,0.0,1.8868,1.8476,1.8539,1.8933,1.9823,2.0193,2.0288,1.9949,0.0,0.0,1.6644,1.6216,1.6421,1.6762,1.6958,1.7228,1.7761,1.809,1.8237,0.0,0.0,0.0,0.0,0.0,0.0,0.0,0.0,2.0777,2.0735,0.0,1.9713,0.0,0.0,0.0,0.0,0.0,0.0,0.0,0.0,2.5743,2.7352,2.6609,2.6587,2.651,0.0,2.6463,2.5152,2.2644,1.9316,0.0,0.0,0.0,0.0,0.0,0.0,2.1303,2.3056,2.6583,2.8412,2.8321,2.7726,2.7419,2.7373,2.6419,2.4834,2.2692,2.1143,1.9298,1.7124,1.4833,0.0,0.0,0.0,0.0,0.0,0.0,0.0,0.0,0.0,0.0,0.0,0.0,0.0,0.0,0.0,0.0,0.0,0.0,0.0,0.0,1.1113,0.0,0.0,0.0,0.0,0.0,0.0,0.0,0.0,0.0,0.0,1.5651,1.7051,1.8724,2.0279,0.0,0.0,0.0,0.0,2.0098,1.8558,1.827,1.8323,1.8375,1.9679,2.0725,2.0713,0.0,0.0,2.2854,2.2147,2.1647,2.1622,2.206,2.187,2.0263,1.9472,1.9158,1.9196,1.9275,1.944,1.988,2.0549,2.1007,2.7265,0.0,0.0,0.0,0.0,2.3427,2.4736,2.6923,2.6856,2.6137,2.4995,2.4115,0.0,0.0,0.0,0.0,0.0,0.0,2.3672,2.4424,2.7388,2.8954,2.9341,3.0363,3.0838,3.0769,3.0102,2.944,2.8628,2.6439,2.2078,1.589,0.0,0.0,0.0,0.0,2.3214,2.4861,2.753,2.8779,2.8538,2.8072,2.7584,2.7136,2.6349,2.5426,2.4315,2.2834,2.1268,1.9589,1.728,0.0,0.0,0.0,0.0,0.0,0.0,0.0,0.0,0.0,0.0,0.0,0.0,0.0,0.0,0.0,0.0,0.0,0.0,0.0,1.0683,1.1665,1.1907,0.0,0.0,0.0,0.0,0.0,0.0,0.0,0.0,0.0,1.8874,1.8887,1.9,0.0,0.0,1.8658,1.8429,1.9351,2.0321,2.1079,0.0,0.0,0.0,2.1747,2.1407,2.1825,2.2918,2.3675,2.3588,2.3861,2.407,2.4054,2.4098,2.3913,2.3461,2.2569,2.2117,2.2458,2.258,2.2785,2.3265,2.3514,2.3558,3.2812,2.9295,2.6756,2.6482,2.7729,2.7708,2.8934,3.0984,3.0975,3.0353,2.9312,2.8463,2.6874,2.4702,2.3467,0.0,0.0,0.0,2.7158,2.8045,2.9554,3.0536,3.0991,3.1532,3.1732,3.1722,3.1062,3.096,3.1251,2.9534,2.6007,2.0864,0.0,0.0,1.9832,2.2704,2.4858,2.6149,2.8138,2.9067,2.8827,2.8435,2.7911,2.7384,2.6903,2.6197,2.5192,2.4267,2.2958,2.1214,1.9496,1.7443,0.0,0.0,0.0,0.0,0.0,0.0,0.0,0.0,0.0,0.0,0.0,1.0775,0.0,0.0,0.0,0.0,1.1112,1.1684,1.2256,1.2748,0.0,0.0,0.0,0.0,0.0,0.0,0.0,1.5491,1.7822,1.9833,2.1092,2.0973,2.0913,2.137,2.1007,2.058,2.0331,0.0,2.1957,2.2624,2.2701,2.3041,2.3928,2.3614,2.3484,2.4293,2.4851,2.5179,2.5153,2.556,2.5806,2.5691,2.5609,2.5526,2.5477,2.4908,2.4365,2.4356,2.4506,2.4757,2.5084,2.531,2.5344,3.7422,3.6992,3.2264,3.0702,3.1289,3.1166,3.2039,3.3483,3.3496,3.3425,3.3192,3.2462,3.1182,2.9523,2.8,0.0,0.0,3.0149,3.126,3.2,3.2054,3.2117,3.2068,3.1199,3.0757,3.0846,3.0609,3.0917,3.1618,2.995,2.8658,2.7752,2.6012,2.4606,2.3798,2.5172,2.6298,2.7089,2.8511,2.9169,2.9156,2.8731,2.8291,2.7918,2.7726,2.6901,2.5496,2.5349,2.4344,2.2218,2.1328,1.9873,1.769,0.0,0.0,0.0,0.0,0.0,0.0,0.0,0.0,0.0,0.0,0.0,0.0,0.0,0.0,0.0,1.3648,0.0,1.4897,1.4449,0.0,0.0,0.0,1.4799,1.6627,1.7894,1.8803,1.9189,0.0,0.0,0.0,0.0,2.4035,2.5132,2.5299,2.4819,2.347,2.393,2.4356,2.3579,2.3496,2.3771,2.4529,2.5219,2.608,2.6994,2.739,2.7135,2.6967,2.6925,2.6867,2.6561,2.6628,2.662,2.6508,2.6365,2.6214,2.515,2.5351,2.5695,2.572,2.6173,2.6551,3.8281,3.8203,3.6992,3.582,3.4726,3.4013,3.4317,3.5335,3.5305,3.4937,3.4314,3.4047,3.3322,3.2251,3.187,3.1732,3.1918,3.2361,3.2695,3.2932,3.3576,3.3841,3.3799,3.4127,3.4248,3.427,3.4014,3.4014,3.4136,3.2412,3.1122,3.028,2.8619,2.6685,2.4665,2.6079,2.7225,2.7993,2.8289,2.8593,2.8795,2.8367,2.8058,2.7975,2.7247,2.6451,2.5553,2.4907,2.4084,2.3059,2.2171,2.0942,1.922,1.6395,0.0,0.0,0.0,0.0,0.0,0.0,0.0,0.0,0.0,1.2192,0.9938,0.0,1.2931,0.0,1.4727,1.6728,1.7917,1.7815,0.0,0.0,1.7747,1.8046,1.9456,2.0656,2.137,2.1414,2.2855,2.405,2.4551,2.5392,2.6413,2.7593,2.5467,2.3769,2.3865,2.4468,2.4989,2.5212,2.5845,2.6514,2.6576,2.6889,2.715,2.7438,2.7456,2.7423,2.7399,2.7315,2.7146,2.6926,2.6892,2.6824,2.6568,2.6602,2.6595,2.6316,2.635,2.6443,2.6426,2.7019,2.7478,3.9725,3.9726,3.9336,3.8164,3.6562,3.6441,3.6671,3.7059,3.6699,3.6259,3.5734,3.5292,3.4818,3.4318,3.4316,3.4272,3.427,3.4299,3.4322,3.438,3.444,3.4469,3.4422,3.4425,3.4375,3.4421,3.4187,3.429,3.458,3.3197,3.2273,3.1817,3.046,2.8736,2.6647,2.7013,2.7457,2.781,2.803,2.8413,2.8959,2.8652,2.8113,2.7321,2.6689,2.5689,2.4242,2.3703,2.2952,2.188,2.1402,2.0463,1.8858,1.6508,1.4789,0.0,0.0,0.0,0.0,0.0,0.0,0.0,0.0,0.0,0.0,0.0,1.4831,0.0,0.0,0.0,1.9059,1.9515,2.0011,2.0575,2.0773,2.1356,2.2532,2.3489,2.4082,2.4241,2.5239,2.62,2.6913,2.7485,2.8119,2.8985,2.708,2.5724,2.6062,2.6413,2.6595,2.6604,2.7098,2.749,2.749,2.749,2.749,2.749,2.749,2.744,2.7332,2.7348,2.7298,2.696,2.6926,2.7063,2.7095,2.7094,2.7214,2.7625,2.7711,2.7565,2.7205,2.7656,2.802,4.1122,4.1132,4.0391,3.918,3.7851,3.8633,3.8513,3.7797,3.7103,3.6852,3.6902,3.6294,3.5969,3.5861,3.5861,3.5769,3.5694,3.5699,3.572,3.572,3.498,3.465,3.4616,3.3775,3.3359,3.3409,3.3224,3.3561,3.4308,3.3302,3.2725,3.2569,3.1526,3.0238,2.8756,2.7777,2.7273,2.7164,2.7802,2.8472,2.9143,2.8892,2.7982,2.6374,2.5949,2.4725,2.2516,2.2302,2.1611,2.0237,2.0204,1.9654,1.8337,1.6673,1.5726,0.0,1.4273,0.0,0.0,0.0,0.0,0.0,0.0,0.0,0.0,1.7368,1.735,1.7971,1.9756,2.0609,1.9967,2.0925,2.2022,2.3089,2.3677,2.438,2.5301,2.6014,2.6579,2.6944,2.752,2.8251,2.8927,2.9167,2.9302,2.9479,2.8919,2.8327,2.8492,2.8336,2.8011,2.7573,2.749,2.749,2.749,2.749,2.749,2.749,2.749,2.7425,2.7275,2.7461,2.7495,2.7131,2.7267,2.7498,2.7917,2.7846,2.8052,2.8729,2.8902,2.87,2.804,2.8216,2.8464,4.1112,4.1119,4.1014,4.0742,4.0469,4.0625,3.8281,3.4335,3.4218,3.4866,3.6114,3.7353,3.743,3.6715,3.6668,3.6328,3.5723,3.5723,3.5689,3.5697,3.5542,3.5498,3.5452,3.5284,3.5198,3.5195,3.5058,3.5088,3.521,3.4182,3.3297,3.2572,3.0956,2.9665,0.0,0.0,0.0,0.0,2.7885,2.8386,2.844,2.75,2.6555,2.561,2.4661,0.0,2.245,2.1816,2.134,2.0927,2.0891,0.0,0.0,0.0,0.0,0.0,0.0,0.0,0.0,0.0,0.0,0.0,1.8228,1.8033,1.7973,1.8677,1.961,2.0743,2.2095,2.3275,2.4051,2.4764,2.5266,2.5409,2.5878,2.6249,2.6374,2.7149,2.7777,2.7855,2.8564,2.9131,2.9332,2.9538,2.9682,2.9703,2.9322,2.8938,2.8633,2.8145,2.7673,2.7506,2.7594,2.7542,2.749,2.7542,2.762,2.749,2.749,2.7682,2.8039,2.8178,2.8291,2.8251,2.86,2.8671,2.8408,2.8515,2.8763,2.8956,2.9243,2.9233,2.8641,2.9057,2.9362,4.1091,0.0,4.117,4.0703,0.0,0.0,3.793,3.4766,3.6055,3.6789,3.7173,3.8072,3.8127,3.7538,3.6721,3.611,3.5626,3.4389,3.4234,3.5049,3.4621,3.4889,3.5706,3.5706,3.5706,3.5704,3.5623,3.5602,3.559,3.4986,3.422,3.3352,3.2354,3.145,3.0545,3.0132,2.9381,2.8301,2.826,2.8628,2.9351,2.8397,2.7238,2.6029,0.0,0.0,0.0,0.0,0.0,0.0,0.0,0.0,0.0,0.0,0.0,2.1059,2.0332,1.9907,2.0012,2.0681,2.123,2.1593,2.1895,2.1479,2.0133,2.1843,2.316,2.3647,2.4592,2.5341,2.5786,2.637,2.6653,2.6556,2.7273,2.7728,2.7616,2.8139,2.8689,2.8959,2.926,2.9579,2.9823,2.9884,2.9901,2.9806,2.9493,2.9203,2.8991,2.8545,2.824,2.8368,2.8386,2.8386,2.8386,2.8386,2.8369,2.8412,2.8369,2.8482,2.8647,2.8795,2.8864,2.8858,2.8972,2.8988,2.9261,2.9277,2.939,2.9858,3.0032,2.9994,2.9611,2.9772,2.9839,4.1022,4.1103,4.1169,4.0391,3.9062,3.9062,3.8242,3.7031,0.0,0.0,0.0,3.8806,3.88,3.8436,3.7076,3.6359,3.5977,3.3922,3.3731,3.501,3.4347,3.4695,3.5897,3.59,3.582,3.5706,3.5706,3.5706,3.5701,3.5569,3.5077,3.4297,3.4016,3.335,3.2426,3.2375,3.1693,3.0307,2.9189,2.9277,3.0533,2.9502,2.8201,2.6649,2.6209,2.5316,2.3844,2.3723,2.3361,2.2718,2.2631,2.2353,2.1851,2.181,2.2146,2.2811,2.3025,2.3308,2.3719,2.3846,2.4088,2.4618,2.5061,2.4589,2.2939,2.4927,2.6164,2.5958,2.6605,2.6869,2.661,2.7068,2.7398,2.7352,2.8253,2.8763,2.8638,2.9028,2.9481,2.9854,2.9857,2.9928,3.024,3.0302,3.0177,3.0001,2.9845,2.9659,2.9578,2.923,2.8967,2.9136,2.9135,2.924,2.9266,2.924,2.9292,2.9188,2.924,2.9265,2.9236,2.9316,2.9386,2.9406,2.9184,2.9453,2.9962,2.9899,3.0024,3.0782,3.0729,3.0546,3.0406,3.0196,2.9985,4.0998,4.1016,4.1165,4.1055,4.0859,4.082,4.0703,4.0351,3.9297,3.8668,3.8608,4.0054,4.0242,3.9399,3.9168,3.8644,3.7831,3.748,3.7439,0.0,3.7558,3.7209,3.6748,3.6709,3.6361,3.5745,3.5706,3.5706,3.5695,3.5509,3.5252,3.4897,3.4119,3.3255,3.2397,3.2322,3.2539,3.291,3.1403,3.0621,3.066,2.8893,2.7495,2.6602,2.5545,2.4537,2.3696,2.3654,2.3519,2.3385,2.3344,2.3594,2.4165,2.4195,2.4498,2.512,2.5793,2.6002,2.5564,2.5844,2.6156,2.64,2.621,2.5916,2.5674,2.5767,2.6062,2.6529,2.7094,2.7392,2.7284,2.7834,2.8339,2.8665,2.8875,2.9091,2.9398,2.9834,3.0125,3.013,3.0412,3.0511,3.0414,3.0646,3.0788,3.0683,3.0631,3.0631,3.0395,2.9795,2.9328,2.9284,2.9292,2.9292,2.9423,2.9318,2.9397,2.9292,2.9371,2.9562,2.99,2.9952,3.009,3.0373,3.0429,3.0481,3.0441,3.0474,3.0531,3.0755,3.0508,3.0273,3.0349,3.0107,2.9862,4.0992,4.1007,4.1164,4.1211,4.1211,4.1211,4.1211,4.1133,4.0351,3.9999,4.0034,4.0815,4.0864,4.0289,3.9355,3.8659,3.8135,3.6748,3.6629,3.7442,3.7058,3.6856,3.688,3.688,3.6455,3.5684,3.5643,3.5646,3.564,3.5549,3.5367,3.5073,3.4467,3.3994,3.3571,3.3571,3.3696,3.3966,3.2408,3.1724,3.2008,3.0665,2.9538,2.8676,2.7899,2.7139,2.6411,2.623,2.6132,2.6107,2.6063,2.6216,2.6573,2.655,2.6626,2.6913,2.7148,2.7015,2.6473,2.6724,2.7044,2.7339,2.722,2.7141,2.7253,2.7125,2.7121,2.7355,2.7798,2.8192,2.8454,2.8769,2.913,2.949,2.9871,3.0085,3.0101,3.046,3.0688,3.066,3.0646,3.0728,3.0847,3.0961,3.1101,3.1237,3.1355,3.1322,3.1208,3.0847,3.0463,3.0288,3.0234,3.0234,3.0208,3.0215,3.0208,3.0208,3.0234,3.0338,3.0555,3.0581,3.0675,3.0809,3.0868,3.083,3.0691,3.0717,3.0717,3.0679,3.0489,3.0311,3.0216,2.9991,2.9818,4.1427,4.128,4.1401,4.1367,4.1171,4.1171,4.1171,4.1171,4.1172,4.1171,4.1171,4.1211,4.1121,4.0864,3.9619,3.8923,3.8551,3.6756,3.6585,3.7638,3.7129,3.7073,3.7397,3.7278,3.6731,3.5917,3.5688,3.5614,3.5614,3.5567,3.542,3.5043,3.4735,3.455,3.455,3.4577,3.4545,3.4386,3.3275,3.2921,3.3368,3.2504,3.163,3.0917,3.0379,2.9823,2.913,2.8746,2.8559,2.8559,2.8312,2.8264,2.8379,2.8316,2.8308,2.8369,2.8243,2.7952,2.7426,2.7514,2.7821,2.8329,2.8237,2.83,2.8586,2.8438,2.8225,2.8138,2.8501,2.8953,2.9273,2.95,2.9766,3.0171,3.062,3.083,3.0775,3.0966,3.1132,3.1073,3.0968,3.1003,3.1159,3.1375,3.1655,3.2004,3.2047,3.1914,3.1774,3.1653,3.144,3.1123,3.0992,3.094,3.0992,3.0966,3.094,3.0992,3.0966,3.0914,3.0966,3.0992,3.0992,3.0981,3.0887,3.083,3.0905,3.0811,3.0717,3.0679,3.0501,3.033,3.012,3.0085,2.9924,4.2769,4.216,4.2226,4.183,4.1128,4.1089,4.1128,4.1128,4.1089,4.1128,4.1129,4.1171,4.1168,4.1068,4.0869,4.0697,4.0544,4.0391,4.0258,4.0313,4.0314,3.987,3.9052,3.8334,3.7543,3.6652,3.5922,3.562,3.5578,3.5505,3.5285,3.4903,3.4561,3.4427,3.4439,3.4534,3.4577,3.4572,3.4438,3.4297,3.406,3.3142,3.2463,3.2218,3.1288,3.0656,3.0299,2.9676,2.9305,2.9233,2.8613,2.8471,2.8953,2.9023,2.917,2.9553,2.9582,2.9384,2.8873,2.8825,2.9118,2.9747,2.9344,2.9348,3.0037,2.9465,2.888,2.868,2.9014,2.9317,2.9415,2.9835,3.0348,3.0813,3.0827,3.0888,3.1241,3.1335,3.1249,3.1102,3.1438,3.1558,3.1381,3.2025,3.2743,3.2917,3.2727,3.2431,3.2137,3.1855,3.1551,3.1161,3.0992,3.1011,3.1011,3.0992,3.0992,3.0992,3.0992,3.0992,3.0992,3.0992,3.0992,3.1018,3.0999,3.0924,3.0811,3.0698,3.0698,3.0679,3.0546,3.033,3.0196,3.0312,3.0301,4.3038,4.2283,4.2343,4.1907,4.1166,4.1127,4.1127,4.1127,4.1127,4.1127,4.1127,4.113,4.1122,4.1054,4.1054,4.0953,4.0829,4.0822,4.0801,4.0681,4.0657,4.0174,3.9343,3.8484,3.7668,3.6771,3.593,3.555,3.5477,3.5255,3.499,3.473,3.4439,3.4294,3.4305,3.4352,3.4376,3.4376,3.4376,3.4286,3.4165,3.3893,3.3413,3.2767,3.2216,3.1598,3.0961,3.0483,3.0205,3.0054,2.9762,2.9646,2.9794,2.971,2.9659,2.9775,2.9685,2.9748,2.9993,3.0018,3.0245,3.0783,3.0517,3.0281,2.9967,2.9924,2.9702,2.9224,2.9255,2.9666,3.0339,3.0641,3.0979,3.1367,3.1375,3.1368,3.1364,3.1605,3.1663,3.1571,3.193,3.228,3.2364,3.2877,3.3265,3.3304,3.3122,3.2864,3.2525,3.2345,3.2001,3.1514,3.1347,3.1235,3.1067,3.0992,3.0992,3.0992,3.0992,3.0992,3.0992,3.0992,3.0992,3.0992,3.0992,3.0999,3.0924,3.0773,3.0698,3.066,3.0458,3.0254,3.0513,3.057,3.0577,4.3643,4.2692,4.2262,4.1825,4.1474,4.1474,4.1435,4.1435,4.1474,4.1318,4.1123,4.1123,4.1074,4.1015,4.1016,4.0961,4.0813,4.0835,4.0754,4.0605,4.0581,4.0251,3.9602,3.8828,3.8092,3.7392,3.6394,3.5743,3.5479,3.517,3.4889,3.4678,3.4407,3.425,3.4222,3.4216,3.4216,3.4222,3.4216,3.4216,3.4228,3.4311,3.3996,3.3327,3.3024,3.2547,3.1731,3.1268,3.0929,3.0696,3.0511,3.0391,3.0466,3.0318,3.0292,3.0325,3.0214,3.0386,3.0981,3.0954,3.1061,3.1369,3.1326,3.089,3.0282,3.0355,3.0387,3.0065,2.9943,3.0326,3.0995,3.1338,3.1536,3.1782,3.1891,3.1881,3.1707,3.2004,3.225,3.2171,3.2526,3.2909,3.3283,3.3448,3.342,3.3297,3.329,3.3139,3.2775,3.2579,3.2255,3.169,3.1514,3.131,3.1048,3.0992,3.0992,3.0992,3.0992,3.0992,3.0992,3.0992,3.0992,3.0992,3.0992,3.0992,3.0981,3.0868,3.0825,3.0717,3.0541,3.0451,3.0839,3.0857,3.11,4.5055,4.3397,4.1866,4.1735,4.2319,4.2358,4.2358,4.2359,4.2358,4.189,4.1228,4.115,4.1109,4.1069,4.1078,4.1012,4.0902,4.0882,4.0778,4.0598,4.0587,4.0569,4.0488,3.9649,3.9211,3.8826,3.7399,3.6273,3.5567,3.5296,3.5085,3.4879,3.4658,3.445,3.4252,3.4216,3.4216,3.4216,3.4216,3.4216,3.4216,3.4191,3.4105,3.3848,3.3652,3.3277,3.2806,3.1931,3.1338,3.1185,3.0534,3.0331,3.0793,3.0872,3.1098,3.1535,3.1637,3.1662,3.1678,3.157,3.1601,3.171,3.1553,3.1254,3.11,3.0999,3.1036,3.1248,3.1102,3.1148,3.1233,3.1611,3.1863,3.186,3.2196,3.2377,3.2422,3.273,3.2916,3.2954,3.3197,3.3483,3.3779,3.3542,3.3396,3.3326,3.3308,3.3157,3.281,3.2435,3.2073,3.1708,3.1365,3.1011,3.0992,3.0992,3.0992,3.0992,3.0992,3.1044,3.1018,3.0992,3.1018,3.1097,3.1227,3.1254,3.1071,3.1052,3.1119,3.1038,3.0842,3.0855,3.1423,3.1377,3.1573,4.5502,4.4406,4.3223,4.2943,4.3217,4.3256,4.3256,4.3256,4.3256,4.2747,4.2045,4.1927,4.1615,4.1108,4.105,4.0958,4.0822,4.0816,4.074,4.0541,4.0542,4.0535,4.0454,3.9673,3.9323,3.9127,3.8084,3.7029,3.6166,3.5983,3.5536,3.4793,3.4631,3.4467,3.4264,3.4216,3.4216,3.4216,3.4216,3.4166,3.4124,3.4117,3.4055,3.3978,3.373,3.345,3.3202,3.2561,3.2148,3.1897,3.1608,3.154,3.162,3.1548,3.1562,3.1784,3.18,3.1772,3.1663,3.1617,3.1829,3.2251,3.2154,3.2137,3.221,3.2169,3.2057,3.1855,3.1842,3.1782,3.1635,3.1762,3.1979,3.2211,3.2392,3.2631,3.2881,3.3288,3.3558,3.3437,3.3641,3.3897,3.3848,3.3657,3.3448,3.3326,3.3308,3.3238,3.3069,3.2721,3.2309,3.1964,3.1643,3.131,3.0992,3.0992,3.0992,3.0992,3.1044,3.1261,3.1313,3.1425,3.1477,3.1881,3.1907,3.1881,3.1855,3.1881,3.1843,3.1721,3.1467,3.1484,3.2213,3.1929,3.2147,4.5468,4.4871,4.404,4.388,4.4114,4.4114,4.4114,4.4114,4.4114,4.3646,4.2864,4.2552,4.2045,4.1535,4.1156,4.0989,4.087,4.0813,4.067,4.0492,4.0512,4.0512,4.04,3.9935,3.9708,3.955,3.88,3.7851,3.6977,3.6782,3.616,3.5125,3.4985,3.464,3.4259,3.4185,3.4148,3.4154,3.4185,3.4117,3.4055,3.4086,3.4067,3.3954,3.3686,3.3472,3.3343,3.2918,3.2545,3.2309,3.2205,3.2091,3.2018,3.1882,3.18,3.18,3.1728,3.182,3.1951,3.1918,3.2203,3.2871,3.2903,3.2946,3.3005,3.3131,3.2855,3.2379,3.2319,3.2305,3.2213,3.2101,3.2165,3.2497,3.2826,3.3107,3.3394,3.3887,3.4045,3.3885,3.3907,3.3962,3.3882,3.3657,3.3466,3.3308,3.3308,3.3273,3.3086,3.2785,3.2381,3.2001,3.1606,3.1272,3.1048,3.0992,3.0992,3.0992,3.1018,3.1287,3.1608,3.1745,3.2032,3.2489,3.2698,3.2698,3.2698,3.2698,3.2625,3.2472,3.2117,3.1932,3.226,3.2343,3.255,4.4961,4.4882,4.4049,4.4309,4.4972,4.5012,4.5011,4.5011,4.5012,4.4504,4.3684,4.2903,4.259,4.2238,4.1606,4.1118,4.1084,4.085,4.0642,4.0504,4.0516,4.0504,4.0465,4.0431,4.0354,4.035,3.9619,3.8746,3.7908,3.7652,3.7029,3.6119,3.5676,3.511,3.4161,3.4154,3.4087,3.4117,3.4154,3.416,3.4029,3.4164,3.4269,3.4119,3.3831,3.3647,3.3539,3.2922,3.2506,3.231,3.1993,3.1818,3.1837,3.18,3.18,3.1772,3.1688,3.2019,3.2583,3.2588,3.2879,3.3495,3.3694,3.3569,3.3534,3.3746,3.3585,3.2886,3.2746,3.2857,3.289,3.2765,3.2662,3.2662,3.3465,3.3996,3.4198,3.4456,3.4601,3.4353,3.4094,3.3928,3.3842,3.357,3.3343,3.3308,3.329,3.3192,3.2945,3.2561,3.2055,3.1708,3.1477,3.1254,3.1104,3.0992,3.0992,3.1018,3.1018,3.1182,3.1582,3.1823,3.2235,3.2672,3.3169,3.3195,3.3247,3.3221,3.3042,3.2881,3.2555,3.2383,3.2539,3.2706,3.2701,4.5818,4.5845,4.5602,4.5637,4.591,4.591,4.591,4.5871,4.591,4.5402,4.466,4.4308,4.384,4.3171,4.2368,4.1905,4.1781,4.1053,4.0594,4.0616,4.0558,4.0486,4.047,4.0491,4.0507,4.0464,4.0222,3.9621,3.8851,3.8627,3.8028,3.6955,3.619,3.5566,3.4911,3.4344,3.4018,3.4122,3.464,3.489,3.4823,3.5339,3.5614,3.5558,3.5453,3.5388,3.5316,3.3458,3.2404,3.2362,3.1975,3.18,3.1791,3.1691,3.1645,3.1704,3.2065,3.232,3.2612,3.3053,3.3535,3.4084,3.4251,3.4488,3.4709,3.4625,3.4388,3.3889,3.3683,3.3464,3.3411,3.3726,3.3799,3.3844,3.4091,3.4362,3.4525,3.4568,3.4416,3.4213,3.4037,3.3848,3.3675,3.3448,3.3308,3.3308,3.3308,3.3192,3.3069,3.2704,3.2381,3.2001,3.1653,3.1254,3.1086,3.0992,3.0992,3.0992,3.1018,3.1209,3.1582,3.1876,3.2287,3.2777,3.33,3.3535,3.3613,3.3552,3.3288,3.3333,3.323,3.3155,3.3102,3.3034,3.2957,4.6248,4.6238,4.6306,4.6301,4.63,4.6297,4.6295,4.6294,4.6291,4.5937,4.5469,4.5077,4.4687,4.4019,4.3213,4.2786,4.258,4.1873,4.1544,4.1352,4.0684,4.0437,4.0411,4.0437,4.0458,4.0453,4.0441,4.0151,3.958,3.9411,3.8793,3.7645,3.6977,3.6173,3.5339,3.4746,3.4347,3.4162,3.482,3.5178,3.5271,3.5926,3.6353,3.631,3.6266,3.6303,3.6135,3.4386,3.3378,3.3292,3.2935,3.2628,3.2571,3.2538,3.2446,3.2456,3.272,3.3039,3.3308,3.3763,3.4219,3.4753,3.4912,3.4936,3.5248,3.5181,3.5296,3.4708,3.4533,3.4401,3.4409,3.4344,3.4593,3.4751,3.4575,3.4542,3.4693,3.4534,3.4315,3.4145,3.4003,3.3796,3.3623,3.3431,3.3308,3.3308,3.3308,3.3174,3.3086,3.2846,3.2489,3.211,3.1726,3.1365,3.1067,3.0992,3.0992,3.0992,3.1018,3.1313,3.166,3.1771,3.2058,3.262,3.3143,3.3137,3.3195,3.3251,3.3103,3.3411,3.3558,3.3259,3.2975,3.3071,3.304,4.6211,4.621,4.6273,4.6298,4.6296,4.6288,4.6284,4.6282,4.6234,4.619,4.5955,4.5409,4.5016,4.482,4.4115,4.3651,4.3452,4.315,4.2914,4.2414,4.1468,4.07,4.0436,4.0402,4.0407,4.0398,4.0334,4.0273,4.014,3.9971,3.9401,3.8455,3.7941,3.7071,3.5795,3.5328,3.493,3.4495,3.4967,3.5294,3.5195,3.5862,3.631,3.6303,3.6303,3.6281,3.6076,3.5302,3.4905,3.496,3.4163,3.3766,3.3824,3.3862,3.3655,3.3495,3.3608,3.3964,3.4421,3.4537,3.4821,3.5374,3.5431,3.5406,3.5212,3.5809,3.5939,3.519,3.5295,3.5502,3.5427,3.5001,3.4797,3.5047,3.4866,3.471,3.445,3.4428,3.4327,3.4111,3.3968,3.3796,3.3588,3.3396,3.3326,3.3308,3.3308,3.3139,3.2952,3.2757,3.2381,3.2037,3.1772,3.1402,3.1086,3.0992,3.0992,3.0992,3.1018,3.1235,3.1555,3.1667,3.1823,3.2391,3.2777,3.2771,3.2861,3.3016,3.3022,3.3086,3.3062,3.2887,3.2916,3.3057,3.3115,4.6244,4.6264,4.6246,4.6237,4.6198,4.6233,4.6232,4.6232,4.6228,4.6224,4.6108,4.5952,4.5794,4.5756,4.4973,4.4506,4.4209,4.3596,4.3129,4.2931,4.2492,4.1408,4.0546,4.0363,4.0359,4.0397,4.0422,4.0327,4.0286,4.0249,3.9802,3.9188,3.8496,3.7781,3.6939,3.6265,3.5928,3.5707,3.5854,3.6001,3.598,3.6156,3.6266,3.6303,3.6303,3.6164,3.5843,3.5099,3.4525,3.4276,3.4081,3.3907,3.3806,3.3803,3.3819,3.3802,3.4081,3.4323,3.4617,3.5024,3.5408,3.5532,3.5633,3.5676,3.6028,3.625,3.6298,3.6057,3.6165,3.6067,3.5643,3.5222,3.5001,3.4839,3.4798,3.4664,3.4479,3.4366,3.4293,3.402,3.3934,3.3744,3.3483,3.3361,3.3308,3.3308,3.329,3.3273,3.3069,3.2874,3.2561,3.2146,3.1827,3.144,3.1142,3.1048,3.0992,3.0992,3.1018,3.1097,3.1339,3.1503,3.1693,3.2032,3.2306,3.2404,3.2771,3.307,3.3002,3.2798,3.3057,3.3119,3.3063,3.3115,3.3115,4.6222,4.6276,4.619,4.6187,4.6187,4.622,4.6217,4.6216,4.621,4.6209,4.6207,4.6207,4.6209,4.6131,4.566,4.5321,4.506,4.4515,4.4187,4.3932,4.3493,4.2584,4.1648,4.1346,4.1346,4.127,4.0964,4.0835,4.0735,4.0497,4.0034,3.9486,3.9026,3.8374,3.7463,3.7088,3.6604,3.642,3.6567,3.6831,3.6787,3.6787,3.6824,3.6714,3.6516,3.6193,3.609,3.5501,3.4781,3.4204,3.4117,3.425,3.4171,3.4404,3.4487,3.4467,3.4764,3.4968,3.5036,3.5374,3.5554,3.5644,3.5733,3.6033,3.643,3.6838,3.7259,3.7216,3.7251,3.687,3.6214,3.5492,3.4981,3.4748,3.4631,3.453,3.4399,3.4382,3.4242,3.402,3.3882,3.3772,3.3361,3.3308,3.3308,3.3308,3.3308,3.329,3.3255,3.3033,3.2814,3.2454,3.2061,3.171,3.1548,3.1482,3.1444,3.1392,3.1541,3.1489,3.1358,3.1496,3.1522,3.1712,3.1888,3.2169,3.2542,3.2776,3.2619,3.2654,3.3064,3.3238,3.3114,3.3115,3.3115,4.6185,4.6185,4.6223,4.6221,4.6219,4.6209,4.6203,4.62,4.6188,4.622,4.622,4.6219,4.6222,4.6217,4.6047,4.5954,4.5662,4.5434,4.5351,4.4945,4.4437,4.3673,4.3143,4.2613,4.2536,4.246,4.192,4.1576,4.1308,4.0731,4.0115,3.9629,3.9439,3.8839,3.7985,3.7676,3.7228,3.6927,3.7125,3.7345,3.7309,3.7199,3.6964,3.6648,3.6142,3.6131,3.6212,3.5892,3.5136,3.3997,3.4624,3.4863,3.4882,3.5438,3.5621,3.5498,3.5442,3.5509,3.56,3.5645,3.5712,3.5801,3.6269,3.6599,3.6798,3.7557,3.8089,3.8023,3.825,3.7639,3.6722,3.5575,3.4918,3.4698,3.4513,3.4428,3.4382,3.4382,3.4276,3.3951,3.3899,3.3709,3.3448,3.3308,3.3308,3.3308,3.3308,3.3308,3.3227,3.3051,3.2953,3.288,3.2475,3.2099,3.1997,3.1921,3.1921,3.1921,3.2202,3.2195,3.1724,3.1646,3.1437,3.1515,3.2064,3.2228,3.2208,3.2306,3.2418,3.2603,3.312,3.3128,3.3025,3.3086,3.3115,4.6209,4.6209,4.6196,4.619,4.619,4.6187,4.6222,4.6263,4.6258,4.6334,4.6217,4.6217,4.6217,4.6215,4.6078,4.5919,4.5719,4.5599,4.5442,4.5281,4.5168,4.4934,4.4437,4.3558,4.287,4.2832,4.2679,4.2183,4.1648,4.1351,4.0636,3.9668,3.9677,3.9157,3.8589,3.8528,3.8395,3.8138,3.7852,3.7705,3.7588,3.7103,3.6523,3.5879,3.5306,3.5278,3.5495,3.4993,3.4438,3.4456,3.509,3.5663,3.5395,3.5554,3.5667,3.5656,3.5667,3.5667,3.5723,3.6037,3.6305,3.6325,3.6819,3.7353,3.7928,3.802,3.8289,3.8259,3.8175,3.7699,3.6522,3.5814,3.5268,3.4827,3.4562,3.4499,3.4412,3.4412,3.4242,3.4003,3.3882,3.3744,3.3361,3.3308,3.3308,3.3308,3.3336,3.3308,3.3276,3.3254,3.3284,3.3416,3.2963,3.26,3.2572,3.2522,3.26,3.2653,3.2908,3.3012,3.2535,3.2274,3.2247,3.23,3.2411,3.2463,3.2444,3.2776,3.3083,3.3148,3.3155,3.3132,3.3143,3.3154,3.3115,4.7439,4.7398,4.7429,4.7423,4.7425,4.7425,4.7425,4.7425,4.7425,4.7191,4.684,4.6801,4.6607,4.6215,4.6089,4.5958,4.5708,4.5504,4.5361,4.5293,4.5277,4.5267,4.5164,4.4482,4.3909,4.3897,4.352,4.3056,4.2717,4.2196,4.1492,4.0384,4.044,4.0245,3.9608,3.964,3.9819,3.9774,3.9384,3.9075,3.8957,3.8287,3.7444,3.6696,3.6334,3.656,3.7333,3.679,3.6527,3.6596,3.6835,3.6399,3.5509,3.5757,3.5983,3.5701,3.632,3.6296,3.6318,3.6572,3.6922,3.6886,3.7453,3.7877,3.8358,3.8499,3.8909,3.9056,3.9003,3.8488,3.7229,3.6625,3.6127,3.5512,3.5253,3.5282,3.5178,3.472,3.4162,3.3934,3.3796,3.3605,3.3413,3.3494,3.3617,3.3757,3.3824,3.3852,3.4383,3.4304,3.4112,3.402,3.3498,3.3196,3.3146,3.3169,3.33,3.3456,3.3692,3.3744,3.3561,3.3424,3.3294,3.3137,3.2881,3.2934,3.2992,3.3375,3.3544,3.3466,3.3398,3.336,3.324,3.3133,3.3115,4.8789,4.8789,4.8789,4.8789,4.8789,4.875,4.8711,4.875,4.8789,4.8241,4.7815,4.7698,4.7347,4.6759,4.6429,4.6162,4.5672,4.5414,4.5267,4.5246,4.5235,4.5213,4.511,4.5034,4.493,4.5136,4.451,4.4052,4.367,4.3245,4.2313,4.1495,4.1582,4.1159,4.0689,4.0754,4.0809,4.0691,4.0577,4.0515,4.0544,3.9929,3.9268,3.8789,3.8307,3.8595,3.9045,3.8904,3.8828,3.9167,3.8812,3.7326,3.6084,3.6039,3.6727,3.6028,3.7015,3.7146,3.6906,3.7212,3.7603,3.749,3.811,3.8425,3.8566,3.907,3.9585,3.9905,3.9963,3.9706,3.8825,3.7922,3.7208,3.6576,3.6382,3.6297,3.6023,3.5102,3.4553,3.43,3.4324,3.4186,3.3977,3.3944,3.4066,3.4207,3.4301,3.4516,3.5002,3.5162,3.488,3.4673,3.4174,3.3818,3.3738,3.3666,3.3822,3.3901,3.4214,3.4214,3.4241,3.4058,3.377,3.3451,3.3267,3.3378,3.3448,3.3632,3.3731,3.3716,3.3556,3.3368,3.324,3.3111,3.3115,4.8789,4.8789,4.8789,4.8789,4.8828,4.8828,4.8906,4.8789,4.8945,4.875,4.8592,4.8553,4.8473,4.8109,4.7342,4.6503,4.5847,4.5564,4.5415,4.5349,4.5382,4.5365,4.5392,4.5462,4.5321,4.5131,4.4902,4.4598,4.4043,4.3602,4.3068,4.2233,4.1947,4.162,4.1266,4.1005,4.1123,4.1196,4.1125,4.1071,4.0998,4.0818,4.063,4.0259,3.9818,3.9847,4.0149,3.9955,3.9578,3.9203,3.8812,3.8208,3.7544,3.7618,3.7559,3.7352,3.7595,3.7745,3.7467,3.7903,3.8174,3.8356,3.8724,3.9103,3.9282,3.9733,4.0155,4.0455,4.0643,4.0475,3.9439,3.8846,3.803,3.7353,3.6846,3.6431,3.6176,3.5777,3.545,3.5371,3.5208,3.4903,3.4625,3.4496,3.4693,3.4861,3.4955,3.5124,3.5452,3.5508,3.5329,3.5124,3.4882,3.4574,3.4327,3.425,3.4241,3.4188,3.4319,3.4319,3.4345,3.4371,3.4162,3.3822,3.3796,3.4005,3.4053,3.396,3.3824,3.3721,3.3535,3.3322,3.3244,3.3165,3.3241,5.0073,5.0073,5.0073,5.0112,5.0112,5.0112,5.0112,5.0112,5.0073,4.9839,4.952,4.9389,4.9104,4.8686,4.8119,4.731,4.6733,4.6511,4.6431,4.6397,4.6397,4.6373,4.6311,4.6311,4.6326,4.6194,4.5884,4.5279,4.4532,4.4499,4.3958,4.3281,4.297,4.2723,4.2268,4.2148,4.1973,4.1993,4.1949,4.1959,4.1959,4.1887,4.1833,4.1697,4.1479,4.1443,4.1578,4.1593,4.1104,4.0549,4.0226,3.971,3.9248,3.8897,3.8566,3.8054,3.8279,3.838,3.8158,3.8522,3.8844,3.8877,3.9176,3.9481,3.9812,4.0196,4.0676,4.1185,4.155,4.1489,4.0657,4.0128,3.9498,3.8589,3.7961,3.7542,3.7108,3.6831,3.6559,3.6305,3.5693,3.5281,3.5113,3.5133,3.533,3.5498,3.5639,3.5808,3.5977,3.5957,3.5871,3.5518,3.5266,3.4787,3.4506,3.4408,3.4397,3.4397,3.4397,3.4397,3.4397,3.4397,3.4397,3.4241,3.4371,3.4397,3.4246,3.4022,3.3885,3.3704,3.3479,3.3316,3.3255,3.3241,3.3416,5.132,5.132,5.132,5.1314,5.1267,5.1267,5.1222,5.1254,5.1172,5.0819,5.0274,5.0123,4.979,4.9204,4.8712,4.8236,4.7851,4.7589,4.7438,4.737,4.737,4.7459,4.7473,4.7454,4.729,4.7037,4.6721,4.6145,4.5718,4.5393,4.4957,4.4625,4.4552,4.405,4.3418,4.2971,4.3233,4.3133,4.3087,4.3077,4.3012,4.2975,4.3,4.3118,4.3145,4.3145,4.3353,4.336,4.2834,4.2241,4.1854,4.1499,4.0671,4.0394,3.9732,3.8862,3.9206,3.9061,3.8916,3.893,3.9276,3.9494,3.9514,3.9931,4.0393,4.0786,4.1181,4.1987,4.2395,4.2378,4.1741,4.1511,4.0882,4.0065,3.9396,3.888,3.8121,3.7605,3.7148,3.6684,3.6024,3.5799,3.578,3.5864,3.6089,3.6145,3.6267,3.6351,3.652,3.6632,3.6476,3.5951,3.5521,3.4932,3.4605,3.4413,3.4397,3.4397,3.4397,3.4397,3.4397,3.4397,3.4424,3.4502,3.4397,3.4377,3.423,3.4084,3.3827,3.3645,3.3401,3.3359,3.3467,3.3768,3.4022,5.132,5.1318,5.1318,5.1258,5.1223,5.1218,5.119,5.1111,5.1153,5.1103,5.0848,5.0903,5.0817,5.0436,4.9621,4.8726,4.8061,4.7803,4.7808,4.7815,4.7726,4.7726,4.7511,4.739,4.7707,4.7687,4.7422,4.7232,4.6967,4.6474,4.6233,4.6156,4.5447,4.488,4.4435,4.3788,4.2984,4.3002,4.3029,4.3029,4.3055,4.3082,4.3399,4.3797,4.4015,4.4186,4.4657,4.4654,4.4268,4.3543,4.343,4.293,4.2068,4.1762,4.1578,4.0948,4.03,3.9415,3.9269,3.9461,3.968,4.0078,4.021,4.0591,4.104,4.1541,4.2032,4.27,4.282,4.2696,4.2317,4.19,4.1476,4.0826,4.0069,3.9308,3.8554,3.8079,3.7663,3.7125,3.6474,3.6548,3.6632,3.6745,3.6857,3.6885,3.6914,3.6914,3.6922,3.6978,3.6665,3.6051,3.5649,3.51,3.4605,3.4418,3.4554,3.4502,3.4554,3.458,3.4763,3.4842,3.4607,3.4633,3.458,3.4633,3.4679,3.4437,3.3934,3.3781,3.3846,3.3849,3.3822,3.4195,3.4802,5.1198,5.1198,5.1198,5.1185,5.1164,5.1122,5.1147,5.1086,5.1083,5.1083,5.1074,5.1079,5.0907,5.0611,5.0036,4.9553,4.9009,4.8808,4.882,4.8762,4.8749,4.8749,4.8862,4.8825,4.8825,4.8597,4.8445,4.8521,4.8256,4.7561,4.7028,4.7044,4.6547,4.6004,4.5534,4.4949,4.4563,4.4392,4.4295,4.4268,4.4268,4.4268,4.4413,4.4765,4.4775,4.5019,4.5216,4.5192,4.4894,4.416,4.3851,4.3242,4.2516,4.2078,4.1708,4.1633,4.1037,4.0417,4.0044,4.0249,4.0428,4.0495,4.0779,4.1239,4.176,4.2196,4.2552,4.285,4.2791,4.2697,4.2602,4.2333,4.1932,4.1377,4.069,3.9771,3.9019,3.8498,3.7994,3.7472,3.6998,3.7037,3.7056,3.6989,3.6961,3.6942,3.6942,3.697,3.695,3.6978,3.6528,3.5871,3.5548,3.5243,3.475,3.4424,3.4789,3.4868,3.5025,3.5103,3.5391,3.5417,3.5182,3.5234,3.5443,3.5443,3.5286,3.4895,3.444,3.4404,3.4415,3.4505,3.4664,3.556,3.6222,5.1577,5.1347,5.1187,5.1074,5.1098,5.1098,5.1046,5.103,5.1027,5.103,5.1018,5.0963,5.0778,5.0448,5.0275,5.0041,4.9837,4.9893,4.9893,4.9893,4.9893,4.9817,4.9703,4.9779,4.9779,4.9893,4.9242,4.9242,4.9242,4.8773,4.8096,4.7871,4.7297,4.6861,4.6464,4.5847,4.5299,4.5121,4.5091,4.5128,4.5164,4.52,4.5345,4.5526,4.5599,4.5651,4.5791,4.5848,4.5541,4.5004,4.4482,4.3963,4.3344,4.2824,4.2465,4.2366,4.2048,4.1688,4.1243,4.1143,4.1177,4.1215,4.1394,4.2052,4.2362,4.2762,4.2822,4.2806,4.2728,4.265,4.2619,4.2571,4.2349,4.1868,4.136,4.0399,3.9469,3.8829,3.8368,3.8023,3.7577,3.7192,3.7173,3.7076,3.7017,3.6998,3.6978,3.7007,3.7063,3.7099,3.6532,3.5946,3.5749,3.5509,3.5099,3.4811,3.5098,3.5286,3.5443,3.56,3.5861,3.594,3.5809,3.5966,3.6201,3.6291,3.6194,3.5574,3.4976,3.4915,3.4965,3.529,3.5728,3.6698,3.7523,5.286,5.2059,5.138,5.1082,5.1065,5.0988,5.0984,5.1176,5.1045,5.1088,5.1211,5.0963,5.0926,5.0586,5.0598,5.0378,4.9962,4.9893,4.9969,4.9969,4.9893,4.9969,4.9931,4.9893,4.9893,4.9893,4.9665,4.9734,4.9848,4.9621,4.9341,4.9183,4.8203,4.753,4.6948,4.6347,4.5867,4.5671,4.5661,4.5599,4.5562,4.5599,4.577,4.624,4.6411,4.667,4.7251,4.6884,4.6618,4.6033,4.543,4.497,4.4298,4.3802,4.3432,4.3171,4.3098,4.2752,4.2355,4.1924,4.1825,4.2235,4.2583,4.2732,4.2836,4.2675,4.2649,4.2666,4.2634,4.2619,4.2619,4.2571,4.2476,4.2222,4.1705,4.0961,3.9982,3.8976,3.8583,3.8435,3.8241,3.8007,3.7881,3.7928,3.7227,3.7121,3.7279,3.7316,3.7341,3.7318,3.6721,3.6232,3.6058,3.5843,3.5526,3.5512,3.5678,3.5861,3.6044,3.6123,3.6253,3.6305,3.6515,3.6462,3.6637,3.6878,3.7064,3.6647,3.6173,3.5615,3.5564,3.6122,3.6914,3.7896,3.8598,5.2535,5.2117,5.1319,5.1287,5.173,5.1726,5.2016,5.2457,5.2492,5.2492,5.236,5.2314,5.2118,5.1929,5.1675,5.1254,5.0834,5.1282,5.0758,5.0379,5.0341,5.0341,5.0151,4.9931,4.9893,4.9893,4.9893,4.9893,4.9893,4.9893,4.9852,4.9459,4.8948,4.8605,4.794,4.7195,4.6803,4.6711,4.6747,4.6747,4.6757,4.6711,4.6644,4.6329,4.6365,4.6158,4.5945,4.5835,4.5996,4.6028,4.5634,4.53,4.506,4.4575,4.4164,4.3817,4.3742,4.358,4.3348,4.2903,4.2874,4.2873,4.301,4.3025,4.3123,4.2792,4.265,4.2619,4.2683,4.2813,4.2651,4.2619,4.2539,4.2397,4.2013,4.139,4.0626,3.9631,3.929,3.9372,3.9261,3.9069,3.8996,3.8938,3.8042,3.7292,3.7459,3.7625,3.7734,3.7726,3.7287,3.6887,3.6757,3.6481,3.6181,3.6218,3.6279,3.6462,3.6645,3.6813,3.6988,3.722,3.7351,3.722,3.7247,3.7639,3.786,3.7812,3.751,3.7091,3.7011,3.7251,3.8133,3.9008,3.9749,5.2844,5.2535,5.1912,5.1676,5.1834,5.1834,5.2144,5.2647,5.2647,5.2695,5.2657,5.2626,5.2615,5.2471,5.2196,5.1754,5.1264,5.1282,5.0978,5.0789,5.0789,5.0789,5.0486,5.0265,5.0227,5.0,4.9893,4.9893,4.9893,4.9893,5.0093,5.0078,4.9694,4.9182,4.8847,4.8269,4.7835,4.7756,4.7978,4.8019,4.7972,4.7915,4.7969,4.727,4.7032,4.669,4.6352,4.6277,4.6104,4.6109,4.5894,4.5565,4.536,4.5111,4.4619,4.4363,4.4215,4.4224,4.4209,4.3935,4.3923,4.4047,4.382,4.3696,4.3471,4.3345,4.3476,4.3411,4.3346,4.3249,4.3217,4.3444,4.3138,4.3009,4.254,4.1945,4.1338,4.053,4.0408,4.0371,4.0211,4.0035,4.0161,4.0051,3.9167,3.834,3.8134,3.8291,3.8383,3.8354,3.8185,3.7862,3.764,3.7306,3.698,3.699,3.7011,3.7093,3.7344,3.7693,3.7923,3.8031,3.8171,3.8174,3.8282,3.8585,3.8707,3.8807,3.8803,3.8684,3.8576,3.8438,3.8823,3.9683,4.0774,5.4121,5.3498,5.3343,5.2414,5.1095,5.0979,5.1173,5.1637,5.1439,5.1425,5.1565,5.1944,5.1962,5.1779,5.1853,5.1559,5.1182,5.0713,5.0492,5.0865,5.1009,5.1123,5.0971,5.0744,5.0372,5.0,4.9893,4.9893,4.9893,4.9893,5.0303,5.0447,4.9875,4.9299,4.9268,4.866,4.8108,4.786,4.8475,4.8569,4.8695,4.8673,4.8787,4.8493,4.7679,4.7157,4.6914,4.6415,4.6241,4.6357,4.6153,4.5982,4.5997,4.5733,4.5447,4.5355,4.5481,4.5565,4.5666,4.4852,4.4743,4.4877,4.4461,4.4382,4.4691,4.4691,4.4464,4.4204,4.4399,4.4528,4.4625,4.4544,4.3977,4.3473,4.2998,4.2581,4.1966,4.1507,4.1333,4.1383,4.1149,4.0963,4.1184,4.1099,4.0284,3.959,3.9057,3.9027,3.9271,3.9012,3.8894,3.8619,3.8363,3.7945,3.7621,3.7708,3.7743,3.7848,3.7936,3.8157,3.8247,3.8213,3.8462,3.8859,3.8751,3.8508,3.9171,3.9885,4.0,4.0124,3.9692,3.9596,3.9891,4.0287,4.1241,5.342,5.2651,5.2651,5.1989,5.1134,5.2178,5.2917,5.3304,5.2952,5.2889,5.3219,5.3094,5.2661,5.2464,5.2234,5.1934,5.1347,5.1691,5.1616,5.0492,5.1047,5.0713,5.0599,5.0599,5.0258,5.0,4.9893,4.9893,4.9893,4.9893,5.0,5.0089,4.998,4.9265,4.8825,4.8503,4.8475,4.8414,4.859,4.8812,4.9282,4.9343,4.9225,4.8931,4.7891,4.7261,4.697,4.6326,4.6114,4.6366,4.6117,4.6211,4.6374,4.6213,4.6068,4.5824,4.575,4.5808,4.5977,4.5701,4.5375,4.5114,4.4805,4.4659,4.4772,4.4837,4.4804,4.4885,4.4982,4.4949,4.4755,4.4755,4.438,4.4016,4.3583,4.3223,4.2735,4.2358,4.2156,4.2358,4.229,4.2488,4.268,4.2549,4.1823,4.1231,4.0732,4.0547,4.0699,4.0034,3.964,3.9316,3.8983,3.8523,3.8235,3.8046,3.8057,3.8099,3.8145,3.8232,3.8304,3.8508,3.8706,3.9149,3.8706,3.8372,3.959,4.0689,4.1386,4.1504,4.1043,4.0374,4.0179,4.0617,4.1367,5.2999,5.2264,5.2535,5.2531,5.2372,5.3149,5.3846,5.4194,5.3768,5.379,5.3983,5.3643,5.3432,5.3298,5.3073,5.2851,5.2115,5.2146,5.2525,5.1244,5.1774,5.1661,5.1168,5.0644,5.053,5.0189,4.9931,4.9893,4.9893,4.9893,4.9931,5.0007,5.0048,4.955,4.8984,4.8763,4.885,4.8869,4.9019,4.9681,4.9958,4.9959,4.9745,4.9089,4.822,4.7339,4.6628,4.607,4.563,4.607,4.6278,4.646,4.6803,4.701,4.6976,4.6794,4.6509,4.6435,4.6323,4.58,4.5343,4.4968,4.4707,4.5063,4.5419,4.5679,4.5646,4.5629,4.5435,4.5467,4.5484,4.5452,4.5105,4.4765,4.4213,4.3847,4.3363,4.2959,4.3039,4.3279,4.3457,4.3739,4.3902,4.3863,4.348,4.2951,4.2435,4.223,4.1918,4.112,4.0365,3.999,3.9656,3.9222,3.8693,3.8164,3.8217,3.8327,3.853,3.8684,3.8997,3.9282,3.9348,3.9237,3.8756,3.8872,4.0346,4.1428,4.2195,4.2468,4.2266,4.1531,4.0694,4.1171,4.204,5.296,5.238,5.3115,5.3884,5.4465,5.3846,5.3614,5.3575,5.3528,5.3421,5.3331,5.3931,5.376,5.3754,5.3646,5.344,5.3177,5.2639,5.2715,5.3018,5.2911,5.2601,5.2298,5.2032,5.1357,5.0492,5.0151,5.0341,5.0038,5.0337,5.03,5.0234,5.0717,5.0061,4.9501,4.9355,4.9236,4.9025,4.948,5.0067,5.0367,5.0641,5.045,4.9841,4.896,4.821,4.7616,4.7152,4.683,4.6866,4.6903,4.7427,4.7844,4.8234,4.8451,4.8249,4.7655,4.706,4.6356,4.5652,4.5537,4.5454,4.6084,4.6618,4.6488,4.6164,4.6164,4.6294,4.6294,4.6553,4.6715,4.6384,4.6067,4.5496,4.4872,4.4378,4.3845,4.371,4.3944,4.4098,4.4252,4.4427,4.4358,4.44,4.4228,4.3905,4.3386,4.314,4.2701,4.1885,4.1141,4.0567,4.0238,3.9935,3.9414,3.8908,3.893,3.9259,3.9304,3.9475,3.9782,3.9831,3.9519,3.9215,3.876,3.9373,4.1142,4.2275,4.3024,4.3192,4.3393,4.2627,4.1732,4.2423,4.3135,5.2418,5.2302,5.3153,5.3652,5.3923,5.4271,5.4426,5.4379,5.3703,5.3543,5.4087,5.3519,5.3445,5.3048,5.3014,5.2962,5.2802,5.2563,5.2563,5.2821,5.3148,5.2745,5.2511,5.2421,5.198,5.1602,5.1185,5.1012,5.146,5.1485,5.1292,5.1437,5.1148,5.0583,5.0341,5.0352,4.9502,4.9117,4.9638,5.0223,5.0759,5.1104,5.0912,5.0328,4.959,4.8853,4.8223,4.758,4.7212,4.7105,4.7045,4.7262,4.7407,4.7512,4.7469,4.6936,4.6783,4.6717,4.6173,4.6201,4.6183,4.5987,4.6521,4.6067,4.5905,4.5938,4.6212,4.6488,4.6748,4.6845,4.6875,4.6657,4.6314,4.5766,4.5236,4.482,4.4322,4.416,4.4375,4.4406,4.4591,4.4591,4.4591,4.4572,4.4419,4.4362,4.4178,4.3907,4.3497,4.2649,4.1968,4.1386,4.1007,4.0724,4.0475,4.0,4.0065,4.0173,4.0322,4.0377,4.0547,4.0439,3.9749,3.9666,3.9967,4.0872,4.2166,4.3165,4.4022,4.4473,4.4626,4.3701,4.3097,4.3725,4.3945,5.2999,5.2844,5.3656,5.4186,5.4555,5.5054,5.5277,5.5125,5.4521,5.4592,5.4875,5.4214,5.3766,5.3811,5.3742,5.3632,5.3556,5.3586,5.3557,5.3482,5.3187,5.3044,5.2885,5.2643,5.2379,5.2145,5.1881,5.1609,5.216,5.2144,5.192,5.1785,5.1404,5.1111,5.0792,5.0508,4.9978,4.9681,4.9853,5.0424,5.0959,5.1351,5.1101,5.0554,4.9912,4.9341,4.8675,4.7997,4.7925,4.789,4.789,4.8129,4.8373,4.8521,4.8154,4.7718,4.7295,4.6881,4.6239,4.6166,4.6229,4.6197,4.6164,4.5646,4.5646,4.5791,4.6147,4.6521,4.6715,4.691,4.6841,4.6719,4.6298,4.5837,4.5528,4.5234,4.4918,4.4617,4.456,4.456,4.4591,4.4591,4.4591,4.4591,4.4572,4.4515,4.4458,4.4343,4.3946,4.3368,4.2761,4.2205,4.1877,4.1587,4.1352,4.127,4.1249,4.1376,4.1661,4.1696,4.1589,4.1594,4.1474,4.1559,4.1715,4.2568,4.3354,4.4234,4.5024,4.5394,4.5633,4.5098,4.4642,4.479,4.4803,5.422,5.364,5.4534,5.5272,5.5932,5.5932,5.5909,5.5885,5.5612,5.5722,5.5626,5.5275,5.4959,5.4687,5.4562,5.4489,5.4383,5.4375,5.4245,5.4506,5.4242,5.3876,5.3448,5.317,5.3064,5.2435,5.2073,5.2175,5.2064,5.2294,5.2473,5.2028,5.1804,5.1629,5.1546,5.1001,5.0581,5.0516,5.0808,5.1351,5.1351,5.1471,5.1351,5.0673,5.0352,5.0054,4.9483,4.9222,4.9293,4.9257,4.9329,4.9495,4.9712,4.9723,4.9284,4.8845,4.7985,4.7207,4.6536,4.6385,4.5957,4.555,4.4982,4.5355,4.5808,4.5888,4.6212,4.6407,4.6618,4.6845,4.6875,4.6754,4.6404,4.5977,4.5614,4.5228,4.4799,4.461,4.4591,4.4591,4.4591,4.4591,4.4652,4.4683,4.4991,4.4787,4.4922,4.4914,4.4691,4.4282,4.3767,4.3299,4.3275,4.3087,4.2798,4.2673,4.2491,4.262,4.2955,4.2973,4.2833,4.3077,4.3415,4.3148,4.2925,4.3611,4.4387,4.5276,4.5843,4.5933,4.6142,4.633,4.6254,4.6024,4.5817,5.3926,5.4428,5.5277,5.5769,5.5919,5.5914,5.5909,5.5865,5.5441,5.5423,5.552,5.5145,5.4887,5.4836,5.4675,5.4584,5.4576,5.4608,5.4489,5.4447,5.4439,5.4284,5.4054,5.3844,5.3795,5.3641,5.3249,5.2743,5.2704,5.308,5.3429,5.3284,5.2899,5.2604,5.2495,5.1879,5.1531,5.1379,5.1442,5.1435,5.1101,5.1351,5.1351,5.0816,5.0459,5.0197,4.9733,4.9412,4.9329,4.9293,4.9293,4.94,4.9506,4.9206,4.873,4.8231,4.815,4.7486,4.6979,4.6765,4.6614,4.6459,4.6294,4.6359,4.6391,4.618,4.618,4.6309,4.6504,4.6748,4.6858,4.6702,4.6492,4.6066,4.5614,4.5136,4.4648,4.4629,4.4591,4.4591,4.4591,4.4683,4.4745,4.4972,4.5268,4.5588,4.5988,4.6122,4.6001,4.5663,4.5181,4.4861,4.5092,4.4909,4.442,4.403,4.3789,4.4028,4.4444,4.433,4.4107,4.4146,4.4218,4.4095,4.4073,4.4805,4.5532,4.6334,4.6741,4.6591,4.6621,4.68,4.692,4.6761,4.6721,5.4742,5.5239,5.5707,5.5885,5.587,5.587,5.5817,5.574,5.5363,5.5282,5.5364,5.4895,5.4629,5.4629,5.4447,5.4392,5.4392,5.4417,5.4329,5.4285,5.4233,5.418,5.4171,5.4145,5.4016,5.3922,5.3698,5.3393,5.3339,5.3535,5.3795,5.3775,5.3571,5.343,5.3287,5.2758,5.2384,5.2149,5.1932,5.1508,5.1042,5.1387,5.1565,5.1066,5.0923,5.0673,5.0637,5.0352,5.0375,5.0314,5.0336,5.0148,5.0114,4.9758,4.9146,4.8653,4.8308,4.7925,4.7455,4.7325,4.7402,4.7211,4.6942,4.6748,4.6715,4.6536,4.6536,4.6683,4.6683,4.691,4.6737,4.6562,4.6262,4.5868,4.5358,4.4836,4.4629,4.461,4.4591,4.461,4.4776,4.5176,4.5311,4.5711,4.5957,4.6049,4.6511,4.6665,4.6687,4.6832,4.6417,4.6093,4.6153,4.5899,4.5209,4.5012,4.5066,4.54,4.5753,4.576,4.5524,4.5186,4.4996,4.5186,4.5491,4.6046,4.6756,4.7086,4.7219,4.704,4.71,4.7219,4.7309,4.7309,4.7141,5.5798,5.588,5.5875,5.5855,5.5787,5.5782,5.5756,5.5676,5.5413,5.5262,5.517,5.4637,5.4405,5.4371,5.434,5.434,5.4314,5.4244,5.4145,5.4091,5.4055,5.4,5.3917,5.3832,5.386,5.387,5.3749,5.3702,5.372,5.3823,5.3823,5.3794,5.3737,5.3649,5.3359,5.3034,5.2775,5.2614,5.2366,5.2047,5.1853,5.1721,5.1649,5.1672,5.1708,5.1708,5.1672,5.1792,5.1779,5.1798,5.1622,5.1339,5.0932,5.0563,5.002,4.9502,4.9218,4.8769,4.8297,4.805,4.7812,4.7489,4.7255,4.7169,4.7169,4.7201,4.7169,4.7039,4.7072,4.6858,4.6667,4.6404,4.6098,4.5764,4.5229,4.4944,4.4906,4.4899,4.4899,4.4899,4.5237,4.568,4.5957,4.6357,4.6603,4.6696,4.6788,4.685,4.6994,4.7283,4.7272,4.6903,4.6717,4.635,4.5943,4.5899,4.6022,4.6202,4.648,4.6809,4.6902,4.6355,4.6217,4.6686,4.7051,4.7,4.7051,4.7228,4.7309,4.7309,4.7309,4.7309,4.7309,4.7309,4.7309,5.574,5.574,5.5735,5.573,5.5724,5.5724,5.5719,5.5671,5.5413,5.5177,5.4963,5.4589,5.4325,5.4346,5.4018,5.3935,5.4,5.401,5.3926,5.3851,5.3889,5.3841,5.3804,5.3794,5.3794,5.3868,5.3943,5.3831,5.4128,5.4017,5.3868,5.398,5.3943,5.3848,5.377,5.3512,5.3365,5.3284,5.3147,5.2888,5.246,5.2208,5.1744,5.1708,5.1708,5.1708,5.1815,5.2363,5.2577,5.2786,5.2812,5.2411,5.192,5.1416,5.0893,5.0493,5.021,5.003,4.9613,4.9327,4.9058,4.8846,4.864,4.8299,4.8332,4.8364,4.8188,4.7702,4.754,4.7104,4.6833,4.6518,4.6211,4.5956,4.5559,4.5781,4.5915,4.5957,4.5988,4.6038,4.6172,4.6388,4.648,4.6911,4.7342,4.7496,4.7804,4.7814,4.7845,4.7978,4.8026,4.7654,4.7259,4.7207,4.7006,4.6796,4.683,4.701,4.7048,4.7108,4.7189,4.7249,4.7309,4.7309,4.7309,4.7206,4.7309,4.7309,4.7309,4.7309,4.7309,4.7309,4.7309,4.7309,4.7309]}]]